[[{"header":{"parameterUnit":"m.s-1","parameterCategory":1,"la1":31.0,"la2":29.5877,"lo1":-88.7671,"lo2":-86.6584,"dy":0.0162,"dx":0.0185,"nx":115,"ny":88,"refTime":"2026-04-14T12:00:00:Z","depth":0,"parameterNumber":2,"parameterNumberName":"U-component_of_WINDS"},"data":[0.0,0.0,0.0,0.0,0.0,0.0,0.0,0.0,0.0,0.0,0.0,0.0,0.0,0.0,0.0,0.0,0.0,0.0,0.0,0.0,0.0,0.0,0.0,0.0,0.0,0.0,0.0,0.0,0.0,0.0,0.0,0.0,0.0,0.0,0.0,0.0,0.0,0.0,0.0,0.0,0.0,0.0,0.0,0.0,0.0,0.0,0.0,0.0,0.0,0.0,0.0,0.0,0.0,0.0,0.0,0.0,0.0,0.0,0.0,0.0,0.0,0.0,0.0,0.0,0.0,0.0,0.0,0.0,0.0,0.0,0.0,0.0,0.0,0.0,0.0,0.0,0.0,0.0,0.0,0.0,0.0,0.0,0.0,0.0,0.0,0.0,0.0,0.0,0.0,0.0,0.0,0.0,0.0,0.0,0.0,0.0,0.0,0.0,0.0,0.0,0.0,0.0,0.0,0.0,0.0,0.0,0.0,0.0,0.0,0.0,0.0,0.0,0.0,0.0,0.0,0.0,0.0,0.0,0.0,0.0,0.0,0.0,0.0,0.0,0.0,0.0,0.0,0.0,0.0,0.0,0.0,0.0,0.0,0.0,0.0,0.0,0.0,0.0,0.0,0.0,0.0,0.0,0.0,0.0,0.0,0.0,0.0,0.0,0.0,0.0,0.0,0.0,0.0,0.0,0.0,0.0,0.0,0.0,0.0,0.0,0.0,0.0,0.0,0.0,0.0,0.0,0.0,0.0,0.0,0.0,0.0,0.0,0.0,0.0,0.0,0.0,0.0,0.0,0.0,0.0,0.0,0.0,0.0,0.0,0.0,0.0,0.0,0.0,0.0,0.0,0.0,0.0,0.0,0.0,0.0,0.0,0.0,0.0,0.0,0.0,0.0,0.0,0.0,0.0,0.0,0.0,0.0,0.0,0.0,0.0,0.0,0.0,0.0,0.0,0.0,0.0,0.0,0.0,0.0,0.0,0.0,0.0,0.0,0.0,0.0,0.0,0.0,0.0,0.0,0.0,0.0,0.0,0.0,0.0,0.0,0.0,0.0,0.0,0.0,0.0,0.0,0.0,0.0,0.0,0.0,0.0,0.0,0.0,0.0,0.0,0.0,0.0,0.0,0.0,0.0,0.0,0.0,0.0,0.0,0.0,0.0,0.0,0.0,0.0,0.0,0.0,0.0,0.0,0.0,0.0,0.0,0.0,0.0,0.0,0.0,0.0,0.0,0.0,0.0,0.0,0.0,0.0,0.0,0.0,0.0,0.0,0.0,0.0,0.0,0.0,0.0,0.0,0.0,0.0,0.0,0.0,0.0,0.0,0.0,0.0,0.0,0.0,0.0,0.0,0.0,0.0,0.0,0.0,0.0,0.0,0.0,0.0,0.0,0.0,0.0,0.0,0.0,0.0,0.0,0.0,0.0,0.0,0.0,0.0,0.0,0.0,0.0,0.0,0.0,0.0,0.0,0.0,0.0,0.0,0.0,0.0,0.0,0.0,0.0,0.0,0.0,0.0,0.0,0.0,0.0,0.0,0.0,0.0,0.0,0.0,0.0,0.0,0.0,0.0,0.0,0.0,0.0,0.0,0.0,0.0,0.0,0.0,0.0,0.0,0.0,0.0,0.0,0.0,0.0,0.0,0.0,0.0,0.0,0.0,0.0,0.0,0.0,0.0,0.0,0.0,0.0,0.0,0.0,0.0,0.0,0.0,0.0,0.0,0.0,0.0,0.0,0.0,0.0,0.0,0.0,0.0,0.0,0.0,0.0,0.0,0.0,0.0,0.0,0.0,0.0,0.0,0.0,0.0,0.0,0.0,0.0,0.0,0.0,0.0,0.0,0.0,0.0,0.0,0.0,0.0,0.0,0.0,0.0,0.0,0.0,0.0,0.0,0.0,0.0,0.0,0.0,0.0,0.0,0.0,0.0,0.0,0.0,0.0,0.0,0.0,0.0,0.0,0.0,0.0,0.0,0.0,0.0,0.0,0.0,0.0,0.0,0.0,0.0,0.0,0.0,0.0,0.0,0.0,0.0,0.0,0.0,0.0,0.0,0.0,0.0,0.0,0.0,0.0,0.0,0.0,0.0,0.0,0.0,0.0,0.0,0.0,0.0,0.0,0.0,0.0,0.0,0.0,0.0,0.0,0.0,0.0,0.0,0.0,0.0,0.0,0.0,0.0,0.0,0.0,0.0,0.0,0.0,0.0,0.0,0.0,0.0,0.0,0.0,0.0,0.0,0.0,0.0,0.0,0.0,0.0,0.0,0.0,0.0,0.0,0.0,0.0,0.0,0.0,0.0,0.0,0.0,0.0,0.0,0.0,0.0,0.0,0.0,0.0,0.0,0.0,0.0,0.0,0.0,0.0,0.0,0.0,0.0,0.0,0.0,0.0,0.0,0.0,0.0,0.0,0.0,0.0,0.0,0.0,0.0,0.0,0.0,0.0,0.0,0.0,0.0,0.0,0.0,0.0,0.0,0.0,0.0,0.0,0.0,0.0,0.0,0.0,0.0,0.0,0.0,0.0,0.0,0.0,0.0,0.0,0.0,0.0,0.0,0.0,0.0,0.0,0.0,0.0,0.0,0.0,0.0,0.0,0.0,0.0,0.0,0.0,0.0,0.0,0.0,0.0,0.0,0.0,0.0,0.0,0.0,0.0,0.0,0.0,0.0,0.0,0.0,0.0,0.0,0.0,0.0,0.0,0.0,0.0,0.0,0.0,0.0,0.0,0.0,0.0,0.0,0.0,0.0,0.0,0.0,0.0,0.0,0.0,0.0,0.0,0.0,0.0,0.0,0.0,0.0,0.0,0.0,0.0,0.0,0.0,0.0,0.0,0.0,0.0,0.0,0.0,0.0,0.0,0.0,0.0,0.0,0.0,0.0,0.0,0.0,0.0,0.0,0.0,0.0,0.0,0.0,0.0,0.0,0.0,0.0,0.0,0.0,0.0,0.0,0.0,0.0,0.0,0.0,0.0,0.0,0.0,0.0,0.0,0.0,0.0,0.0,0.0,0.0,0.0,0.0,0.0,0.0,0.0,0.0,0.0,0.0,0.0,0.0,0.0,0.0,0.0,0.0,0.0,0.0,0.0,0.0,0.0,0.0,0.0,0.0,0.0,0.0,0.0,0.0,0.0,0.0,0.0,0.0,0.0,0.0,0.0,0.0,0.0,0.0,0.0,0.0,0.0,0.0,0.0,0.0,0.0,0.0,0.0,0.0,0.0,0.0,0.0,0.0,0.0,0.0,0.0,0.0,0.0,0.0,0.0,0.0,0.0,0.0,0.0,0.0,0.0,0.0,0.0,0.0,0.0,0.0,0.0,0.0,0.0,0.0,0.0,0.0,0.0,0.0,0.0,0.0,0.0,0.0,0.0,0.0,0.0,0.0,0.0,0.0,0.0,0.0,0.0,0.0,0.0,0.0,0.0,0.0,0.0,0.0,0.0,0.0,0.0,0.0,0.0,0.0,0.0,0.0,0.0,0.0,0.0,0.0,0.0,0.0,0.0,0.0,0.0,0.0,0.0,0.0,0.0,0.0,0.0,0.0,0.0,0.0,0.0,0.0,0.0,0.0,0.0,0.0,0.0,0.0,0.0,0.0,0.0,0.0,0.0,0.0,0.0,0.0,0.0,0.0,0.0,0.0,0.0,0.0,0.0,0.0,0.0,0.0,0.0,0.0,0.0,0.0,0.0,0.0,0.0,0.0,0.0,0.0,0.0,0.0,0.0,0.0,0.0,0.0,0.0,0.0,0.0,0.0,0.0,0.0,0.0,0.0,0.0,0.0,0.0,0.0,0.0,0.0,0.0,0.0,0.0,0.0,0.0,0.0,0.0,0.0,0.0,0.0,0.0,0.0,0.0,0.0,0.0,0.0,0.0,0.0,0.0,0.0,0.0,0.0,0.0,0.0,0.0,0.0,0.0,0.0,0.0,0.0,0.0,0.0,0.0,0.0,0.0,0.0,0.0,0.0,0.0,0.0,0.0,0.0,0.0,0.0,0.0,0.0,0.0,0.0,0.0,0.0,0.0,0.0,0.0,0.0,0.0,0.0,0.0,0.0,0.0,0.0,0.0,0.0,0.0,0.0,0.0,0.0,0.0,0.0,0.0,0.0,0.0,0.0,0.0,0.0,0.0,0.0,0.0,0.0,0.0,0.0,0.0,0.0,0.0,0.0,0.0,0.0,0.0,0.0,0.0,0.0,0.0,0.0,0.0,0.0,0.0,0.0,0.0,0.0,0.0,0.0,0.0,0.0,0.0,0.0,0.0,0.0,0.0,5.4062,0.0,0.0,0.0,0.0,0.0,0.0,0.0,0.0,0.0,0.0,0.0,0.0,0.0,0.0,0.0,0.0,0.0,0.0,0.0,0.0,0.0,0.0,0.0,0.0,0.0,0.0,0.0,0.0,0.0,0.0,0.0,0.0,0.0,0.0,0.0,0.0,0.0,0.0,0.0,0.0,0.0,0.0,0.0,0.0,0.0,0.0,0.0,0.0,0.0,0.0,0.0,0.0,0.0,0.0,0.0,0.0,0.0,0.0,0.0,0.0,0.0,0.0,0.0,0.0,0.0,0.0,0.0,0.0,0.0,0.0,0.0,0.0,0.0,0.0,0.0,0.0,0.0,0.0,0.0,0.0,0.0,0.0,0.0,0.0,0.0,0.0,0.0,0.0,0.0,0.0,0.0,0.0,0.0,0.0,0.0,0.0,0.0,0.0,0.0,0.0,0.0,0.0,0.0,0.0,0.0,0.0,0.0,0.0,0.0,0.0,5.6601,5.6601,5.6601,5.5781,5.4062,0.0,0.0,0.0,0.0,0.0,0.0,0.0,0.0,0.0,0.0,0.0,0.0,0.0,0.0,0.0,0.0,0.0,0.0,0.0,0.0,0.0,0.0,0.0,0.0,0.0,0.0,0.0,0.0,0.0,0.0,0.0,0.0,0.0,0.0,0.0,0.0,0.0,0.0,0.0,0.0,0.0,0.0,0.0,0.0,0.0,0.0,0.0,0.0,0.0,0.0,0.0,0.0,0.0,0.0,0.0,0.0,0.0,0.0,0.0,0.0,0.0,0.0,0.0,0.0,0.0,0.0,0.0,0.0,0.0,0.0,0.0,0.0,0.0,0.0,0.0,0.0,0.0,0.0,0.0,0.0,0.0,0.0,0.0,0.0,0.0,0.0,0.0,0.0,0.0,0.0,0.0,0.0,0.0,0.0,0.0,0.0,0.0,0.0,0.0,0.0,0.0,0.0,0.0,0.0,0.0,0.0,0.0,0.0,0.0,0.0,0.0,0.0,5.7305,5.6172,5.4062,0.0,0.0,0.0,0.0,0.0,0.0,0.0,0.0,0.0,0.0,0.0,0.0,0.0,0.0,0.0,0.0,0.0,0.0,0.0,0.0,0.0,0.0,0.0,0.0,0.0,0.0,0.0,0.0,0.0,0.0,0.0,0.0,0.0,0.0,0.0,0.0,0.0,0.0,0.0,0.0,0.0,0.0,0.0,0.0,0.0,0.0,0.0,0.0,0.0,0.0,0.0,0.0,0.0,0.0,0.0,0.0,0.0,0.0,0.0,0.0,0.0,0.0,0.0,0.0,0.0,0.0,0.0,0.0,0.0,0.0,0.0,0.0,0.0,0.0,0.0,0.0,0.0,0.0,0.0,0.0,0.0,0.0,0.0,0.0,0.0,0.0,0.0,0.0,0.0,0.0,0.0,0.0,0.0,0.0,0.0,0.0,0.0,0.0,0.0,0.0,0.0,0.0,0.0,0.0,0.0,0.0,0.0,0.0,0.0,0.0,6.0078,6.0039,5.9336,0.0,5.4141,0.0,0.0,0.0,0.0,0.0,0.0,0.0,0.0,0.0,0.0,0.0,0.0,0.0,0.0,0.0,0.0,0.0,0.0,0.0,0.0,0.0,0.0,0.0,0.0,0.0,0.0,0.0,0.0,0.0,0.0,0.0,0.0,0.0,0.0,0.0,0.0,0.0,0.0,0.0,0.0,0.0,0.0,0.0,0.0,0.0,0.0,0.0,0.0,0.0,0.0,0.0,0.0,0.0,0.0,0.0,0.0,0.0,0.0,0.0,0.0,0.0,0.0,0.0,0.0,0.0,0.0,0.0,0.0,0.0,0.0,0.0,0.0,0.0,0.0,0.0,0.0,0.0,0.0,0.0,0.0,0.0,0.0,0.0,0.0,0.0,0.0,0.0,0.0,0.0,0.0,0.0,0.0,0.0,0.0,0.0,0.0,0.0,0.0,0.0,0.0,0.0,0.0,0.0,0.0,0.0,0.0,0.0,0.0,0.0,0.0,6.0625,6.1172,5.8906,5.6523,0.0,0.0,0.0,0.0,0.0,0.0,0.0,0.0,0.0,0.0,0.0,0.0,0.0,0.0,0.0,0.0,0.0,0.0,0.0,0.0,0.0,0.0,0.0,0.0,0.0,0.0,0.0,0.0,0.0,0.0,0.0,0.0,0.0,0.0,0.0,0.0,0.0,0.0,0.0,0.0,0.0,0.0,0.0,0.0,0.0,0.0,0.0,0.0,0.0,0.0,0.0,0.0,0.0,0.0,0.0,0.0,0.0,0.0,0.0,0.0,0.0,0.0,0.0,0.0,0.0,0.0,0.0,0.0,0.0,0.0,0.0,0.0,0.0,0.0,0.0,0.0,0.0,0.0,0.0,0.0,0.0,0.0,0.0,0.0,0.0,0.0,0.0,0.0,0.0,0.0,0.0,0.0,0.0,0.0,0.0,0.0,0.0,0.0,0.0,0.0,0.0,0.0,0.0,0.0,0.0,0.0,0.0,0.0,0.0,0.0,6.0586,0.0,6.1172,5.8281,5.5664,5.3711,0.0,0.0,0.0,0.0,0.0,0.0,0.0,0.0,0.0,0.0,0.0,0.0,0.0,0.0,0.0,0.0,0.0,0.0,0.0,0.0,0.0,0.0,0.0,0.0,0.0,0.0,0.0,0.0,0.0,0.0,0.0,0.0,0.0,0.0,0.0,0.0,0.0,0.0,0.0,0.0,0.0,0.0,0.0,0.0,0.0,0.0,0.0,0.0,0.0,0.0,0.0,0.0,0.0,0.0,0.0,0.0,0.0,0.0,0.0,0.0,0.0,0.0,0.0,0.0,0.0,0.0,0.0,0.0,0.0,0.0,0.0,0.0,0.0,0.0,0.0,0.0,0.0,0.0,0.0,0.0,0.0,0.0,0.0,0.0,0.0,0.0,0.0,0.0,0.0,0.0,0.0,0.0,0.0,0.0,0.0,0.0,0.0,0.0,0.0,0.0,0.0,0.0,0.0,0.0,0.0,0.0,0.0,0.0,0.0,6.1992,6.2109,6.0469,5.7969,5.539,0.0,0.0,0.0,0.0,0.0,0.0,0.0,0.0,0.0,0.0,0.0,0.0,0.0,0.0,0.0,0.0,0.0,0.0,0.0,0.0,0.0,0.0,0.0,0.0,0.0,0.0,0.0,0.0,0.0,0.0,0.0,0.0,0.0,0.0,0.0,0.0,0.0,0.0,0.0,0.0,0.0,0.0,0.0,0.0,0.0,0.0,0.0,0.0,0.0,0.0,0.0,0.0,0.0,0.0,0.0,0.0,0.0,0.0,0.0,0.0,0.0,0.0,0.0,0.0,0.0,0.0,0.0,0.0,0.0,0.0,0.0,0.0,0.0,0.0,0.0,0.0,0.0,0.0,0.0,0.0,0.0,0.0,0.0,0.0,0.0,0.0,0.0,0.0,0.0,0.0,0.0,0.0,0.0,0.0,0.0,0.0,0.0,0.0,0.0,0.0,0.0,0.0,0.0,0.0,0.0,0.0,0.0,0.0,0.0,6.043,6.2656,6.25,5.9726,5.8203,5.5664,0.0,0.0,0.0,0.0,0.0,0.0,0.0,0.0,0.0,0.0,0.0,0.0,0.0,0.0,0.0,0.0,0.0,0.0,0.0,0.0,0.0,0.0,0.0,0.0,0.0,0.0,0.0,0.0,0.0,0.0,0.0,0.0,0.0,0.0,0.0,0.0,0.0,0.0,0.0,0.0,0.0,0.0,0.0,0.0,0.0,0.0,0.0,0.0,0.0,0.0,0.0,0.0,0.0,0.0,0.0,0.0,0.0,0.0,0.0,0.0,0.0,0.0,0.0,0.0,0.0,0.0,0.0,0.0,0.0,0.0,0.0,0.0,0.0,0.0,0.0,0.0,0.0,0.0,0.0,0.0,0.0,0.0,0.0,0.0,0.0,0.0,0.0,0.0,0.0,0.0,0.0,0.0,0.0,0.0,0.0,0.0,0.0,0.0,0.0,0.0,0.0,0.0,0.0,0.0,0.0,0.0,0.0,0.0,0.0,6.039,0.0,6.25,0.0,5.8476,5.6015,0.0,0.0,0.0,0.0,0.0,0.0,0.0,0.0,0.0,0.0,0.0,0.0,0.0,0.0,0.0,0.0,0.0,0.0,0.0,0.0,0.0,0.0,0.0,0.0,0.0,0.0,0.0,0.0,0.0,0.0,0.0,0.0,0.0,0.0,0.0,0.0,0.0,0.0,0.0,0.0,0.0,0.0,0.0,0.0,0.0,0.0,0.0,0.0,0.0,0.0,0.0,0.0,0.0,0.0,0.0,0.0,0.0,0.0,0.0,0.0,0.0,0.0,0.0,0.0,0.0,0.0,0.0,0.0,0.0,0.0,0.0,0.0,0.0,0.0,0.0,0.0,0.0,0.0,0.0,0.0,0.0,0.0,0.0,0.0,0.0,0.0,0.0,0.0,0.0,0.0,0.0,0.0,0.0,0.0,0.0,0.0,0.0,0.0,0.0,0.0,0.0,0.0,0.0,0.0,0.0,0.0,0.0,0.0,5.8789,6.039,6.2226,6.2422,6.0469,5.8906,5.6328,0.0,0.0,0.0,0.0,0.0,0.0,0.0,0.0,0.0,0.0,0.0,0.0,0.0,0.0,0.0,0.0,0.0,0.0,0.0,0.0,0.0,0.0,0.0,0.0,0.0,0.0,0.0,0.0,0.0,0.0,0.0,0.0,0.0,0.0,0.0,0.0,0.0,0.0,0.0,0.0,0.0,0.0,0.0,0.0,0.0,0.0,0.0,0.0,0.0,0.0,0.0,0.0,0.0,0.0,0.0,0.0,0.0,0.0,0.0,0.0,0.0,0.0,0.0,0.0,0.0,0.0,0.0,0.0,0.0,0.0,0.0,0.0,0.0,0.0,0.0,0.0,0.0,0.0,0.0,0.0,0.0,0.0,0.0,0.0,0.0,0.0,0.0,0.0,0.0,0.0,0.0,0.0,0.0,0.0,0.0,0.0,0.0,0.0,0.0,0.0,0.0,0.0,0.0,0.0,0.0,0.0,0.0,0.0,0.0,6.1367,6.4765,6.5156,6.2344,6.1094,5.8359,0.0,0.0,0.0,0.0,0.0,0.0,0.0,0.0,0.0,0.0,0.0,0.0,0.0,0.0,0.0,0.0,0.0,0.0,0.0,0.0,0.0,0.0,0.0,0.0,0.0,0.0,0.0,0.0,0.0,0.0,0.0,0.0,0.0,0.0,0.0,0.0,0.0,0.0,0.0,0.0,0.0,0.0,0.0,0.0,0.0,0.0,0.0,0.0,0.0,0.0,0.0,0.0,0.0,0.0,0.0,0.0,0.0,0.0,0.0,0.0,0.0,0.0,0.0,0.0,0.0,0.0,0.0,0.0,0.0,0.0,0.0,0.0,0.0,0.0,0.0,0.0,0.0,0.0,0.0,0.0,0.0,0.0,0.0,0.0,0.0,0.0,0.0,0.0,0.0,0.0,0.0,0.0,0.0,0.0,0.0,0.0,0.0,0.0,0.0,0.0,0.0,0.0,0.0,0.0,0.0,0.0,0.0,0.0,0.0,6.6055,6.8711,6.8594,6.543,6.4258,6.1211,5.6133,0.0,0.0,0.0,0.0,0.0,0.0,0.0,0.0,0.0,0.0,0.0,0.0,0.0,0.0,0.0,0.0,0.0,0.0,0.0,0.0,0.0,0.0,0.0,0.0,0.0,0.0,0.0,0.0,0.0,0.0,0.0,0.0,0.0,0.0,0.0,0.0,0.0,0.0,0.0,0.0,0.0,0.0,0.0,0.0,0.0,0.0,0.0,0.0,0.0,0.0,0.0,0.0,0.0,0.0,0.0,0.0,0.0,0.0,0.0,0.0,0.0,0.0,0.0,0.0,0.0,0.0,0.0,0.0,0.0,0.0,0.0,0.0,0.0,0.0,0.0,0.0,0.0,0.0,0.0,0.0,0.0,0.0,0.0,0.0,0.0,0.0,0.0,0.0,0.0,0.0,0.0,0.0,0.0,0.0,0.0,0.0,0.0,0.0,0.0,0.0,0.0,0.0,0.0,0.0,0.0,0.0,0.0,0.0,7.3515,7.3945,7.2851,6.9922,6.8125,6.4765,0.0,0.0,0.0,0.0,0.0,0.0,0.0,0.0,0.0,0.0,0.0,0.0,0.0,0.0,0.0,0.0,0.0,0.0,0.0,0.0,0.0,0.0,0.0,0.0,0.0,0.0,0.0,0.0,0.0,0.0,0.0,0.0,0.0,0.0,0.0,0.0,0.0,0.0,0.0,0.0,0.0,0.0,0.0,0.0,0.0,0.0,0.0,0.0,0.0,0.0,0.0,0.0,0.0,0.0,0.0,0.0,0.0,0.0,0.0,0.0,0.0,0.0,0.0,0.0,0.0,0.0,0.0,0.0,0.0,0.0,0.0,0.0,0.0,0.0,0.0,0.0,0.0,0.0,0.0,0.0,0.0,0.0,0.0,0.0,0.0,0.0,0.0,0.0,0.0,0.0,0.0,0.0,0.0,0.0,0.0,0.0,0.0,0.0,0.0,0.0,0.0,0.0,0.0,0.0,0.0,0.0,0.0,0.0,0.0,7.7031,8.207,8.164,7.539,7.2226,6.8242,0.0,0.0,0.0,0.0,0.0,0.0,0.0,0.0,0.0,0.0,0.0,0.0,0.0,0.0,0.0,0.0,0.0,0.0,0.0,0.0,0.0,0.0,0.0,0.0,0.0,0.0,0.0,0.0,0.0,0.0,0.0,0.0,0.0,0.0,0.0,0.0,0.0,0.0,0.0,0.0,0.0,0.0,0.0,0.0,0.0,0.0,0.0,0.0,0.0,0.0,0.0,0.0,0.0,0.0,0.0,0.0,0.0,0.0,0.0,0.0,0.0,0.0,0.0,0.0,0.0,0.0,0.0,0.0,0.0,0.0,0.0,0.0,0.0,0.0,0.0,0.0,0.0,0.0,0.0,0.0,0.0,0.0,0.0,0.0,0.0,0.0,0.0,0.0,0.0,0.0,0.0,0.0,0.0,0.0,0.0,0.0,0.0,0.0,0.0,0.0,0.0,0.0,0.0,0.0,0.0,0.0,0.0,0.0,7.4844,8.1094,8.7187,8.7656,8.2148,7.7617,7.2305,0.0,0.0,0.0,0.0,0.0,0.0,0.0,0.0,0.0,0.0,0.0,0.0,0.0,0.0,0.0,0.0,0.0,0.0,0.0,0.0,0.0,0.0,0.0,0.0,0.0,0.0,0.0,0.0,0.0,0.0,0.0,0.0,0.0,0.0,0.0,0.0,0.0,0.0,0.0,0.0,0.0,0.0,0.0,0.0,0.0,0.0,0.0,0.0,0.0,0.0,0.0,0.0,0.0,0.0,0.0,0.0,0.0,0.0,0.0,0.0,0.0,0.0,0.0,0.0,0.0,0.0,0.0,0.0,0.0,0.0,0.0,0.0,0.0,0.0,0.0,0.0,0.0,0.0,0.0,0.0,0.0,0.0,0.0,0.0,0.0,0.0,0.0,0.0,0.0,0.0,0.0,0.0,0.0,0.0,0.0,0.0,0.0,0.0,0.0,0.0,0.0,0.0,0.0,0.0,0.0,0.0,0.0,0.0,7.75,8.4883,9.0273,9.1719,8.8945,8.3125,7.6445,0.0,0.0,0.0,0.0,0.0,0.0,0.0,0.0,0.0,0.0,0.0,0.0,0.0,0.0,0.0,0.0,0.0,0.0,0.0,0.0,0.0,0.0,0.0,0.0,0.0,0.0,0.0,0.0,0.0,0.0,0.0,0.0,0.0,0.0,0.0,0.0,0.0,0.0,0.0,0.0,0.0,0.0,0.0,0.0,0.0,0.0,0.0,0.0,0.0,0.0,0.0,0.0,0.0,0.0,0.0,0.0,0.0,0.0,0.0,0.0,0.0,0.0,0.0,0.0,0.0,0.0,0.0,0.0,0.0,0.0,0.0,0.0,0.0,0.0,0.0,0.0,0.0,0.0,0.0,0.0,0.0,0.0,0.0,0.0,0.0,0.0,0.0,0.0,0.0,0.0,0.0,0.0,0.0,0.0,0.0,0.0,0.0,0.0,0.0,0.0,0.0,0.0,0.0,0.0,0.0,0.0,0.0,0.0,8.0156,8.582,9.2304,9.4101,9.082,8.4883,7.875,0.0,0.0,0.0,0.0,0.0,0.0,0.0,0.0,0.0,0.0,0.0,0.0,0.0,0.0,0.0,0.0,0.0,0.0,0.0,0.0,0.0,0.0,0.0,0.0,0.0,0.0,0.0,0.0,0.0,0.0,0.0,0.0,0.0,0.0,0.0,0.0,0.0,0.0,0.0,0.0,0.0,0.0,0.0,0.0,0.0,0.0,0.0,0.0,5.4045,0.0,0.0,0.0,0.0,0.0,0.0,0.0,0.0,0.0,0.0,0.0,0.0,0.0,0.0,0.0,0.0,0.0,0.0,0.0,0.0,0.0,0.0,0.0,0.0,0.0,0.0,0.0,0.0,0.0,0.0,0.0,0.0,0.0,0.0,0.0,0.0,0.0,0.0,0.0,0.0,0.0,0.0,0.0,0.0,0.0,0.0,0.0,0.0,0.0,0.0,0.0,0.0,0.0,0.0,0.0,0.0,0.0,0.0,0.0,8.2812,8.7929,9.3554,9.5234,9.25,8.8242,8.2344,0.0,0.0,0.0,0.0,0.0,0.0,0.0,0.0,0.0,0.0,0.0,0.0,0.0,0.0,0.0,0.0,0.0,0.0,0.0,0.0,0.0,0.0,0.0,0.0,0.0,0.0,0.0,0.0,0.0,0.0,0.0,0.0,0.0,0.0,0.0,0.0,0.0,0.0,0.0,0.0,0.0,0.0,0.0,0.0,0.0,0.0,0.0,0.0,0.0,0.0,0.0,0.0,0.0,0.0,0.0,0.0,0.0,0.0,0.0,0.0,0.0,0.0,0.0,0.0,0.0,0.0,0.0,0.0,0.0,0.0,0.0,0.0,0.0,0.0,0.0,0.0,0.0,0.0,0.0,0.0,0.0,0.0,0.0,0.0,0.0,0.0,0.0,0.0,0.0,0.0,0.0,0.0,0.0,0.0,0.0,0.0,0.0,0.0,0.0,0.0,0.0,0.0,0.0,0.0,0.0,0.0,0.0,7.9336,8.5234,9.0117,9.4453,9.5742,9.375,9.1172,8.5429,7.6211,0.0,0.0,0.0,0.0,0.0,0.0,0.0,0.0,0.0,0.0,0.0,0.0,0.0,0.0,0.0,0.0,0.0,0.0,0.0,0.0,0.0,0.0,0.0,0.0,0.0,0.0,0.0,0.0,0.0,0.0,0.0,0.0,0.0,0.0,0.0,0.0,0.0,0.0,5.2997,5.5489,0.0,0.0,0.0,0.0,0.0,0.0,0.0,0.0,5.6996,0.0,0.0,0.0,0.0,0.0,0.0,0.0,0.0,0.0,0.0,0.0,0.0,0.0,0.0,0.0,0.0,0.0,0.0,0.0,0.0,0.0,0.0,0.0,0.0,0.0,0.0,0.0,0.0,0.0,0.0,0.0,0.0,0.0,0.0,0.0,0.0,0.0,0.0,0.0,0.0,0.0,0.0,0.0,0.0,0.0,0.0,0.0,0.0,0.0,0.0,0.0,0.0,0.0,0.0,0.0,0.0,7.4101,8.1679,8.7344,9.1054,9.5273,9.6015,9.289,9.0273,8.4804,7.6289,0.0,0.0,0.0,0.0,0.0,0.0,0.0,0.0,0.0,0.0,0.0,0.0,0.0,0.0,0.0,0.0,0.0,0.0,0.0,0.0,0.0,0.0,0.0,0.0,0.0,0.0,0.0,0.0,0.0,0.0,0.0,0.0,0.0,0.0,0.0,0.0,0.0,0.0,0.0,5.8058,5.9334,0.0,0.0,0.0,0.0,0.0,0.0,0.0,0.0,5.7777,0.0,0.0,0.0,0.0,0.0,0.0,0.0,0.0,0.0,0.0,0.0,0.0,0.0,0.0,0.0,0.0,0.0,0.0,0.0,0.0,0.0,0.0,0.0,0.0,0.0,0.0,0.0,0.0,0.0,0.0,0.0,0.0,0.0,0.0,0.0,0.0,0.0,0.0,0.0,0.0,0.0,0.0,0.0,0.0,0.0,0.0,0.0,0.0,0.0,0.0,0.0,0.0,0.0,0.0,0.0,7.5937,8.4023,8.9414,9.1953,9.5742,9.5625,9.1367,8.789,8.2226,0.0,0.0,0.0,0.0,0.0,0.0,0.0,0.0,0.0,0.0,0.0,0.0,0.0,0.0,0.0,0.0,0.0,0.0,0.0,0.0,0.0,0.0,0.0,0.0,0.0,0.0,0.0,0.0,0.0,0.0,0.0,0.0,0.0,0.0,0.0,0.0,0.0,0.0,0.0,0.0,6.0027,6.1992,6.1173,0.0,0.0,0.0,0.0,0.0,0.0,5.9768,5.8753,0.0,0.0,0.0,0.0,0.0,0.0,0.0,0.0,0.0,0.0,0.0,0.0,0.0,0.0,0.0,0.0,0.0,0.0,0.0,0.0,0.0,0.0,0.0,0.0,0.0,0.0,0.0,0.0,0.0,0.0,0.0,0.0,0.0,0.0,0.0,0.0,0.0,0.0,0.0,0.0,0.0,0.0,0.0,0.0,0.0,0.0,0.0,0.0,0.0,0.0,0.0,0.0,0.0,0.0,0.0,7.7226,8.5664,9.0859,9.2617,9.5937,9.5234,9.0156,8.5859,7.9961,0.0,0.0,0.0,0.0,0.0,0.0,0.0,0.0,0.0,0.0,0.0,0.0,0.0,0.0,0.0,0.0,0.0,0.0,0.0,0.0,0.0,0.0,0.0,0.0,0.0,0.0,0.0,0.0,0.0,0.0,0.0,0.0,0.0,0.0,0.0,0.0,0.0,0.0,0.0,0.0,0.0,6.4441,6.399,6.2668,0.0,0.0,0.0,0.0,6.132,6.1598,0.0,0.0,0.0,0.0,0.0,0.0,0.0,0.0,0.0,0.0,0.0,0.0,0.0,0.0,0.0,0.0,0.0,0.0,0.0,0.0,0.0,0.0,0.0,0.0,0.0,0.0,0.0,0.0,0.0,0.0,0.0,0.0,0.0,0.0,0.0,0.0,0.0,0.0,0.0,0.0,0.0,0.0,0.0,0.0,0.0,0.0,0.0,0.0,0.0,0.0,0.0,0.0,0.0,0.0,0.0,0.0,7.7187,8.5664,9.082,9.2656,9.5937,9.5234,9.0117,8.5859,7.9961,0.0,0.0,0.0,0.0,0.0,0.0,0.0,0.0,0.0,0.0,0.0,0.0,0.0,0.0,0.0,0.0,0.0,0.0,0.0,0.0,0.0,0.0,0.0,0.0,0.0,0.0,0.0,0.0,0.0,0.0,0.0,0.0,0.0,0.0,0.0,0.0,0.0,0.0,0.0,0.0,0.0,6.6613,6.7296,6.6611,6.5822,0.0,0.0,6.4762,6.4918,6.5529,0.0,0.0,0.0,0.0,0.0,0.0,0.0,0.0,0.0,0.0,0.0,0.0,0.0,0.0,0.0,0.0,0.0,0.0,0.0,0.0,0.0,0.0,0.0,0.0,0.0,0.0,0.0,0.0,0.0,0.0,0.0,0.0,0.0,0.0,0.0,0.0,0.0,0.0,0.0,0.0,0.0,0.0,0.0,0.0,0.0,0.0,0.0,0.0,0.0,0.0,0.0,0.0,0.0,0.0,0.0,7.0781,7.7226,8.5625,9.0586,9.1875,9.4765,9.3828,8.8711,8.4375,7.8515,0.0,0.0,0.0,0.0,0.0,0.0,0.0,0.0,0.0,0.0,0.0,0.0,0.0,0.0,0.0,0.0,0.0,0.0,0.0,0.0,0.0,0.0,0.0,0.0,0.0,0.0,0.0,0.0,0.0,0.0,0.0,0.0,0.0,0.0,0.0,0.0,0.0,0.0,0.0,0.0,0.0,0.0,6.9239,6.9489,0.0,0.0,0.0,6.7764,6.8252,0.0,0.0,0.0,0.0,0.0,0.0,0.0,0.0,0.0,0.0,0.0,0.0,0.0,0.0,0.0,0.0,0.0,0.0,0.0,0.0,0.0,0.0,0.0,0.0,0.0,0.0,0.0,0.0,0.0,0.0,0.0,0.0,0.0,0.0,0.0,0.0,0.0,0.0,0.0,0.0,0.0,0.0,0.0,0.0,0.0,0.0,0.0,0.0,0.0,0.0,0.0,0.0,0.0,0.0,0.0,0.0,0.0,7.7539,8.5976,9.0859,9.1953,9.4492,9.3594,8.8906,8.4765,0.0,0.0,0.0,0.0,0.0,0.0,0.0,0.0,0.0,0.0,0.0,0.0,0.0,0.0,0.0,0.0,0.0,0.0,0.0,0.0,0.0,0.0,0.0,0.0,0.0,0.0,0.0,4.461,0.0,0.0,0.0,0.0,0.0,0.0,0.0,0.0,0.0,0.0,0.0,0.0,0.0,0.0,7.0107,7.1239,7.239,7.2812,0.0,0.0,7.0736,7.1366,7.1955,7.0834,0.0,0.0,0.0,0.0,0.0,0.0,0.0,0.0,0.0,0.0,0.0,0.0,0.0,0.0,0.0,0.0,0.0,0.0,0.0,0.0,0.0,0.0,0.0,0.0,0.0,0.0,0.0,0.0,0.0,0.0,0.0,0.0,0.0,0.0,0.0,0.0,0.0,0.0,0.0,0.0,0.0,0.0,0.0,0.0,0.0,0.0,0.0,0.0,0.0,0.0,0.0,0.0,0.0,0.0,0.0,7.8398,8.6875,9.1992,9.3711,9.6211,9.5859,9.2344,8.8867,8.3398,0.0,0.0,0.0,0.0,0.0,0.0,0.0,0.0,0.0,0.0,0.0,0.0,0.0,0.0,0.0,0.0,0.0,0.0,0.0,0.0,0.0,0.0,0.0,0.0,0.0,0.0,0.0,0.0,0.0,0.0,0.0,0.0,0.0,0.0,0.0,0.0,0.0,0.0,0.0,0.0,0.0,7.2145,7.3873,7.5558,7.6359,0.0,0.0,7.4088,7.4107,7.408,7.251,6.8139,0.0,0.0,0.0,0.0,0.0,0.0,0.0,0.0,0.0,0.0,0.0,0.0,0.0,0.0,0.0,0.0,0.0,0.0,0.0,0.0,0.0,0.0,0.0,0.0,0.0,0.0,0.0,0.0,0.0,0.0,0.0,0.0,0.0,0.0,0.0,0.0,0.0,0.0,0.0,0.0,0.0,0.0,0.0,0.0,0.0,0.0,0.0,0.0,0.0,0.0,0.0,0.0,0.0,7.1601,7.8476,8.6953,9.1875,9.3125,9.5117,9.5,9.2656,9.0273,8.5429,0.0,0.0,0.0,0.0,0.0,0.0,0.0,0.0,0.0,0.0,0.0,0.0,0.0,0.0,0.0,0.0,0.0,0.0,0.0,0.0,0.0,0.0,0.0,0.0,0.0,0.0,0.0,0.0,4.7002,4.6765,4.5902,0.0,0.0,0.0,0.0,0.0,0.0,0.0,0.0,0.0,0.0,7.2617,7.4895,7.7997,0.0,0.0,7.862,7.8492,7.6936,7.6132,7.4053,6.913,6.2783,0.0,0.0,0.0,0.0,0.0,0.0,0.0,0.0,0.0,0.0,0.0,0.0,0.0,0.0,0.0,0.0,0.0,0.0,0.0,0.0,0.0,0.0,0.0,0.0,0.0,0.0,0.0,0.0,0.0,0.0,0.0,0.0,0.0,0.0,0.0,0.0,0.0,0.0,0.0,0.0,0.0,0.0,0.0,0.0,0.0,0.0,0.0,0.0,0.0,0.0,0.0,0.0,7.1992,7.8828,8.7344,9.2226,9.3359,9.5078,9.5117,9.3398,9.1914,8.7539,0.0,0.0,0.0,0.0,0.0,0.0,0.0,0.0,0.0,0.0,0.0,0.0,0.0,0.0,0.0,0.0,0.0,0.0,0.0,0.0,0.0,0.0,0.0,0.0,0.0,0.0,0.0,0.0,4.7471,4.669,4.6331,0.0,0.0,0.0,0.0,0.0,0.0,0.0,0.0,0.0,0.0,7.286,7.5718,7.9276,8.1343,8.0435,8.0875,8.0541,7.8454,7.669,7.3975,6.9536,0.0,0.0,0.0,0.0,0.0,0.0,0.0,0.0,0.0,0.0,0.0,0.0,0.0,0.0,0.0,0.0,0.0,0.0,0.0,0.0,0.0,0.0,0.0,0.0,0.0,0.0,0.0,0.0,0.0,0.0,4.6413,0.0,0.0,0.0,0.0,0.0,0.0,0.0,0.0,0.0,0.0,0.0,0.0,0.0,0.0,0.0,0.0,0.0,0.0,0.0,0.0,0.0,0.0,7.2812,7.9609,8.8164,9.3398,9.5078,9.6797,9.6797,9.5156,9.4258,9.0117,8.2265,0.0,0.0,0.0,0.0,0.0,0.0,0.0,0.0,0.0,0.0,0.0,0.0,0.0,0.0,0.0,0.0,0.0,0.0,0.0,0.0,0.0,0.0,0.0,0.0,0.0,0.0,4.7783,4.6105,4.548,0.0,0.0,0.0,0.0,0.0,0.0,0.0,0.0,0.0,0.0,6.8039,7.314,7.6466,7.9227,8.1226,8.1958,8.0718,7.9325,7.8261,7.5183,7.1965,0.0,0.0,0.0,0.0,0.0,0.0,0.0,0.0,0.0,0.0,0.0,0.0,0.0,0.0,0.0,0.0,0.0,0.0,0.0,0.0,0.0,0.0,0.0,0.0,0.0,0.0,0.0,5.3221,5.2051,0.0,0.0,0.0,0.0,0.0,0.0,0.0,0.0,0.0,0.0,0.0,6.4589,6.5743,0.0,0.0,0.0,0.0,0.0,0.0,0.0,0.0,0.0,0.0,0.0,0.0,7.2265,7.9687,8.8203,9.3437,9.5156,9.6836,9.7187,9.6094,9.4648,8.8906,7.8359,0.0,0.0,0.0,0.0,0.0,0.0,0.0,0.0,0.0,0.0,0.0,0.0,0.0,0.0,0.0,0.0,0.0,0.0,0.0,0.0,0.0,0.0,0.0,0.0,0.0,4.9345,0.0,0.0,0.0,0.0,0.0,0.0,0.0,0.0,0.0,0.0,0.0,5.6475,6.3662,6.8357,7.2333,7.5762,7.9431,8.1531,0.0,0.0,0.0,0.0,0.0,0.0,0.0,0.0,0.0,0.0,0.0,0.0,0.0,0.0,6.3474,6.2627,6.132,6.0012,5.888,0.0,0.0,0.0,0.0,0.0,0.0,0.0,0.0,0.0,0.0,0.0,0.0,0.0,0.0,5.6725,0.0,5.4159,0.0,0.0,0.0,0.0,0.0,0.0,0.0,0.0,6.665,6.9102,7.0206,7.136,7.2052,0.0,7.2322,6.9655,0.0,0.0,0.0,0.0,0.0,0.0,0.0,0.0,7.2422,8.0117,8.8047,9.3125,9.5156,9.6562,9.7031,9.6484,9.3633,8.7695,7.8398,7.1484,6.4805,0.0,0.0,0.0,0.0,0.0,0.0,0.0,0.0,0.0,0.0,0.0,0.0,0.0,0.0,0.0,0.0,0.0,0.0,0.0,0.0,0.0,0.0,0.0,4.9622,0.0,0.0,0.0,0.0,0.0,0.0,0.0,0.0,0.0,5.3749,5.5161,5.8403,6.4682,6.8513,7.1948,7.5339,0.0,0.0,0.0,0.0,0.0,0.0,0.0,7.1459,7.1359,6.977,6.9135,7.0754,7.0594,7.0552,7.1706,0.0,0.0,6.9013,6.7359,6.6026,6.4962,6.4301,6.3659,6.2781,6.3717,6.4939,0.0,0.0,0.0,0.0,0.0,0.0,0.0,0.0,6.1518,6.1019,0.0,5.844,0.0,0.0,0.0,0.0,0.0,0.0,0.0,0.0,7.1708,7.4562,7.6053,7.6169,7.663,7.7476,7.7438,7.6899,7.5553,6.7089,0.0,0.0,0.0,0.0,0.0,0.0,7.3281,8.0898,8.7851,9.2617,9.5078,9.6054,9.6484,9.6328,9.1562,8.6914,8.2539,7.5937,6.9531,6.3633,5.918,0.0,0.0,0.0,0.0,0.0,0.0,0.0,0.0,0.0,0.0,0.0,0.0,0.0,0.0,0.0,0.0,0.0,0.0,0.0,0.0,4.9696,0.0,0.0,0.0,0.0,0.0,0.0,0.0,0.0,0.0,0.0,5.4513,5.7875,6.1705,6.5189,0.0,0.0,0.0,0.0,7.9871,8.0591,8.0791,8.0454,7.9376,7.6313,7.4561,7.6165,0.0,0.0,7.6126,7.6394,7.6361,7.6322,7.7015,7.6707,7.4245,7.2937,7.1717,7.0162,6.9771,6.9592,6.8844,6.9232,7.0341,7.1398,0.0,0.0,0.0,0.0,6.5578,6.6954,6.8294,6.7686,6.6941,6.6051,6.3804,0.0,0.0,0.0,0.0,0.0,0.0,6.7066,7.0345,7.5549,7.8569,7.9631,8.0208,8.0939,8.1747,8.117,8.0439,7.9438,7.5148,6.9475,6.2586,0.0,0.0,0.0,0.0,7.4366,8.0937,8.8398,9.289,9.4258,9.5742,9.6211,9.5586,9.2929,9.0039,8.6914,8.1406,7.6211,7.1445,6.4805,0.0,0.0,0.0,0.0,0.0,0.0,0.0,0.0,0.0,0.0,0.0,0.0,0.0,0.0,0.0,0.0,0.0,0.0,0.0,5.1414,5.2351,5.2433,0.0,0.0,0.0,0.0,0.0,0.0,0.0,0.0,0.0,6.1174,6.2379,6.4403,0.0,0.0,7.2399,7.4498,7.7462,7.952,7.9686,0.0,0.0,0.0,7.7593,7.7237,7.9421,8.1764,8.3764,8.4878,8.4061,8.3208,8.317,8.2401,8.1323,7.9977,7.7592,7.5361,7.3726,7.3735,7.3878,7.3178,7.4051,7.5187,7.9169,7.2937,7.0771,7.0028,7.0334,7.1544,7.2839,7.4021,7.3547,7.288,7.1954,6.9872,6.758,6.5217,6.3819,0.0,0.0,0.0,7.1296,7.3837,7.8238,8.0953,8.2093,8.2939,8.3593,8.4093,8.3593,8.3093,8.2593,8.07,7.6755,7.0607,0.0,0.0,6.6183,7.0898,7.632,8.242,8.8789,9.2656,9.3906,9.5273,9.5586,9.4687,9.332,9.1367,8.875,8.4414,8.0039,7.5781,6.9219,6.332,0.0,0.0,0.0,0.0,0.0,0.0,0.0,0.0,0.0,0.0,0.0,4.4647,4.4991,0.0,0.0,0.0,4.7826,5.0871,5.3483,5.4849,0.0,0.0,0.0,0.0,0.0,0.0,0.0,6.1095,6.336,6.5663,6.8015,6.8952,6.9767,7.081,7.2723,7.4584,7.6196,0.0,8.0435,8.0724,8.2086,8.2693,8.163,8.0894,8.1204,8.3293,8.5992,8.7829,8.8055,8.7017,8.6017,8.5555,8.4516,8.3439,8.2901,8.1131,7.9131,7.7169,7.6852,7.6919,7.6716,7.757,7.843,8.5016,8.2477,7.8631,7.6332,7.5388,7.6958,7.8108,7.8891,7.8908,7.8438,7.7583,7.6106,7.4054,7.1663,6.9331,0.0,0.0,7.2692,7.5428,7.7905,8.0344,8.2369,8.3901,8.4786,8.517,8.5093,8.5016,8.4978,8.4939,8.4093,8.2477,7.9946,7.1621,6.891,7.1978,7.467,7.8935,8.4831,8.9178,9.2226,9.3867,9.4609,9.4648,9.3945,9.3008,9.1367,8.8945,8.5625,8.1914,7.7851,7.2656,6.707,6.125,0.0,0.0,0.0,0.0,0.0,0.0,0.0,0.0,0.0,0.0,0.0,0.0,0.0,0.0,0.0,4.9863,0.0,5.5556,5.7434,0.0,0.0,0.0,5.7855,5.9456,6.1095,6.336,6.6639,0.0,0.0,0.0,0.0,7.6482,7.42,7.5963,7.7972,7.951,8.0921,8.2219,8.3113,8.4481,8.5446,8.5313,8.5246,8.5698,8.7132,8.8259,8.8487,8.7829,8.6901,8.5978,8.5401,8.4401,8.3824,8.3785,8.3632,8.2939,8.0469,7.9422,7.9037,7.9446,7.9792,8.0344,8.8286,8.7094,8.6094,8.3349,7.9712,8.0662,8.16,8.2381,8.2369,8.19,8.1054,8.0193,7.8128,7.5197,7.3407,7.3346,7.473,7.6614,7.8838,8.1316,8.3764,8.5483,8.6517,8.7401,8.744,8.6786,8.6132,8.5824,8.5786,8.4978,8.3984,8.2611,7.9854,7.7703,7.6289,7.8263,8.1414,8.5683,9.0031,9.2812,9.3828,9.3437,9.3437,9.3906,9.2422,9.1328,9.0664,8.7383,8.4492,8.207,7.5898,7.0234,6.5547,5.9609,0.0,0.0,0.0,0.0,0.0,0.0,0.0,0.0,0.0,4.7305,4.8867,0.0,5.0186,0.0,5.3932,5.7402,5.9937,6.2336,0.0,0.0,6.2488,6.2865,6.3945,6.496,6.6405,6.8552,7.0894,7.3158,7.5233,7.7575,7.9131,7.9164,7.9672,8.0431,8.1376,8.2131,8.3387,8.5241,8.625,8.7147,8.7732,8.8386,8.8777,8.9252,8.9486,8.9521,8.9325,8.8055,8.7017,8.6786,8.6094,8.5555,8.5478,8.5016,8.4209,8.2945,8.2016,8.1047,8.01,8.0792,8.1766,9.0017,8.9248,8.9248,8.7396,8.4472,8.4516,8.4632,8.4714,8.4709,8.4247,8.3401,8.2757,8.1491,7.9772,7.8834,7.8934,7.9741,8.0912,8.24,8.4114,8.5877,8.7141,8.8017,8.8825,8.8594,8.7363,8.6132,8.5555,8.5555,8.5132,8.483,8.4724,8.5022,8.4304,8.2708,8.2693,8.4154,8.7065,9.0692,9.2851,9.3281,9.2851,9.2656,9.2695,9.1445,9.0156,8.9062,8.6445,8.4062,8.1875,7.6758,7.2109,6.8203,6.2578,5.7539,0.0,0.0,0.0,0.0,0.0,0.0,0.0,0.0,0.0,0.0,0.0,5.4356,0.0,5.8543,0.0,6.4328,6.6561,6.7812,6.7734,6.7733,6.8075,6.8908,6.9411,7.0509,7.2578,7.4447,7.6203,7.7921,7.9717,8.1044,8.1513,8.1591,8.1844,8.2502,8.2863,8.3738,8.5715,8.6915,8.8174,8.9613,9.024,9.0479,9.0444,9.0136,8.979,8.9398,8.832,8.7325,8.6901,8.644,8.6094,8.6094,8.5786,8.5137,8.4368,8.3824,8.2855,8.1285,8.1638,8.249,9.0748,9.0094,9.0094,8.9594,8.8786,8.8055,8.7248,8.644,8.644,8.6055,8.5357,8.4667,8.4325,8.4193,8.3977,8.3837,8.3824,8.4319,8.5132,8.6103,8.6991,8.791,8.8902,8.9787,8.9325,8.7517,8.5978,8.517,8.5055,8.5055,8.5483,8.6296,8.7983,8.8863,8.882,8.7049,8.7033,8.8899,9.1359,9.2578,9.2578,9.25,9.207,9.1289,9.0117,8.8359,8.5937,8.4062,8.1953,7.9453,7.6211,7.3047,6.9922,6.5703,6.1523,0.0,5.5703,0.0,0.0,0.0,0.0,0.0,0.0,0.0,0.0,5.7249,5.9134,6.2413,6.3386,6.5195,6.8555,7.0273,7.1523,7.2226,7.2305,7.2614,7.3334,7.3481,7.434,7.6683,7.7815,7.902,8.0459,8.1669,8.2293,8.2254,8.2254,8.2436,8.302,8.3,8.3515,8.5232,8.6916,8.8798,9.0698,9.127,9.1248,9.1133,9.029,8.9521,8.8854,8.7897,8.6978,8.6324,8.6132,8.6094,8.6094,8.6094,8.5824,8.4983,8.4786,8.4241,8.2855,8.2631,8.3407,9.1095,9.0941,9.0941,9.0479,8.9636,8.9517,8.8979,8.8209,8.8209,8.8128,8.8001,8.7241,8.6529,8.5835,8.4445,8.3751,8.3673,8.3072,8.3984,8.6099,8.6991,8.8218,8.9748,9.1287,9.0748,8.8479,8.7401,8.6555,8.5863,8.5863,8.6324,8.7175,8.8829,8.9367,0.0,0.0,0.0,0.0,9.2218,9.2539,9.2578,9.1914,9.1445,9.1211,8.8437,0.0,8.414,8.1719,7.9609,7.7734,7.5039,0.0,0.0,0.0,0.0,0.0,0.0,0.0,0.0,0.0,0.0,0.0,6.3867,6.3398,6.2695,6.338,6.5028,6.7643,6.8088,6.9319,7.2031,7.3242,7.3906,7.4062,7.414,7.4179,7.4334,7.4366,7.4868,7.5962,7.7485,7.8805,7.9918,8.1317,8.2293,8.2293,8.2293,8.2326,8.2436,8.2357,8.3102,8.5305,8.7502,8.9488,9.1223,9.1413,9.1325,9.1095,8.9906,8.8944,8.8628,8.7358,8.6401,8.6094,8.6094,8.6094,8.6094,8.6094,8.5863,8.506,8.4907,8.4593,8.3618,8.3901,8.4753,9.1864,0.0,9.1364,9.0941,0.0,9.0556,9.0325,8.9863,8.9056,8.8705,8.87,8.7847,8.7032,8.6146,8.4027,8.2832,8.2378,8.1023,8.1798,8.4247,8.5565,8.7526,8.994,9.1672,9.1402,8.9286,8.8017,8.694,8.6132,8.6094,8.6748,8.8089,8.971,9.0329,9.0021,9.0663,9.1488,9.2334,9.2434,9.2537,9.2578,9.2148,9.1523,9.0625,0.0,0.0,0.0,0.0,0.0,0.0,0.0,0.0,0.0,0.0,0.0,6.625,6.4961,6.4258,6.4297,6.5078,6.668,6.9219,7.0625,7.0234,6.7656,6.8271,6.9655,7.1747,7.269,7.392,7.562,7.6601,7.7109,7.7109,7.7109,7.7109,7.7109,7.7108,7.7263,7.777,7.8903,7.9878,8.0303,8.1433,8.2242,8.2299,8.2293,8.2293,8.2248,8.2162,8.3103,8.5945,8.803,8.9864,9.1282,9.1531,9.139,9.1091,8.9829,8.8829,8.87,8.7281,8.6094,8.6094,8.6094,8.6094,8.6094,8.6094,8.5978,8.5599,8.5483,8.5401,8.4933,8.4901,8.5291,9.2633,9.2441,9.171,9.1325,9.121,9.121,9.121,9.1133,0.0,0.0,0.0,8.8556,8.7671,8.6401,8.4055,8.2477,8.1446,7.9761,8.0254,8.2617,8.4484,8.6949,8.994,9.1979,9.1979,9.0133,8.8748,8.7555,8.6594,8.6555,8.7358,8.8931,9.0475,9.121,9.1279,9.16,9.1933,9.2245,9.2428,9.2531,9.2578,9.2461,9.1679,9.0273,8.8164,8.5195,8.1406,8.0117,7.8359,7.6055,7.6055,7.582,7.5078,7.3828,7.2812,7.2109,7.0937,7.0586,7.1445,7.1523,7.25,7.4726,7.6055,7.5351,7.1875,7.2261,7.3416,7.511,7.6516,7.7659,7.8536,7.9251,7.9726,7.9726,7.9726,7.9687,7.9687,7.9726,7.9531,7.9805,8.039,8.0976,8.0976,8.1717,8.2297,8.2305,8.2293,8.2371,8.2521,8.2851,8.4142,8.6947,8.8866,9.0305,9.1393,9.1638,9.1438,9.1206,8.9829,8.8752,8.8474,8.7281,8.6209,8.6094,8.6094,8.6094,8.6094,8.6094,8.6094,8.6094,8.6094,8.6094,8.6055,8.556,8.5593,9.3133,9.2479,9.2364,9.1902,9.121,9.121,9.121,9.1248,9.171,9.1556,9.0902,9.1518,9.0479,8.8248,8.6401,8.4703,8.3179,8.1522,8.1715,0.0,8.5934,8.806,9.0017,9.3172,9.3364,9.1133,9.0787,8.9863,8.8479,8.8325,8.882,8.9744,9.071,9.1206,9.138,9.161,9.1859,9.213,9.2373,9.2517,9.2578,9.1875,9.1367,9.0976,8.7344,8.4297,8.2187,7.9922,7.7812,7.6055,7.664,7.6953,7.6875,7.7265,7.7539,7.7461,7.7812,7.8476,7.9258,7.9375,7.9883,8.0859,8.0586,7.8828,7.5547,7.5269,7.6033,7.7687,7.8155,7.8585,7.941,7.9728,7.9867,7.9805,7.9765,7.9726,7.9883,7.9883,7.9883,7.9922,8.0469,8.1015,8.1133,8.1784,8.231,8.2293,8.2411,8.2567,8.3386,8.4636,8.6269,8.8166,8.9805,9.0992,9.1682,9.1721,9.1492,9.1245,8.9867,8.879,8.881,8.7391,8.628,8.6132,8.6165,8.6126,8.6126,8.6094,8.6132,8.6132,8.6132,8.6132,8.6132,8.594,8.594,9.3903,9.3133,9.2672,9.1979,9.121,9.121,9.121,9.1287,9.2133,9.2287,9.1902,9.1864,9.0902,8.9171,8.6632,8.478,8.3526,8.1899,8.2224,8.4362,8.6445,8.8794,9.1402,9.3864,9.4403,9.3287,9.2749,9.1941,9.0787,8.9825,8.9556,8.9863,8.9863,8.9893,9.0056,9.0653,9.1076,9.1345,9.2054,9.2473,9.2539,9.2187,9.1562,9.0625,8.8164,8.5469,8.2422,8.1172,7.9531,7.7383,7.8125,7.8555,7.8555,7.8945,7.9375,7.9805,8.0195,8.0781,8.164,8.1719,8.1679,8.1601,8.1211,8.039,7.8789,7.8671,7.8975,7.9756,8.0224,8.0693,8.1083,8.1539,8.1792,8.1796,8.2226,8.25,8.2461,8.207,8.1836,8.1797,8.1719,8.1719,8.1719,8.2054,8.2293,8.2332,8.2606,8.3269,8.4089,8.569,8.7212,8.8533,8.9632,9.0696,9.1625,9.1708,9.1484,9.1279,9.0252,8.9547,8.9393,8.8103,8.7147,8.6954,8.6684,8.6414,8.6375,8.6375,8.6362,8.6357,8.6324,8.6286,8.6209,8.5863,8.5478,9.4826,9.3633,9.3018,9.2172,9.121,9.121,9.121,9.1287,9.2133,9.2518,9.2402,9.1941,9.1287,9.021,8.7325,8.567,8.4889,8.3264,8.3779,8.6031,8.7798,9.0101,9.2749,9.448,9.5172,9.4941,9.4287,9.348,9.2441,9.1133,9.0287,8.9867,8.9094,8.8771,8.893,8.9852,9.0428,9.0739,9.1778,9.2365,9.2457,9.2539,9.1836,9.039,8.9258,8.7031,8.3711,8.3086,8.1875,7.9883,8.0429,8.0859,8.0898,8.125,8.1836,8.2617,8.2734,8.2929,8.3398,8.3476,8.3203,8.2539,8.2265,8.2187,8.2148,8.1992,8.1678,8.1461,8.1842,8.2299,8.2573,8.3109,8.367,8.3906,8.4687,8.4922,8.4844,8.4453,8.3984,8.3672,8.3008,8.2539,8.2344,8.2328,8.2411,8.2645,8.3269,8.4128,8.5065,8.6431,8.7642,8.8525,8.927,9.0034,9.1159,9.132,9.1136,9.0937,9.0444,9.0102,8.9859,8.8956,8.804,8.7783,8.7332,8.6906,8.6726,8.6635,8.6621,8.6615,8.6562,8.6492,8.6319,8.556,8.4945,9.5865,9.3826,9.3595,9.2672,9.1248,9.121,9.121,9.1287,9.2133,9.2479,9.2556,9.3172,9.2941,9.2056,9.021,8.9248,8.9021,8.7589,8.7709,8.9412,9.1218,9.26,9.3633,9.5326,9.5749,9.5057,9.4826,9.3903,9.2556,9.221,9.1402,8.9975,8.9085,8.8765,8.8999,8.9793,9.04,9.0647,9.1685,9.2302,9.2411,9.2494,9.207,9.1211,8.957,8.8203,8.6836,8.5508,8.4179,8.332,8.3867,8.4375,8.4492,8.5859,8.707,8.7773,8.7851,8.7734,8.707,8.7031,8.6836,8.6875,8.5976,8.5508,8.5469,8.4883,8.3828,8.2693,8.2297,8.2714,8.3393,8.3672,8.4163,8.4883,8.5703,8.5781,8.5273,8.5547,8.5351,8.375,8.3515,8.3203,8.2461,8.2328,8.2606,8.3191,8.3972,8.4831,8.5729,8.6705,8.7642,8.8525,8.9281,8.9606,8.9819,9.0133,9.0402,9.0201,9.0175,9.0226,9.0097,8.964,8.8857,8.8108,8.7855,8.7466,8.7,8.6786,8.6799,8.679,8.6737,8.6616,8.6268,8.5599,8.506,9.5865,9.4441,9.3903,9.271,9.1287,9.121,9.121,9.1248,9.1556,9.2018,9.2518,9.2864,9.2787,9.2402,9.121,9.0671,9.0633,8.9944,9.029,9.1444,9.2177,9.3174,9.4403,9.4595,9.4788,9.4864,9.4018,9.3172,9.2441,9.1479,9.0364,8.9316,8.882,8.8765,8.8961,8.9771,9.0315,9.052,9.1523,9.1917,9.1622,9.2177,9.2107,9.1289,9.0117,8.8828,8.7539,8.6289,8.5273,8.4453,8.4726,8.5156,8.5664,8.6367,8.7109,8.7929,8.8437,8.8789,8.8984,8.8515,8.8008,8.7539,8.6679,8.6015,8.5469,8.5078,8.4531,8.3984,8.3828,8.402,8.4414,8.5273,8.6049,8.6562,8.7617,8.8086,8.7265,8.6992,8.6289,8.4648,8.3906,8.3281,8.2539,8.2328,8.2684,8.3465,8.4284,8.5143,8.6002,8.6861,8.7486,8.783,8.817,8.8664,8.9155,8.9585,8.989,9.0158,9.0329,9.0466,9.0363,8.991,8.9192,8.8422,8.7978,8.7589,8.7105,8.7028,8.7033,8.7021,8.6877,8.6737,8.6531,8.6094,8.5632,9.598,9.4941,9.4018,9.2864,9.1595,9.1556,9.1441,9.121,9.121,9.1556,9.2133,9.2133,9.2133,9.2095,9.171,9.1672,9.1864,9.1675,9.1982,9.2787,9.2826,9.348,9.448,9.4018,9.4018,9.4364,9.3441,9.2749,9.2326,9.0752,8.9594,8.909,8.8786,8.8777,8.8977,8.9779,9.0256,9.0467,9.1261,9.141,9.1083,9.1486,9.1513,9.0976,9.0586,8.957,8.789,8.7226,8.6484,8.5664,8.5625,8.5976,8.6797,8.6875,8.7265,8.8086,8.8711,8.9336,8.9961,8.9414,8.8711,8.789,8.7226,8.6523,8.582,8.5625,8.5625,8.5625,8.5625,8.5547,8.5429,8.6601,8.75,8.7851,8.9336,8.9922,8.8789,8.8281,8.7461,8.5586,8.4531,8.3515,8.2617,8.2529,8.3023,8.3872,8.4681,8.5456,8.6275,8.7017,8.7407,8.7407,8.7377,8.7738,8.8655,8.8981,8.9306,8.9617,8.9864,9.0211,9.0384,8.9887,8.943,8.8635,8.7972,8.7493,8.7298,8.7259,8.722,8.7196,8.7098,8.6884,8.6699,8.6461,8.6082,9.648,9.4941,9.4054,9.3207,9.2438,9.2399,9.1941,9.121,9.121,9.1248,9.1325,9.1325,9.1287,9.1364,9.1979,9.2826,9.3326,9.263,9.2672,9.3364,9.3477,9.3631,9.3749,9.371,9.3672,9.3749,9.3441,9.3018,9.2364,9.079,8.9906,8.9829,8.9178,8.8859,8.9138,8.9864,9.0295,9.0544,9.0772,9.0866,9.083,9.0351,9.013,9.0117,9.0781,9.0273,8.8867,8.8594,8.8164,8.7383,8.7265,8.7695,8.8437,8.8554,8.8945,8.9726,8.9922,8.9961,9.0078,9.0078,8.9648,8.8867,8.8594,8.8203,8.7344,8.7187,8.7148,8.7304,8.7148,8.6875,8.6328,8.7031,8.7851,8.8554,9.0117,9.0234,8.8906,8.9219,8.8633,8.6601,8.5273,8.4179,8.2656,8.3047,8.3825,8.4632,8.5473,8.6275,8.6978,8.7329,8.7407,8.7401,8.7386,8.739,8.7378,8.7906,8.8201,8.8607,8.926,8.9547,8.9664,8.9632,8.9259,8.8884,8.84,8.7971,8.7588,8.7393,8.7347,8.7291,8.7192,8.7028,8.6885,8.6597,8.6307,9.6057,9.498,9.4672,9.3749,9.2556,9.2515,9.2014,9.121,9.121,9.121,9.121,9.121,9.121,9.1248,9.1518,9.1825,9.2056,9.1787,9.1825,9.2095,9.2095,9.2364,9.2826,9.2402,9.2441,9.2787,9.2364,9.1979,9.1672,9.1018,9.0713,9.0675,9.0444,9.0355,9.0526,9.0782,9.1068,9.1174,9.0966,9.0595,9.0149,8.9961,8.9661,8.9219,8.9453,8.9609,8.9531,8.8515,8.7812,8.75,8.75,8.7851,8.8633,8.9219,8.9922,9.0703,9.082,9.1094,9.1562,9.1679,9.1289,9.0469,8.9844,8.9179,8.8359,8.7812,8.75,8.75,8.75,8.7304,8.7304,8.7773,8.8398,8.8789,8.9726,9.0039,8.9062,8.8945,8.8398,8.6562,8.5429,8.4609,8.4179,8.4219,8.4726,8.5459,8.5903,8.6471,8.7134,8.7407,8.7407,8.7407,8.7401,8.7393,8.733,8.7426,8.7727,8.8227,8.8725,8.8833,8.8986,8.8994,8.8689,8.8181,8.8032,8.7954,8.7401,8.7401,8.7368,8.7362,8.7273,8.7175,8.7075,8.6765,8.6567,9.5942,9.548,9.5405,9.4597,9.3366,9.3287,9.2669,9.1672,9.1633,9.1479,9.1248,9.121,9.121,9.121,9.121,9.121,9.121,9.121,9.121,9.121,9.121,9.1518,9.1902,9.1479,9.1518,9.1941,9.1518,9.121,9.121,9.121,9.121,9.1171,9.121,9.1275,9.1368,9.14,9.1531,9.155,9.1083,9.0517,9.0052,8.9922,8.9818,8.9531,8.9297,8.9219,8.957,8.8476,8.7734,8.7539,8.75,8.7773,8.832,8.8867,8.957,9.0312,9.0429,9.0859,9.1601,9.1758,9.1484,9.0937,9.0351,8.9726,8.914,8.8633,8.8359,8.8281,8.8008,8.789,8.7929,8.8164,8.8398,8.8711,8.9492,8.9609,8.8828,8.8711,8.7929,8.6562,8.5742,8.5273,8.5,8.5156,8.539,8.5732,8.6098,8.6744,8.69,8.7251,8.7407,8.7407,8.7407,8.7401,8.7354,8.7438,8.7458,8.7905,8.8089,8.8197,8.8305,8.8305,8.8149,8.7603,8.7407,8.7407,8.7407,8.7407,8.7407,8.7407,8.7362,8.726,8.7118,8.6903,8.6701,9.6288,9.6211,9.6288,9.5635,9.4828,9.4749,9.3977,9.2669,9.2441,9.1979,9.1402,9.1248,9.121,9.121,9.121,9.121,9.121,9.121,9.121,9.121,9.121,9.121,9.1287,9.1248,9.121,9.1325,9.121,9.121,9.121,9.121,9.121,9.121,9.121,9.1275,9.14,9.14,9.1492,9.155,9.1083,9.0828,9.081,9.0234,9.0247,9.0859,9.0312,8.957,8.8867,8.875,8.8359,8.7695,8.7578,8.75,8.7617,8.7695,8.7969,8.875,8.8828,8.9219,9.0,9.0195,9.0273,9.0117,9.0,8.9804,8.9687,8.9648,8.9609,8.9453,8.8984,8.8633,8.8476,8.8008,8.789,8.8554,8.9258,8.9297,8.8828,8.8633,8.8047,8.6601,8.6172,8.582,8.5351,8.5586,8.582,8.5576,8.6215,8.6861,8.651,8.6939,8.7329,8.7407,8.7407,8.7407,8.7407,8.7401,8.7401,8.7479,8.7549,8.7642,8.772,8.772,8.7759,8.7407,8.7407,8.7407,8.7407,8.7407,8.7407,8.7407,8.7368,8.7323,8.7203,8.7028,8.6829,9.6288,9.6288,9.6288,9.5826,9.5058,9.5018,9.4326,9.3328,9.2787,9.2326,9.2018,9.1479,9.121,9.121,9.121,9.121,9.121,9.121,9.121,9.121,9.121,9.121,9.121,9.121,9.121,9.121,9.121,9.121,9.121,9.121,9.121,9.121,9.121,9.1275,9.14,9.14,9.1492,9.1627,9.1083,9.0828,9.0868,9.0273,9.0091,9.0312,9.0117,8.9844,8.9609,8.9609,8.9179,8.8359,8.832,8.8086,8.7617,8.75,8.7851,8.8554,8.8672,8.9101,8.9844,9.0,9.0,8.9922,8.9492,8.914,8.9101,8.9179,8.9219,8.914,8.8828,8.8672,8.8554,8.7969,8.7695,8.7851,8.8086,8.8281,8.8047,8.7929,8.7383,8.6562,8.6719,8.664,8.6054,8.6172,8.6094,8.5771,8.6259,8.6431,8.6314,8.6822,8.7368,8.7407,8.7407,8.7407,8.7407,8.7407,8.7407,8.7407,8.7407,8.7407,8.7407,8.7407,8.7407,8.7407,8.7407,8.7407,8.7407,8.7407,8.7407,8.7407,8.7407,8.7362,8.7269,8.7117,8.6877,9.6288,9.6288,9.6288,9.6019,9.5481,9.548,9.4982,9.4176,9.3672,9.3095,9.2479,9.1941,9.1479,9.1325,9.1518,9.1479,9.1287,9.1518,9.1518,9.1248,9.121,9.121,9.121,9.121,9.121,9.121,9.121,9.121,9.121,9.121,9.121,9.121,9.121,9.1275,9.1368,9.14,9.15,9.16,9.1408,9.1273,9.1276,9.1025,9.0872,9.0937,9.0976,9.0976,9.0976,9.0976,9.039,8.9414,8.9179,8.8906,8.8476,8.8476,8.8672,8.9023,8.9219,8.9453,8.9922,9.0,9.0195,9.0273,8.9961,8.9687,8.9687,8.9648,8.9609,8.9258,8.8906,8.8672,8.8594,8.7969,8.7539,8.75,8.7539,8.75,8.75,8.75,8.7304,8.6953,8.7148,8.7148,8.6836,8.6679,8.6484,8.624,8.6376,8.6353,8.6431,8.6861,8.7212,8.7446,8.7407,8.7407,8.7407,8.7407,8.7407,8.7407,8.7407,8.7407,8.7407,8.7407,8.7407,8.7407,8.7407,8.7407,8.7407,8.7407,8.7407,8.7407,8.7407,8.7362,8.7269,8.7175,8.6977,9.6288,9.6288,9.6288,9.6288,9.6211,9.6211,9.5788,9.5135,9.4866,9.4057,9.2941,9.2444,9.2059,9.1636,9.2098,9.2021,9.1633,9.2207,9.2207,9.171,9.1556,9.1556,9.1441,9.1287,9.121,9.121,9.121,9.121,9.121,9.121,9.121,9.121,9.121,9.1275,9.1368,9.14,9.1462,9.1677,9.1849,9.1911,9.1996,9.2183,9.2306,9.2344,9.2344,9.2383,9.2344,9.2304,9.1679,9.0312,8.9961,8.9844,8.9922,8.9961,8.9844,8.9883,8.9961,8.9922,9.0,9.0,9.0273,9.0859,9.0898,9.1211,9.0859,9.0664,9.0469,8.9883,8.9179,8.8672,8.8554,8.7969,8.7578,8.7578,8.7695,8.7695,8.7695,8.7773,8.7773,8.7656,8.7617,8.7617,8.7617,8.7578,8.7187,8.6826,8.7079,8.7102,8.6939,8.7251,8.7446,8.7564,8.7603,8.7407,8.7407,8.7407,8.7407,8.7407,8.7407,8.7407,8.7407,8.7407,8.7407,8.7407,8.7486,8.7446,8.7407,8.7407,8.7407,8.7407,8.7407,8.7368,8.7308,8.7214,8.6858,9.6288,9.6288,9.6288,9.6288,9.6288,9.6288,9.6211,9.5828,9.5175,9.4638,9.3984,9.2757,9.2488,9.2757,9.2373,9.245,9.2832,9.3172,9.3284,9.3056,9.3018,9.2672,9.2095,9.1518,9.121,9.121,9.121,9.121,9.121,9.121,9.121,9.121,9.121,9.1275,9.1368,9.14,9.1492,9.1677,9.1838,9.1951,9.2044,9.2254,9.2344,9.2429,9.2535,9.2578,9.2578,9.2578,9.2109,9.1054,9.0312,9.0,9.0117,9.0117,9.0156,9.0156,9.0078,9.0039,9.0078,9.0078,9.0195,9.0273,9.0625,9.0351,9.0351,9.0351,9.0234,8.9844,8.9219,8.8711,8.8594,8.8047,8.7851,8.8281,8.8476,8.8672,8.9101,8.9336,8.914,8.8594,8.8945,8.8867,8.8554,8.8398,8.8281,8.8075,8.8134,8.8305,8.8032,8.8032,8.8344,8.811,8.7993,8.7603,8.7407,8.7407,8.7407,8.7407,8.7407,8.7407,8.7407,8.7407,8.7407,8.7407,8.7642,8.7681,8.7525,8.7407,8.7407,8.7486,8.7407,8.7368,8.7354,8.7282,8.6724,9.6288,9.6288,9.6288,9.6288,9.6288,9.6288,9.6289,9.6136,9.5598,9.5099,9.4561,9.3716,9.3293,9.3369,9.3254,9.3294,9.3563,9.3943,9.3941,9.3674,9.3597,9.321,9.2518,9.1902,9.1595,9.121,9.121,9.121,9.121,9.121,9.121,9.121,9.121,9.1275,9.14,9.14,9.15,9.1677,9.1851,9.2043,9.2464,9.2732,9.3159,9.33,9.3293,9.3006,9.2695,9.2929,9.2734,9.1953,9.1367,9.1094,9.1094,9.1094,9.1094,9.1094,9.1094,9.1133,9.1094,9.1094,9.1094,9.1133,9.1094,9.0859,9.0703,9.0547,9.0508,9.0,8.9492,8.9297,8.9179,8.8789,8.8984,8.9648,8.9804,8.9844,9.0039,8.9922,8.9765,8.9531,8.9609,8.9844,8.9297,8.9258,8.9258,8.9247,8.9183,8.9249,8.9203,8.9242,8.9125,8.8852,8.854,8.8227,8.7915,8.7837,8.7993,8.7954,8.7603,8.7564,8.7642,8.7603,8.7446,8.7525,8.7759,8.7837,8.7681,8.7603,8.772,8.772,8.7564,8.7401,8.7393,8.736,8.6774,9.6288,9.6288,9.6288,9.6288,9.6288,9.6251,9.6136,9.6056,9.5981,9.5597,9.4942,9.4709,9.417,9.3675,9.417,9.4249,9.3791,9.4561,9.4522,9.4253,9.4097,9.3787,9.3095,9.2749,9.2326,9.1787,9.1518,9.1595,9.1748,9.1633,9.1556,9.171,9.1633,9.1621,9.1946,9.1863,9.1801,9.1986,9.2316,9.2649,9.3131,9.3492,9.4061,9.4505,9.4018,9.359,9.332,9.3476,9.3515,9.2929,9.2773,9.2578,9.2578,9.2539,9.25,9.2422,9.2304,9.2383,9.25,9.2344,9.2461,9.2383,9.2422,9.2304,9.1601,9.1289,9.0898,9.0351,9.0078,8.9883,8.9922,8.9961,9.0351,9.0898,9.1172,9.1015,9.0508,9.0273,9.0273,9.0273,9.0312,9.0273,9.0273,9.0273,9.0311,9.0614,9.0555,9.0576,9.0452,9.0257,8.9945,8.9477,8.9203,8.8891,8.8579,8.8305,8.854,8.8657,8.8071,8.7876,8.8071,8.7993,8.7681,8.7681,8.8071,8.811,8.7915,8.7915,8.8032,8.7759,8.7446,8.7407,8.7401,8.7351,8.7013,9.6288,9.6288,9.6213,9.6136,9.6135,9.6059,9.5979,9.5938,9.5856,9.5741,9.5389,9.4773,9.4692,9.5036,9.473,9.4735,9.5083,9.547,9.5629,9.5789,9.5712,9.5249,9.4441,9.3826,9.3364,9.3056,9.3133,9.3133,9.3095,9.2941,9.3169,9.3054,9.2903,9.3204,9.3296,9.3174,9.3153,9.2953,9.3426,9.353,9.3516,9.4172,9.4718,9.4967,9.4363,9.4297,9.4453,9.414,9.414,9.4336,9.4023,9.3476,9.2851,9.2617,9.2578,9.2578,9.2578,9.2578,9.2578,9.2578,9.2578,9.2578,9.2578,9.2539,9.2344,9.1679,9.1289,9.0898,9.0429,9.0195,9.0234,9.0703,9.1094,9.1445,9.1875,9.2187,9.2031,9.1953,9.1875,9.1914,9.1914,9.1992,9.1953,9.1836,9.1875,9.1992,9.1965,9.1982,9.1663,9.1272,9.0804,9.0257,8.9984,8.9711,8.9555,8.9164,8.8969,8.8852,8.8305,8.8188,8.8344,8.8344,8.8032,8.8149,8.854,8.8422,8.8266,8.8266,8.8383,8.7876,8.7446,8.7525,8.7549,8.7458,8.7365,9.6251,9.6213,9.6136,9.6059,9.6021,9.5941,9.5898,9.5853,9.581,9.5768,9.561,9.5064,9.5178,9.556,9.5178,9.5298,9.561,9.5844,9.6054,9.6174,9.6249,9.6019,9.5711,9.5057,9.4595,9.3903,9.3672,9.3672,9.3672,9.3749,9.3595,9.3708,9.3749,9.3705,9.399,9.4062,9.381,9.3688,9.4111,9.4394,9.4602,9.5087,9.5541,9.5586,9.5273,9.5234,9.5117,9.5234,9.5156,9.5156,9.5117,9.4492,9.3359,9.2812,9.2617,9.2578,9.2578,9.2578,9.2578,9.2578,9.2578,9.2617,9.2617,9.2578,9.2539,9.2109,9.1953,9.1836,9.1523,9.1211,9.125,9.1523,9.1875,9.1953,9.2304,9.2578,9.2578,9.2578,9.2578,9.2578,9.25,9.25,9.2578,9.2578,9.2539,9.2304,9.2273,9.2287,9.2287,9.1897,9.1546,9.1116,9.0804,9.0609,9.0492,9.0101,8.9477,8.8969,8.8188,8.8305,8.8579,8.854,8.8383,8.8852,8.932,8.893,8.8774,8.8774,8.8501,8.7798,8.7486,8.7642,8.7815,8.7994,8.796,9.6136,9.6058,9.6058,9.5981,9.59,9.5859,9.581,9.5757,9.5763,9.5686,9.5598,9.5598,9.5522,9.5598,9.556,9.5598,9.5681,9.5853,9.6057,9.6212,9.6288,9.6249,9.6134,9.5942,9.548,9.4172,9.4287,9.4287,9.4249,9.4134,9.4441,9.421,9.4172,9.4475,9.4458,9.4409,9.4505,9.4462,9.4873,9.5228,9.5739,9.617,9.6497,9.655,9.6328,9.6133,9.5937,9.6054,9.6172,9.5664,9.6172,9.5625,9.457,9.3515,9.3008,9.3047,9.3203,9.3281,9.332,9.3164,9.3125,9.289,9.2812,9.2695,9.2617,9.2539,9.2461,9.25,9.2344,9.2344,9.2578,9.2461,9.25,9.2539,9.2578,9.2578,9.2578,9.2578,9.2578,9.2578,9.2578,9.2578,9.2578,9.2578,9.2578,9.2609,9.2585,9.2561,9.2522,9.2443,9.2053,9.1897,9.1585,9.1116,9.096,9.0765,9.014,8.9281,8.8383,8.854,8.8891,8.9047,8.9203,8.9828,9.0062,8.975,8.9437,8.9359,8.8852,8.7876,8.7525,8.7642,8.8041,8.8529,8.8491,9.5941,9.5941,9.5856,9.5818,9.5783,9.5691,9.5643,9.5637,9.5643,9.5643,9.5598,9.5598,9.5598,9.5598,9.5598,9.5637,9.5719,9.5853,9.5981,9.6135,9.6249,9.6288,9.6288,9.6288,9.6019,9.598,9.5749,9.5634,9.5711,9.5865,9.5557,9.5749,9.5711,9.5784,9.5846,9.6029,9.5625,9.5458,9.5971,9.6322,9.6292,9.6837,9.7298,9.7304,9.6875,9.6797,9.6992,9.6758,9.6719,9.7148,9.6758,9.6406,9.5937,9.5156,9.4765,9.4531,9.4492,9.4414,9.4453,9.4609,9.4336,9.3906,9.3594,9.3242,9.2851,9.2617,9.2578,9.2578,9.2578,9.2578,9.2578,9.2578,9.2578,9.2578,9.2578,9.2578,9.2578,9.2578,9.2578,9.2578,9.2578,9.2578,9.2578,9.2578,9.2578,9.2578,9.259,9.2567,9.2522,9.2482,9.2365,9.2326,9.2326,9.1819,9.135,9.1116,9.0687,8.9789,8.9047,8.8891,8.9242,8.9672,9.0101,9.0726,9.096,9.0765,9.0452,9.0023,8.9242,8.8344,8.7993,8.772,8.8353,8.8969,8.9196,9.5859,9.5856,9.5853,9.5772,9.5653,9.5643,9.5598,9.5598,9.5598,9.5598,9.5598,9.5598,9.5598,9.5598,9.5598,9.5675,9.5757,9.5844,9.5938,9.6097,9.6172,9.6249,9.6288,9.6288,9.6288,9.6288,9.6288,9.6288,9.6288,9.6249,9.6288,9.6249,9.6288,9.6397,9.6497,9.6415,9.6397,9.6309,9.6746,9.6966,9.674,9.7383,9.7617,9.7539,9.7383,9.7344,9.7461,9.7422,9.7304,9.75,9.7344,9.7148,9.6953,9.6679,9.6094,9.5429,9.5273,9.5234,9.5195,9.5195,9.4961,9.4609,9.4219,9.375,9.3281,9.2929,9.2617,9.2578,9.2578,9.2578,9.2578,9.2578,9.2578,9.2578,9.2578,9.2578,9.2578,9.2578,9.2578,9.2578,9.2578,9.2578,9.2578,9.2578,9.2578,9.2578,9.2578,9.2541,9.2522,9.2482,9.2482,9.2482,9.2482,9.217,9.1585,9.1155,9.0843,9.0062,8.9477,8.932,8.9555,8.9945,9.0804,9.1663,9.1702,9.1467,9.0804,9.014,8.9437,8.8813,8.8266,8.8025,8.883,8.9408,8.9586,9.5814,9.5729,9.5768,9.5686,9.5598,9.5598,9.5598,9.5598,9.5598,9.5598,9.5554,9.5554,9.5509,9.5509,9.5509,9.5547,9.5713,9.5675,9.5895,9.6021,9.6097,9.6172,9.6249,9.6288,9.6288,9.6288,9.6288,9.6288,9.6288,9.6288,9.6288,9.6288,9.6288,9.6397,9.6497,9.6492,9.6629,9.6803,9.6979,9.7221,9.7605,9.7812,9.7969,9.7969,9.7969,9.789,9.7695,9.7617,9.7578,9.7656,9.7656,9.7656,9.7695,9.7695,9.707,9.5976,9.5703,9.5703,9.5742,9.582,9.5859,9.5469,9.4648,9.4219,9.3672,9.3125,9.2578,9.2578,9.2578,9.2578,9.2578,9.2578,9.2578,9.2578,9.2578,9.2578,9.2578,9.2578,9.2578,9.2578,9.2578,9.2578,9.2578,9.2578,9.2578,9.2578,9.2599,9.2574,9.2522,9.2522,9.2482,9.2482,9.2443,9.2326,9.1819,9.1077,9.0687,9.0101,8.9594,8.932,8.9711,9.0179,9.1116,9.1897,9.2053,9.1702,9.096,9.0492,9.014,8.9555,8.854,8.8455,8.9267,8.9642,8.9781,9.5643,9.5643,9.5643,9.5598,9.5598,9.5598,9.5598,9.5598,9.5598,9.5554,9.5417,9.5286,9.5191,9.5045,9.5045,9.5125,9.5318,9.5484,9.5734,9.5942,9.6059,9.6172,9.6288,9.6288,9.6288,9.6288,9.6288,9.6288,9.6288,9.6288,9.6288,9.6288,9.6288,9.6358,9.6459,9.6492,9.6629,9.6812,9.7043,9.7653,9.8519,9.8789,9.8828,9.8789,9.8711,9.8398,9.7812,9.7695,9.7695,9.7695,9.7695,9.7695,9.7695,9.7695,9.7656,9.7461,9.7422,9.7383,9.7226,9.7109,9.6875,9.6289,9.5469,9.4726,9.3828,9.3125,9.2578,9.2578,9.2578,9.2578,9.2578,9.2578,9.2578,9.2578,9.2578,9.2578,9.2578,9.2578,9.2578,9.2578,9.2578,9.2578,9.2578,9.2578,9.2578,9.2578,9.2603,9.2541,9.2522,9.2522,9.2482,9.2482,9.2482,9.2365,9.1897,9.1194,9.0726,9.0179,8.9633,8.9398,9.0023,9.0531,9.0921,9.1585,9.1819,9.2131,9.178,9.1389,9.1038,9.0413,8.9516,8.9437,8.975,8.9926,8.9897,9.5333,9.5598,9.5598,9.5598,9.5598,9.5598,9.5598,9.5598,9.5598,9.5509,9.5239,9.5007,9.4717,9.4362,9.4362,9.4617,9.4905,9.5127,9.55,9.5823,9.5944,9.6095,9.6249,9.6288,9.6288,9.6288,9.6288,9.6288,9.6288,9.6288,9.6288,9.6288,9.6288,9.6358,9.6497,9.6492,9.659,9.6958,9.7557,9.8462,9.9298,9.9648,9.9492,9.9062,9.9062,9.8554,9.7969,9.7695,9.7695,9.7695,9.7695,9.7695,9.7695,9.7695,9.7695,9.7695,9.7656,9.7656,9.7656,9.7695,9.7461,9.6953,9.5937,9.457,9.3515,9.289,9.2578,9.2578,9.2578,9.2578,9.2578,9.2578,9.2578,9.2578,9.2578,9.2578,9.2578,9.2578,9.2578,9.2578,9.2578,9.2578,9.2578,9.2578,9.2578,9.2578,9.259,9.2574,9.2522,9.2522,9.2482,9.2482,9.2482,9.2404,9.1858,9.1233,9.096,9.0374,8.9477,8.9516,9.0374,9.0921,9.1155,9.1389,9.1702,9.1975,9.2287,9.1975,9.1311,9.0921,9.057,9.0374,9.0172,8.9837,8.9664,9.4579,9.5115,9.5333,9.5387,9.5401,9.5387,9.5379,9.5379,9.5379,9.5239,9.4908,9.4561,9.4029,9.3701,9.3798,9.4104,9.4476,9.4706,9.5184,9.5632,9.5867,9.602,9.6211,9.6288,9.6288,9.6288,9.6288,9.6288,9.6365,9.648,9.6596,9.6326,9.6288,9.6358,9.6502,9.6834,9.7131,9.776,9.8401,9.9288,10.0158,10.0249,10.0039,9.9726,9.9375,9.8906,9.8164,9.8047,9.8047,9.7695,9.7695,9.7695,9.7695,9.7695,9.7695,9.7695,9.7695,9.7695,9.7695,9.7695,9.7695,9.7187,9.6172,9.4492,9.2969,9.2578,9.2578,9.2578,9.2578,9.2578,9.2578,9.2578,9.2578,9.2578,9.2578,9.2578,9.2578,9.2578,9.2578,9.2578,9.2578,9.2578,9.2578,9.2578,9.2578,9.2578,9.26,9.2561,9.2522,9.2522,9.2482,9.2482,9.2482,9.2326,9.1741,9.1272,9.1038,9.0726,8.9828,8.9789,9.0726,9.0921,9.0921,9.1233,9.1467,9.1663,9.1858,9.1702,9.1585,9.1546,9.135,9.0804,9.0477,9.005,8.9326,9.3125,9.3897,9.4561,9.4828,9.4822,9.4855,9.4807,9.4831,9.4807,9.4576,9.4122,9.3777,9.3326,9.3072,9.32,9.3526,9.3897,9.44,9.496,9.5355,9.5675,9.5943,9.6172,9.6288,9.6288,9.6288,9.6288,9.6288,9.648,9.698,9.6788,9.6442,9.6673,9.6512,9.6844,9.749,9.8269,9.8873,9.9475,10.0096,10.0691,10.0763,10.0596,10.0936,10.0508,9.9804,9.8945,9.8789,9.8398,9.7773,9.7695,9.7695,9.7695,9.7695,9.7695,9.7695,9.7695,9.7695,9.7695,9.7695,9.7656,9.7226,9.6172,9.4453,9.2812,9.2617,9.2578,9.2578,9.2578,9.2578,9.2578,9.2578,9.2578,9.2578,9.2578,9.2578,9.2578,9.2578,9.2578,9.2578,9.2578,9.2578,9.2578,9.2578,9.2578,9.2578,9.2561,9.2561,9.2522,9.2482,9.2482,9.2482,9.2482,9.2209,9.1585,9.1233,9.0999,9.0999,9.057,9.0687,9.1233,9.1155,9.0687,9.0843,9.1038,9.1233,9.1507,9.178,9.2014,9.2287,9.2131,9.1499,9.0539,8.9766,8.8872,9.2443,9.3252,9.3536,9.384,9.4095,9.3585,9.3671,9.4002,9.3615,9.3067,9.2703,9.2747,9.2579,9.2442,9.251,9.2825,9.3211,9.377,9.449,9.5064,9.5443,9.5866,9.6134,9.6288,9.6288,9.6288,9.6288,9.6288,9.6365,9.7211,9.7326,9.7211,9.7557,9.7935,9.8271,9.8444,9.9259,9.9958,10.039,10.0881,10.1662,10.1813,10.1592,10.1358,10.1367,10.0312,9.9258,9.9023,9.8476,9.7969,9.7734,9.7695,9.7695,9.7695,9.7695,9.7695,9.7695,9.7695,9.7695,9.7617,9.7265,9.6172,9.5429,9.4453,9.2812,9.2617,9.2578,9.2578,9.2578,9.2578,9.2578,9.2578,9.2578,9.2578,9.2578,9.2578,9.2578,9.2578,9.2578,9.2578,9.2578,9.2578,9.2578,9.2578,9.2578,9.2574,9.2567,9.2522,9.2522,9.2482,9.2482,9.2482,9.2482,9.2365,9.178,9.1389,9.0999,9.1077,9.1194,9.1311,9.135,9.0648,9.0296,9.0452,9.0609,9.0843,9.1272,9.1975,9.2326,9.2443,9.2358,9.203,9.094,8.9742,8.8833,9.1246,9.2135,9.1949,9.2517,9.3332,9.2876,9.2928,9.3256,9.2878,9.2356,9.1891,9.222,9.2091,9.1948,9.202,9.2347,9.2811,9.3342,9.4048,9.4696,9.5248,9.5752,9.6134,9.6288,9.6288,9.6288,9.6288,9.6288,9.6326,9.7365,9.7827,9.825,9.8904,9.9324,9.9039,9.9552,10.014,10.0858,10.1187,10.1466,10.2321,10.209,10.2244,10.1756,10.1715,10.1094,10.0117,9.9726,9.9023,9.8359,9.7929,9.7734,9.7695,9.7695,9.7695,9.7695,9.7695,9.7695,9.7695,9.7578,9.6914,9.5703,9.5312,9.4258,9.3164,9.2578,9.2578,9.2578,9.2578,9.2578,9.2578,9.2578,9.2578,9.2578,9.2578,9.2578,9.2578,9.2578,9.2578,9.2578,9.2578,9.2578,9.2578,9.2578,9.2578,9.2585,9.2567,9.2561,9.2561,9.2522,9.2482,9.2482,9.2482,9.2326,9.2092,9.1585,9.1116,9.1194,9.1272,9.135,9.1194,9.0492,9.0101,9.0257,9.0413,9.0531,9.1116,9.1936,9.2287,9.2482,9.2358,9.2225,9.1454,9.0301,8.9404,8.9305,9.0482,8.9966,9.0926,9.2764,9.2896,9.2801,9.2863,9.2758,9.2492,9.2114,9.2126,9.202,9.1876,9.202,9.2167,9.2462,9.3107,9.3836,9.4524,9.5095,9.5636,9.6095,9.6288,9.6288,9.6288,9.6288,9.6288,9.6326,9.7788,9.8481,9.9096,9.9904,10.0441,9.939,10.0093,10.0999,10.1696,10.1804,10.198,10.2109,10.1773,10.1962,10.2273,10.2064,10.1562,10.1054,10.0312,9.9609,9.8828,9.8008,9.7734,9.7695,9.7695,9.7695,9.7695,9.7695,9.7695,9.7695,9.7695,9.6797,9.5508,9.5156,9.4375,9.3086,9.2578,9.2578,9.2578,9.2578,9.2578,9.2578,9.2578,9.2578,9.2578,9.2578,9.2578,9.2578,9.2578,9.2578,9.2578,9.2578,9.2578,9.2578,9.2578,9.2578,9.2595,9.2613,9.26,9.2561,9.2522,9.2522,9.2482,9.2482,9.2365,9.2092,9.1624,9.1272,9.135,9.1389,9.1467,9.1194,9.0609,9.0335,9.0257,9.0218,9.0374,9.1116,9.1936,9.2209,9.2482,9.2482,9.2264,9.1559,9.0897,9.0092,8.916,9.0555,9.0335,9.0919,9.1901,9.1016,9.1137,9.2095,9.2128,9.1797,9.1431,9.1654,9.1876,9.1839,9.1876,9.195,9.2133,9.2756,9.3461,9.4296,9.4863,9.5598,9.6095,9.6366,9.6365,9.6288,9.6288,9.6442,9.6326,9.8096,9.8711,9.9211,10.0518,10.1164,10.0998,10.1284,10.1696,10.185,10.192,10.1971,10.2177,10.2023,10.2145,10.2733,10.2452,10.2187,10.164,10.0859,9.9922,9.9101,9.8281,9.7734,9.7695,9.7695,9.7695,9.7695,9.7695,9.7695,9.7695,9.7578,9.6914,9.5859,9.5156,9.4531,9.2929,9.2617,9.2578,9.2617,9.2617,9.2617,9.2578,9.2578,9.2578,9.2578,9.2578,9.2578,9.2578,9.2578,9.2578,9.2578,9.2578,9.2578,9.2578,9.2578,9.2578,9.2578,9.2595,9.2613,9.2567,9.2522,9.2482,9.2482,9.2482,9.2365,9.2131,9.178,9.1741,9.1897,9.178,9.1585,9.1194,9.0804,9.0804,9.0843,9.0492,9.0257,9.1194,9.2014,9.2287,9.2482,9.2482,9.249,9.2081,9.1534,9.0872,8.872,9.0152,9.0188,9.0812,9.151,9.0408,9.0482,9.1363,9.1657,9.1473,9.1253,9.1583,9.1803,9.1803,9.1803,9.1803,9.1877,9.2537,9.3174,9.401,9.4662,9.5597,9.6328,9.6674,9.7058,9.698,9.7134,9.725,9.7403,9.8596,9.9404,10.0058,10.0899,10.135,10.1528,10.1703,10.185,10.1889,10.192,10.1981,10.2228,10.2381,10.2635,10.2776,10.281,10.2851,10.1953,10.0976,10.0039,9.9297,9.8515,9.7812,9.7734,9.7734,9.7695,9.7695,9.7695,9.7695,9.7695,9.7695,9.6992,9.5937,9.5664,9.4961,9.375,9.3398,9.3203,9.3047,9.2812,9.2617,9.2617,9.2617,9.2578,9.2578,9.2656,9.2656,9.2969,9.3008,9.2929,9.289,9.2617,9.2617,9.2578,9.2578,9.2578,9.2578,9.2611,9.2595,9.2567,9.2528,9.2482,9.2482,9.2482,9.2443,9.2326,9.2131,9.2209,9.2443,9.2209,9.1897,9.1702,9.1428,9.1428,9.1389,9.1038,9.0999,9.1585,9.2131,9.2365,9.2482,9.2482,9.251,9.2497,9.2041,9.1456,8.7949,8.9307,8.9417,9.0372,9.151,9.0922,9.0629,9.0702,9.1473,9.1767,9.1767,9.173,9.1803,9.1803,9.1803,9.1803,9.1877,9.2427,9.3025,9.3784,9.4562,9.5763,9.6705,9.7325,9.7712,9.8327,9.8519,9.825,9.875,9.9173,10.0019,10.0904,10.1133,10.1427,10.1528,10.178,10.1858,10.1889,10.1889,10.1981,10.2162,10.2821,10.2816,10.288,10.3112,10.3173,10.2422,10.1328,10.0664,9.9844,9.8867,9.8203,9.7851,9.7812,9.7773,9.7773,9.7812,9.7695,9.7695,9.7695,9.7422,9.664,9.6562,9.5976,9.5156,9.4219,9.3906,9.3554,9.3203,9.2851,9.2617,9.2617,9.2578,9.2656,9.2734,9.3047,9.3515,9.3554,9.3437,9.3242,9.2851,9.2695,9.2617,9.2578,9.2773,9.2578,9.2572,9.2595,9.2574,9.2522,9.2482,9.2482,9.2482,9.2482,9.2404,9.2287,9.2326,9.2482,9.2482,9.2248,9.2131,9.1897,9.178,9.1624,9.1585,9.1702,9.2053,9.2287,9.2443,9.2482,9.2482,9.2507,9.2507,9.2444,9.2002,8.7949,8.9381,8.9417,9.0335,9.162,9.1581,9.0811,8.997,9.1179,9.1803,9.1803,9.1803,9.1803,9.1803,9.1803,9.1803,9.195,9.2242,9.2806,9.3611,9.4561,9.5772,9.6828,9.7699,9.8324,9.8712,9.8904,9.8981,9.8865,9.9288,10.0096,10.1019,10.0904,10.1051,10.1388,10.1683,10.1787,10.1858,10.1889,10.1951,10.2272,10.2959,10.2836,10.2866,10.3442,10.3426,10.2656,10.1758,10.1172,10.0898,10.0117,9.9531,9.9531,9.9531,9.9414,9.8594,9.8164,9.7695,9.7695,9.7695,9.7539,9.7344,9.7265,9.6445,9.5625,9.4961,9.457,9.4101,9.3633,9.3242,9.2773,9.2617,9.2578,9.2656,9.289,9.3515,9.3984,9.4258,9.414,9.3789,9.3398,9.3164,9.3008,9.2969,9.3086,9.2773,9.2651,9.279,9.2652,9.2645,9.2482,9.2482,9.2482,9.2482,9.2482,9.2404,9.2443,9.2482,9.2482,9.2443,9.217,9.1975,9.1936,9.1897,9.1858,9.2053,9.2365,9.2482,9.2482,9.2482,9.2482,9.2507,9.249,9.2429,9.2405,8.7766,8.8867,8.894,8.964,9.0813,9.1509,9.1068,9.0263,9.1289,9.1803,9.1803,9.1803,9.1803,9.1803,9.1803,9.1803,9.184,9.2133,9.2594,9.3349,9.4645,9.5968,9.7039,9.826,9.9204,9.9519,9.975,9.9981,9.9635,9.9481,10.0135,10.1097,10.0558,10.0789,10.1285,10.162,10.1755,10.1787,10.1889,10.192,10.2368,10.2978,10.3054,10.2784,10.3491,10.3556,10.2812,10.2031,10.1679,10.1484,10.0742,10.0312,10.0273,10.0234,9.9844,9.9062,9.8633,9.8047,9.7812,9.7695,9.7695,9.7695,9.7656,9.6953,9.6328,9.5742,9.5195,9.4687,9.414,9.3594,9.3047,9.2578,9.2578,9.2617,9.3281,9.3984,9.4453,9.4883,9.4726,9.4453,9.414,9.3867,9.3711,9.3594,9.3672,9.3828,9.39,9.3923,9.3478,9.2958,9.2678,9.2482,9.2482,9.2482,9.2522,9.2561,9.2482,9.2482,9.2482,9.2365,9.2131,9.1897,9.1741,9.1936,9.2209,9.2365,9.2482,9.2482,9.2482,9.2482,9.2482,9.2514,9.2507,9.249,9.244,8.7472,8.8243,8.8353,8.9016,8.9679,9.1143,9.14,9.085,9.151,9.1803,9.1803,9.1803,9.1803,9.1803,9.1803,9.1803,9.184,9.2023,9.2307,9.295,9.4594,9.6062,9.7464,9.8884,9.9965,10.0862,10.1135,10.0789,10.0866,10.0327,9.9981,10.1135,10.0135,10.0173,10.1019,10.1276,10.1418,10.1722,10.1826,10.1928,10.2315,10.3081,10.3762,10.2837,10.3461,10.411,10.2978,10.2226,10.1679,10.1445,10.1289,10.0898,10.0976,10.0351,9.9844,9.9258,9.8828,9.8242,9.7851,9.7695,9.7695,9.7695,9.7656,9.7148,9.6601,9.625,9.5742,9.4726,9.4062,9.3476,9.2929,9.2656,9.2578,9.2929,9.3594,9.4258,9.4844,9.5273,9.5469,9.5156,9.4844,9.4609,9.4531,9.4414,9.4336,9.4804,9.4877,9.4782,9.4532,9.3693,9.3419,9.3029,9.2873,9.2912,9.2795,9.2756,9.2561,9.2482,9.2482,9.2365,9.2131,9.1819,9.1467,9.1858,9.2326,9.2404,9.2482,9.2482,9.2482,9.2482,9.2482,9.2482,9.2514,9.2514,9.2498,8.7472,8.8316,8.9525,9.0152,9.0447,9.1327,9.1693,9.1546,9.1693,9.1803,9.1803,9.1803,9.1803,9.1803,9.1803,9.1803,9.1803,9.1913,9.2159,9.3211,9.461,9.6177,9.7565,9.9317,10.053,10.1054,10.1289,10.1289,10.1019,10.0173,9.9519,10.0173,9.9327,9.925,10.0635,10.0781,10.1002,10.1577,10.1826,10.1889,10.2082,10.2655,10.3065,10.2771,10.3244,10.3529,10.2859,10.2617,10.25,10.25,10.3125,10.3242,10.3281,10.1406,10.0351,9.9844,9.8867,9.8203,9.7851,9.7695,9.7695,9.7695,9.7578,9.7148,9.6797,9.6601,9.5937,9.4804,9.3945,9.3359,9.289,9.2734,9.2656,9.3242,9.3906,9.457,9.5234,9.5703,9.6133,9.5937,9.5586,9.5469,9.539,9.5312,9.5195,9.5156,9.5078,9.5055,9.5196,9.4825,9.4864,9.4473,9.3693,9.3537,9.3302,9.2873,9.26,9.2482,9.2482,9.2326,9.2131,9.1897,9.1663,9.2092,9.2443,9.2482,9.2482,9.2482,9.2482,9.2482,9.2482,9.2482,9.2482,9.2514,9.2514,8.7252,8.7839,8.9412,9.0076,9.0263,9.1326,9.1803,9.1803,9.1803,9.1803,9.1803,9.1803,9.1803,9.1803,9.1803,9.1803,9.1803,9.1803,9.2349,9.3387,9.4797,9.6441,9.803,9.9602,10.0569,10.117,10.125,10.1212,10.1058,10.0327,9.9788,10.0135,9.9095,9.8788,10.0288,10.0553,10.0698,10.1546,10.1755,10.1889,10.1966,10.2578,10.2794,10.2655,10.2822,10.3044,10.2868,10.2693,10.2734,10.2851,10.3203,10.3359,10.3008,10.1836,10.0781,10.0078,9.914,9.8125,9.7851,9.7695,9.7695,9.7695,9.7695,9.7304,9.6015,9.5742,9.5351,9.4336,9.4062,9.3515,9.289,9.2617,9.2578,9.2929,9.4179,9.5234,9.6094,9.6797,9.7031,9.6953,9.6719,9.6679,9.664,9.664,9.6523,9.6523,9.6289,9.6149,9.6127,9.5918,9.5996,9.5723,9.4864,9.4044,9.3615,9.3068,9.2561,9.2482,9.2561,9.217,9.1936,9.1897,9.1936,9.2131,9.2326,9.2482,9.2482,9.2482,9.2482,9.2482,9.2482,9.2482,9.2482,9.2482,9.2522,8.7105,8.7362,8.8929,8.9559,8.9748,9.1143,9.1803,9.1803,9.1803,9.1803,9.1803,9.1803,9.1803,9.1803,9.1803,9.1803,9.1803,9.1803,9.2496,9.3615,9.5033,9.6609,9.8257,9.9831,10.0684,10.1129,10.125,10.1289,10.125,10.0442,10.0173,10.0635,10.0172,9.9479,10.0479,10.063,10.047,10.1315,10.176,10.1858,10.2199,10.2585,10.2445,10.2533,10.2705,10.2886,10.2651,10.2554,10.2654,10.2773,10.3008,10.3359,10.2969,10.2109,10.1054,10.0156,9.9101,9.8281,9.7851,9.7695,9.7695,9.7695,9.7695,9.707,9.582,9.5156,9.4765,9.4258,9.3984,9.3515,9.289,9.2578,9.2578,9.2929,9.4375,9.582,9.6797,9.7578,9.7656,9.7656,9.7617,9.7578,9.7578,9.7617,9.7617,9.7656,9.7695,9.7695,9.7532,9.7096,9.6894,9.6464,9.5723,9.4942,9.4317,9.3419,9.2873,9.2756,9.2756,9.2209,9.1819,9.2014,9.2014,9.1858,9.2053,9.2404,9.2482,9.2482,9.2482,9.2482,9.2482,9.2482,9.2482,9.2482,9.2482,8.7399,8.8096,8.9735,9.0361,9.048,9.1363,9.1803,9.1803,9.1803,9.1803,9.1803,9.1803,9.1803,9.1803,9.1803,9.1803,9.1803,9.1803,9.2535,9.3694,9.5091,9.6777,9.8394,9.9994,10.076,10.1129,10.1289,10.1289,10.125,10.0596,10.0173,10.0366,9.8788,9.8711,9.998,10.0054,10.009,10.1087,10.1654,10.1755,10.1787,10.2012,10.2067,10.2135,10.2213,10.232,10.2339,10.2452,10.2554,10.2679,10.2831,10.3428,10.3086,10.2031,10.0781,9.9922,9.8867,9.8164,9.7734,9.7695,9.7695,9.7695,9.7617,9.7304,9.6289,9.5547,9.4922,9.4023,9.3633,9.3164,9.2656,9.2617,9.2656,9.3242,9.4336,9.5898,9.7148,9.7578,9.7812,9.7812,9.7773,9.7695,9.7656,9.7656,9.7656,9.7695,9.7695,9.7695,9.7695,9.7689,9.7682,9.7128,9.6425,9.6308,9.5879,9.4161,9.3419,9.3263,9.299,9.2443,9.217,9.2326,9.2287,9.2092,9.217,9.2443,9.2482,9.2482,9.2482,9.2482,9.2482,9.2482,9.2482,9.2482,9.2482]},{"header":{"parameterUnit":"m.s-1","parameterCategory":1,"la1":31.0,"la2":29.5877,"lo1":-88.7671,"lo2":-86.6584,"dy":0.0162,"dx":0.0185,"nx":115,"ny":88,"refTime":"2026-04-14T12:00:00:Z","depth":0,"parameterNumber":3,"parameterNumberName":"V-component_of_WINDS"},"data":[0.0,0.0,0.0,0.0,0.0,0.0,0.0,0.0,0.0,0.0,0.0,0.0,0.0,0.0,0.0,0.0,0.0,0.0,0.0,0.0,0.0,0.0,0.0,0.0,0.0,0.0,0.0,0.0,0.0,0.0,0.0,0.0,0.0,0.0,0.0,0.0,0.0,0.0,0.0,0.0,0.0,0.0,0.0,0.0,0.0,0.0,0.0,0.0,0.0,0.0,0.0,0.0,0.0,0.0,0.0,0.0,0.0,0.0,0.0,0.0,0.0,0.0,0.0,0.0,0.0,0.0,0.0,0.0,0.0,0.0,0.0,0.0,0.0,0.0,0.0,0.0,0.0,0.0,0.0,0.0,0.0,0.0,0.0,0.0,0.0,0.0,0.0,0.0,0.0,0.0,0.0,0.0,0.0,0.0,0.0,0.0,0.0,0.0,0.0,0.0,0.0,0.0,0.0,0.0,0.0,0.0,0.0,0.0,0.0,0.0,0.0,0.0,0.0,0.0,0.0,0.0,0.0,0.0,0.0,0.0,0.0,0.0,0.0,0.0,0.0,0.0,0.0,0.0,0.0,0.0,0.0,0.0,0.0,0.0,0.0,0.0,0.0,0.0,0.0,0.0,0.0,0.0,0.0,0.0,0.0,0.0,0.0,0.0,0.0,0.0,0.0,0.0,0.0,0.0,0.0,0.0,0.0,0.0,0.0,0.0,0.0,0.0,0.0,0.0,0.0,0.0,0.0,0.0,0.0,0.0,0.0,0.0,0.0,0.0,0.0,0.0,0.0,0.0,0.0,0.0,0.0,0.0,0.0,0.0,0.0,0.0,0.0,0.0,0.0,0.0,0.0,0.0,0.0,0.0,0.0,0.0,0.0,0.0,0.0,0.0,0.0,0.0,0.0,0.0,0.0,0.0,0.0,0.0,0.0,0.0,0.0,0.0,0.0,0.0,0.0,0.0,0.0,0.0,0.0,0.0,0.0,0.0,0.0,0.0,0.0,0.0,0.0,0.0,0.0,0.0,0.0,0.0,0.0,0.0,0.0,0.0,0.0,0.0,0.0,0.0,0.0,0.0,0.0,0.0,0.0,0.0,0.0,0.0,0.0,0.0,0.0,0.0,0.0,0.0,0.0,0.0,0.0,0.0,0.0,0.0,0.0,0.0,0.0,0.0,0.0,0.0,0.0,0.0,0.0,0.0,0.0,0.0,0.0,0.0,0.0,0.0,0.0,0.0,0.0,0.0,0.0,0.0,0.0,0.0,0.0,0.0,0.0,0.0,0.0,0.0,0.0,0.0,0.0,0.0,0.0,0.0,0.0,0.0,0.0,0.0,0.0,0.0,0.0,0.0,0.0,0.0,0.0,0.0,0.0,0.0,0.0,0.0,0.0,0.0,0.0,0.0,0.0,0.0,0.0,0.0,0.0,0.0,0.0,0.0,0.0,0.0,0.0,0.0,0.0,0.0,0.0,0.0,0.0,0.0,0.0,0.0,0.0,0.0,0.0,0.0,0.0,0.0,0.0,0.0,0.0,0.0,0.0,0.0,0.0,0.0,0.0,0.0,0.0,0.0,0.0,0.0,0.0,0.0,0.0,0.0,0.0,0.0,0.0,0.0,0.0,0.0,0.0,0.0,0.0,0.0,0.0,0.0,0.0,0.0,0.0,0.0,0.0,0.0,0.0,0.0,0.0,0.0,0.0,0.0,0.0,0.0,0.0,0.0,0.0,0.0,0.0,0.0,0.0,0.0,0.0,0.0,0.0,0.0,0.0,0.0,0.0,0.0,0.0,0.0,0.0,0.0,0.0,0.0,0.0,0.0,0.0,0.0,0.0,0.0,0.0,0.0,0.0,0.0,0.0,0.0,0.0,0.0,0.0,0.0,0.0,0.0,0.0,0.0,0.0,0.0,0.0,0.0,0.0,0.0,0.0,0.0,0.0,0.0,0.0,0.0,0.0,0.0,0.0,0.0,0.0,0.0,0.0,0.0,0.0,0.0,0.0,0.0,0.0,0.0,0.0,0.0,0.0,0.0,0.0,0.0,0.0,0.0,0.0,0.0,0.0,0.0,0.0,0.0,0.0,0.0,0.0,0.0,0.0,0.0,0.0,0.0,0.0,0.0,0.0,0.0,0.0,0.0,0.0,0.0,0.0,0.0,0.0,0.0,0.0,0.0,0.0,0.0,0.0,0.0,0.0,0.0,0.0,0.0,0.0,0.0,0.0,0.0,0.0,0.0,0.0,0.0,0.0,0.0,0.0,0.0,0.0,0.0,0.0,0.0,0.0,0.0,0.0,0.0,0.0,0.0,0.0,0.0,0.0,0.0,0.0,0.0,0.0,0.0,0.0,0.0,0.0,0.0,0.0,0.0,0.0,0.0,0.0,0.0,0.0,0.0,0.0,0.0,0.0,0.0,0.0,0.0,0.0,0.0,0.0,0.0,0.0,0.0,0.0,0.0,0.0,0.0,0.0,0.0,0.0,0.0,0.0,0.0,0.0,0.0,0.0,0.0,0.0,0.0,0.0,0.0,0.0,0.0,0.0,0.0,0.0,0.0,0.0,0.0,0.0,0.0,0.0,0.0,0.0,0.0,0.0,0.0,0.0,0.0,0.0,0.0,0.0,0.0,0.0,0.0,0.0,0.0,0.0,0.0,0.0,0.0,0.0,0.0,0.0,0.0,0.0,0.0,0.0,0.0,0.0,0.0,0.0,0.0,0.0,0.0,0.0,0.0,0.0,0.0,0.0,0.0,0.0,0.0,0.0,0.0,0.0,0.0,0.0,0.0,0.0,0.0,0.0,0.0,0.0,0.0,0.0,0.0,0.0,0.0,0.0,0.0,0.0,0.0,0.0,0.0,0.0,0.0,0.0,0.0,0.0,0.0,0.0,0.0,0.0,0.0,0.0,0.0,0.0,0.0,0.0,0.0,0.0,0.0,0.0,0.0,0.0,0.0,0.0,0.0,0.0,0.0,0.0,0.0,0.0,0.0,0.0,0.0,0.0,0.0,0.0,0.0,0.0,0.0,0.0,0.0,0.0,0.0,0.0,0.0,0.0,0.0,0.0,0.0,0.0,0.0,0.0,0.0,0.0,0.0,0.0,0.0,0.0,0.0,0.0,0.0,0.0,0.0,0.0,0.0,0.0,0.0,0.0,0.0,0.0,0.0,0.0,0.0,0.0,0.0,0.0,0.0,0.0,0.0,0.0,0.0,0.0,0.0,0.0,0.0,0.0,0.0,0.0,0.0,0.0,0.0,0.0,0.0,0.0,0.0,0.0,0.0,0.0,0.0,0.0,0.0,0.0,0.0,0.0,0.0,0.0,0.0,0.0,0.0,0.0,0.0,0.0,0.0,0.0,0.0,0.0,0.0,0.0,0.0,0.0,0.0,0.0,0.0,0.0,0.0,0.0,0.0,0.0,0.0,0.0,0.0,0.0,0.0,0.0,0.0,0.0,0.0,0.0,0.0,0.0,0.0,0.0,0.0,0.0,0.0,0.0,0.0,0.0,0.0,0.0,0.0,0.0,0.0,0.0,0.0,0.0,0.0,0.0,0.0,0.0,0.0,0.0,0.0,0.0,0.0,0.0,0.0,0.0,0.0,0.0,0.0,0.0,0.0,0.0,0.0,0.0,0.0,0.0,0.0,0.0,0.0,0.0,0.0,0.0,0.0,0.0,0.0,0.0,0.0,0.0,0.0,0.0,0.0,0.0,0.0,0.0,0.0,0.0,0.0,0.0,0.0,0.0,0.0,0.0,0.0,0.0,0.0,0.0,0.0,0.0,0.0,0.0,0.0,0.0,0.0,0.0,0.0,0.0,0.0,0.0,0.0,0.0,0.0,0.0,0.0,0.0,0.0,0.0,0.0,0.0,0.0,0.0,0.0,0.0,0.0,0.0,0.0,0.0,0.0,0.0,0.0,0.0,0.0,0.0,0.0,0.0,0.0,0.0,0.0,0.0,0.0,0.0,0.0,0.0,0.0,0.0,0.0,0.0,0.0,0.0,0.0,0.0,0.0,0.0,0.0,0.0,0.0,0.0,0.0,0.0,0.0,0.0,0.0,0.0,0.0,0.0,0.0,0.0,0.0,0.0,0.0,0.0,0.0,0.0,0.0,0.0,0.0,0.0,0.0,0.0,0.0,0.0,0.0,0.0,0.0,0.0,0.0,0.0,0.0,0.0,0.0,0.0,0.0,0.0,0.0,0.0,0.0,0.0,0.0,0.0,0.0,0.0,0.0,0.0,0.0,0.0,0.0,0.0,0.0,0.0,0.0,0.0,0.0,0.0,0.0,0.0,0.0,0.0,0.0,0.0,0.0,0.0,0.0,0.0,0.0,0.0,0.0,0.0,0.0,0.0,0.0,0.0,0.0,0.0,0.0,0.0,0.0,0.0,0.0,0.0,0.0,0.0,0.0,0.0,0.0,0.0,0.0,0.0,0.0,0.0,0.0,0.0,0.0,0.0,0.0,0.0,0.0,0.0,0.0,0.0,0.0,0.0,0.0,0.0,0.0,0.0,0.0,0.0,0.0,0.0,0.0,0.0,0.0,0.0,0.0,0.0,0.0,0.0,0.0,0.0,0.0,0.0,0.0,0.0,0.0,0.0,0.0,0.0,0.0,0.0,0.0,0.0,0.0,0.0,0.0,0.0,0.0,0.0,0.0,0.0,0.0,0.0,0.0,0.0,0.0,0.0,0.0,0.0,0.0,0.0,0.0,0.0,0.0,0.0,0.0,0.0,0.0,0.0,0.0,0.0,0.0,0.0,0.0,0.0,0.0,0.0,0.0,0.0,0.0,0.0,0.0,0.0,0.0,0.0,0.0,0.0,0.0,0.0,0.0,0.0,0.0,0.0,0.0,0.0,0.0,0.0,0.0,0.0,0.0,0.0,0.0,0.0,0.0,0.0,0.0,0.0,0.0,0.0,0.0,0.0,0.0,0.0,0.0,0.0,0.0,0.0,0.0,0.0,0.0,0.0,0.0,0.0,0.0,0.0,0.0,0.0,0.0,0.0,0.0,0.0,0.0,0.0,0.0,0.0,0.0,0.0,0.0,0.0,0.0,0.0,0.0,0.0,0.0,0.0,0.0,0.0,0.0,0.0,0.0,0.0,0.0,0.0,0.0,0.0,0.0,0.0,0.0,0.0,0.0,0.0,0.0,0.0,0.0,0.0,0.0,0.0,0.0,0.0,0.0,0.0,0.0,0.0,0.0,0.0,0.0,0.0,0.0,0.0,0.0,0.0,0.0,0.0,0.0,0.0,0.0,0.0,0.0,0.0,0.0,0.0,0.0,0.0,0.0,0.0,0.0,0.0,0.0,0.0,0.0,0.0,0.0,0.0,0.0,0.0,0.0,0.0,0.0,0.0,0.0,0.0,0.0,0.0,0.0,0.0,0.0,0.0,0.0,0.0,0.0,0.0,0.0,0.0,0.0,0.0,0.0,0.0,0.0,0.0,0.0,0.0,0.0,0.0,0.0,0.0,0.0,0.0,0.0,0.0,0.0,0.0,0.0,0.0,0.0,0.0,0.0,0.0,0.0,0.0,0.0,0.0,0.0,0.0,0.0,0.0,0.0,0.0,0.0,0.0,0.0,0.0,0.0,0.0,0.0,0.0,0.0,0.0,0.0,0.0,0.0,0.0,0.0,0.0,0.0,0.0,0.0,0.0,0.0,0.0,0.0,0.0,0.0,0.0,0.0,0.0,0.0,0.0,0.0,0.0,0.0,0.0,0.0,0.0,0.0,0.0,0.0,0.0,0.0,0.0,0.0,0.0,0.0,0.0,0.0,0.0,0.0,0.0,0.0,0.0,0.0,0.0,0.0,0.0,0.0,0.0,0.0,0.0,0.0,0.0,0.0,0.0,0.0,0.0,0.0,0.0,0.0,0.0,0.0,0.0,0.0,0.0,0.0,0.0,0.0,0.0,0.0,0.0,0.0,0.0,0.0,0.0,0.0,0.0,0.0,0.0,0.0,0.0,0.0,0.0,0.0,0.0,0.0,0.0,0.0,0.0,0.0,0.0,0.0,0.0,0.0,0.0,0.0,0.0,0.0,0.0,0.0,0.0,0.0,0.0,0.0,0.0,0.0,0.0,0.0,0.0,0.0,0.0,0.0,0.0,0.0,0.0,0.0,0.0,0.0,0.0,0.0,0.0,0.0,0.0,0.0,0.0,0.0,0.0,0.0,0.0,0.0,0.0,0.0,0.0,0.0,0.0,0.0,0.0,0.0,0.0,0.0,0.0,0.0,0.0,0.0,0.0,0.0,0.0,0.0,0.0,0.0,0.0,0.0,0.0,0.0,0.0,0.0,0.0,0.0,0.0,0.0,0.0,0.0,0.0,0.0,0.0,0.0,0.0,0.0,0.0,0.0,0.0,0.0,0.0,0.0,0.0,0.0,0.0,0.0,0.0,0.0,0.0,0.0,0.0,0.0,0.0,0.0,0.0,0.0,0.0,0.0,0.0,0.0,0.0,0.0,0.0,0.0,0.0,0.0,0.0,0.0,0.0,0.0,0.0,0.0,0.0,0.0,0.0,0.0,0.0,0.0,0.0,0.0,0.0,0.0,0.0,0.0,0.0,0.0,0.0,0.0,0.0,0.0,0.0,0.0,0.0,0.0,0.0,0.0,0.0,0.0,0.0,0.0,0.0,0.0,0.0,0.0,0.0,0.0,0.0,0.0,0.0,0.0,0.0,0.0,0.0,0.0,0.0,0.0,0.0,0.0,0.0,0.0,0.0,0.0,0.0,0.0,0.0,0.0,0.0,0.0,0.0,0.0,0.0,0.0,0.0,0.0,0.0,0.0,0.0,0.0,0.0,0.0,0.0,0.0,0.0,0.0,0.0,0.0,0.0,0.0,0.0,0.0,0.0,0.0,0.0,0.0,0.0,0.0,0.0,0.0,0.0,0.0,0.0,0.0,0.0,0.0,0.0,0.0,0.0,0.0,0.0,0.0,0.0,0.0,0.0,0.0,0.0,0.0,0.0,0.0,0.0,0.0,0.0,0.0,0.0,0.0,0.0,0.0,0.0,0.0,0.0,0.0,0.0,0.0,0.0,0.0,0.0,0.0,0.0,0.0,0.0,0.0,0.0,0.0,0.0,0.0,0.0,0.0,0.0,0.0,0.0,0.0,0.0,0.0,0.0,0.0,0.0,0.0,0.0,0.0,0.0,0.0,0.0,0.0,0.0,0.0,0.0,0.0,0.0,0.0,0.0,0.0,0.0,0.0,0.0,0.0,0.0,0.0,0.0,0.0,0.0,0.0,0.0,0.0,0.0,0.0,0.0,0.0,0.0,0.0,0.0,0.0,0.0,0.0,0.0,0.0,0.0,0.0,0.0,0.0,0.0,0.0,0.0,0.0,0.0,0.0,0.0,0.0,0.0,0.0,0.0,0.0,0.0,0.0,0.0,0.0,0.0,0.0,0.0,0.0,0.0,0.0,0.0,0.0,0.0,0.0,0.0,0.0,0.0,0.0,0.0,0.0,0.0,0.0,0.0,0.0,0.0,0.0,0.0,0.0,0.0,0.0,0.0,0.0,0.0,0.0,0.0,0.0,0.0,0.0,0.0,0.0,0.0,0.0,0.0,0.0,0.0,0.0,0.0,0.0,0.0,0.0,0.0,0.0,0.0,0.0,0.0,0.0,0.0,0.0,0.0,0.0,0.0,0.0,0.0,0.0,0.0,0.0,0.0,0.0,0.0,0.0,0.0,0.0,0.0,0.0,0.0,0.0,0.0,0.0,0.0,0.0,0.0,0.0,0.0,0.0,0.0,0.0,0.0,0.0,0.0,0.0,0.0,0.0,0.0,0.0,0.0,0.0,0.0,0.0,0.0,0.0,0.0,0.0,0.0,0.0,0.0,0.0,0.0,0.0,0.0,0.0,0.0,0.0,0.0,0.0,0.0,0.0,0.0,0.0,0.0,0.0,0.0,0.0,0.0,0.0,0.0,0.0,0.0,0.0,0.0,0.0,0.0,0.0,0.0,0.0,0.0,0.0,0.0,0.0,0.0,0.0,0.0,0.0,0.0,0.0,0.0,0.0,0.0,0.0,0.0,0.0,0.0,0.0,0.0,0.0,0.0,0.0,0.0,0.0,0.0,0.0,0.0,0.0,0.0,0.0,0.0,0.0,0.0,0.0,0.0,0.0,0.0,0.0,0.0,0.0,0.0,0.0,0.0,0.0,0.0,0.0,0.0,0.0,0.0,0.0,0.0,0.0,0.0,0.0,0.0,0.0,0.0,0.0,0.0,0.0,0.0,0.0,0.0,0.0,0.0,0.0,0.0,0.0,0.0,0.0,0.0,0.0,0.0,0.0,0.0,0.0,0.0,0.0,0.0,0.0,0.0,0.0,0.0,0.0,0.0,0.0,0.0,0.0,0.0,0.0,0.0,0.0,0.0,0.0,0.0,0.0,0.0,0.0,0.0,0.0,0.0,0.0,0.0,0.0,0.0,0.0,0.0,0.0,0.0,0.0,0.0,0.0,0.0,0.0,0.0,0.0,0.0,0.0,0.0,0.0,0.0,0.0,0.0,0.0,0.0,0.0,0.0,0.0,0.0,0.0,0.0,0.0,0.0,0.0,0.0,0.0,0.0,0.0,0.0,0.0,0.0,0.0,0.0,0.0,0.0,0.0,0.0,0.0,0.0,0.0,0.0,0.0,0.0,0.0,0.0,0.0,0.0,0.0,0.0,0.0,0.0,0.0,0.0,0.0,0.0,0.0,0.0,0.0,0.0,0.0,0.0,0.0,0.0,0.0,0.0,0.0,0.0,0.0,0.0,0.0,0.0,0.0,0.0,0.0,0.0,0.0,0.0,0.0,0.0,0.0,0.0,0.0,0.0,0.0,0.0,0.0,0.0,0.0,0.0,0.0,0.0,0.0,0.0,0.0,0.0,0.0,0.0,0.0,0.0,0.0,0.0,0.0,0.0,0.0,0.0,0.0,0.0,0.0,0.0,0.0,0.0,0.0,0.0,0.0,0.0,0.0,0.0,0.0,0.0,0.0,0.0,0.0,0.0,0.0,0.0,0.0,0.0,0.0,0.0,0.0,0.0,0.0,0.0,0.0,0.0,0.0,0.0,0.0,0.0,0.0,0.0,0.0,0.0,0.0,0.0,0.0,0.0,0.0,0.0,0.0,0.0,0.0,0.0,0.0,0.0,0.0,0.0,0.0,0.0,0.0,0.0,0.0,0.0,0.0,0.0,0.0,0.0,0.0,0.0,0.0,0.0,0.0,0.0,0.0,0.0,0.0,0.0,0.0,0.0,0.0,0.0,0.0,0.0,0.0,0.0,0.0,0.0,0.0,0.0,0.0,0.0,0.0,0.0,0.0,0.0,0.0,0.0,0.0,0.0,0.0,0.0,0.0,0.0,0.0,0.0,0.0,0.0,0.0,0.0,0.0,0.0,0.0,0.0,0.0,0.0,0.0,0.0,0.0,0.0,0.0,0.0,0.0,0.0,0.0,0.0,0.0,0.0,0.0,0.0,0.0,0.0,0.0,0.0,0.0,0.0,0.0,0.0,0.0,0.0,0.0,0.0,0.0,0.0,0.0,0.0,0.0,0.0,0.0,0.0,0.0,0.0,0.0,0.0,0.0,0.0,0.0,0.0,0.0,0.0,0.0,0.0,0.0,0.0,0.0,0.0,0.0,0.0,0.0,0.0,0.0,0.0,0.0,0.0,0.0,0.0,0.0,0.0,0.0,0.0,0.0,0.0,0.0,0.0,0.0,0.0,0.0,0.0,0.0,0.0,0.0,0.0,0.0,0.0,0.0,0.0,0.0,0.0,0.0,0.0,0.0,0.0,0.0,0.0,0.0,0.0,0.0,0.0,0.0,0.0,0.0,0.0,0.0,0.0,0.0,0.0,0.0,0.0,0.0,0.0,0.0,0.0,0.0,0.0,0.0,0.0,0.0,0.0,0.0,0.0,0.0,0.0,0.0,0.0,0.0,0.0,0.0,0.0,0.0,0.0,0.0,0.0,0.0,0.0,0.0,0.0,0.0,0.0,0.0,0.0,0.0,0.0,0.0,0.0,0.0,0.0,0.0,0.0,0.0,0.0,0.0,0.0,0.0,0.0,0.0,0.0,0.0,0.0,0.0,0.0,0.0,0.0,0.0,0.0,0.0,0.0,0.0,0.0,0.0,0.0,0.0,0.0,0.0,0.0,0.0,0.0,0.0,0.0,0.0,0.0,0.0,0.0,0.0,0.0,0.0,0.0,0.0,0.0,0.0,0.0,0.0,0.0,0.0,0.0,0.0,0.0,0.0,0.0,0.0,0.0,0.0,0.0,0.0,0.0,0.0,0.0,0.0,0.0,0.0,0.0,0.0,0.0,0.0,0.0,0.0,0.0,0.0,0.0,0.0,0.0,0.0,0.0,0.0,0.0,0.0,0.0,0.0,0.0,0.0,0.0,0.0,0.0,0.0,0.0,0.0,0.0,0.0,0.0,0.0,0.0,0.0,0.0,0.0,0.0,0.0,0.0,0.0,0.0,0.0,0.0,0.0,0.0,0.0,0.0,0.0,0.0,0.0,0.0,0.0,0.0,0.0,0.0,0.0,0.0,0.0,0.0,0.0,0.0,0.0,0.0,0.0,0.0,0.0,0.0,0.0,0.0,0.0,0.0,0.0,0.0,0.0,0.0,0.0,0.0,0.0,0.0,0.0,0.0,0.0,0.0,0.0,0.0,0.0,0.0,0.0,0.0,0.0,0.0,0.0,0.0,0.0,0.0,0.0,0.0,0.0,0.0,0.0,0.0,0.0,0.0,0.0,0.0,0.0,0.0,0.0,0.0,0.0,0.0,0.0,0.0,0.0,0.0,0.0,0.0,0.0,0.0,0.0,0.0,0.0,0.0,0.0,0.0,0.0,0.0,0.0,0.0,0.0,0.0,0.0,0.0,0.0,0.0,0.0,0.0,0.0,0.0,0.0,0.0,0.0,0.0,0.0,0.0,0.0,0.0,0.0,0.0,0.0,0.0,0.0,0.0,0.0,0.0,0.0,0.0,0.0,0.0,0.0,0.0,0.0,0.0,0.0,0.0,0.0,0.0,0.0,0.0,0.0,0.0,0.0,0.0,0.0,0.0,0.0,0.0,0.0,0.0,0.0,0.0,0.0,0.0,0.0,0.0,0.0,0.0,0.0,0.0,0.0,0.0,0.0,0.0,0.0,0.0,0.0,0.0,0.0,0.0,0.0,0.0,0.0,0.0,0.0,0.0,0.0,0.0,0.0,0.0,0.0,0.0,0.0,0.0,0.0,0.0,0.0,0.0,0.0,0.0,0.0,0.0,0.0,0.0,0.0,0.0,0.0,0.0,0.0,0.0,0.0,0.0,0.0,0.0,0.0,0.0,0.0,0.0,0.0,0.0,0.0,0.0,0.0,0.0,0.0,0.0,0.0,0.0,0.0,0.0,0.0,0.0,0.0,0.0,0.0,0.0,0.0,0.0,0.0,0.0,0.0,0.0,0.0,0.0,0.0,0.0,0.0,0.0,0.0,0.0,0.0,0.0,0.0,0.0,0.0,0.0,0.0,0.0,0.0,0.0,0.0,0.0,0.0,0.0,0.0,0.0,0.0,0.0,0.0,0.0,0.0,0.0,0.0,0.0,0.0,0.0,0.0,0.0,0.0,0.0,0.0,0.0,0.0,0.0,0.0,0.0,0.0,0.0,0.0,0.0,0.0,0.0,0.0,0.0,0.0,0.0,0.0,0.0,0.0,0.0,0.0,0.0,0.0,0.0,0.0,0.0,0.0,0.0,0.0,0.0,0.0,0.0,0.0,0.0,0.0,0.0,0.0,0.0,0.0,0.0,0.0,0.0,0.0,0.0,0.0,0.0,0.0,0.0,0.0,0.0,0.0,0.0,0.0,0.0,0.0,0.0,0.0,0.0,0.0,0.0,0.0,0.0,0.0,0.0,0.0,0.0,0.0,0.0,0.0,0.0,0.0,0.0,0.0,0.0,0.0,0.0,0.0,0.0,0.0,0.0,0.0,0.0,0.0,0.0,0.0,0.0,0.0,0.0,0.0,0.0,0.0,0.0,0.0,0.0,0.0,0.0,0.0,0.0,0.0,0.0,0.0,0.0,0.0,0.0,0.0,0.0,0.0,0.0,0.0,0.0,0.0,0.0,0.0,0.0,0.0,0.0,0.0,0.0,0.0,0.0,0.0,0.0,0.0,0.0,0.0,0.0,0.0,0.0,0.0,0.0,0.0,0.0,0.0,0.0,0.0,0.0,0.0,0.0,0.0,0.0,0.0,0.0,0.0,0.0,0.0,0.0,0.0,0.0,0.0,0.0,0.0,0.0,0.0,0.0,0.0,0.0,0.0,0.0,0.0,0.0,0.0,0.0,0.0,0.0,0.0,0.0,0.0,0.0,0.0,0.0,0.0,0.0,0.0,0.0,0.0,0.0,0.0,0.0,0.0,0.0,0.0,0.0,0.0,0.0,0.0,0.0,0.0,0.0,0.0,0.0,0.0,0.0,0.0,0.0,0.0,0.0,0.0,0.0,0.0,0.0,0.0,0.0,0.0,0.0,0.0,0.0,0.0,0.0,0.0,0.0,0.0,0.0,0.0,0.0,0.0,0.0,0.0,0.0,0.0,0.0,0.0,0.0,0.0,0.0,0.0,-0.2478,0.0,0.0,0.0,0.0,0.0,0.0,0.0,0.0,0.0,0.0,0.0,0.0,0.0,0.0,0.0,0.0,0.0,0.0,0.0,0.0,0.0,0.0,0.0,0.0,0.0,0.0,0.0,0.0,0.0,0.0,0.0,0.0,0.0,0.0,0.0,0.0,0.0,0.0,0.0,0.0,0.0,0.0,0.0,0.0,0.0,0.0,0.0,0.0,0.0,0.0,0.0,0.0,0.0,0.0,0.0,0.0,0.0,0.0,0.0,0.0,0.0,0.0,0.0,0.0,0.0,0.0,0.0,0.0,0.0,0.0,0.0,0.0,0.0,0.0,0.0,0.0,0.0,0.0,0.0,0.0,0.0,0.0,0.0,0.0,0.0,0.0,0.0,0.0,0.0,0.0,0.0,0.0,0.0,0.0,0.0,0.0,0.0,0.0,0.0,0.0,0.0,0.0,0.0,0.0,0.0,0.0,0.0,0.0,0.0,0.0,0.0,0.0,0.0,0.0,0.0,0.0,0.0,0.0,0.0,0.0,0.0,0.0,0.0,0.0,0.0,0.0,0.0,0.0,0.0,0.0,0.0,0.0,0.0,0.0,0.0,0.0,0.0,0.0,0.0,0.0,0.0,0.0,0.0,0.0,0.0,0.0,0.0,0.0,0.0,0.0,0.0,0.0,0.0,0.0,0.0,0.0,0.0,0.0,0.0,0.0,0.0,0.0,0.0,0.0,0.0,0.0,0.0,0.0,0.0,0.0,0.0,0.0,0.0,0.0,0.0,0.0,0.0,0.0,0.0,0.0,0.0,0.0,0.0,0.0,0.0,0.0,0.0,0.0,0.0,0.0,0.0,0.0,0.0,0.0,0.0,0.0,0.0,0.0,0.0,0.0,0.0,0.0,0.0,0.0,0.0,0.0,0.0,0.0,0.0,0.0,0.0,0.0,0.0,0.0,0.0,0.0,0.0,0.0,0.0,0.0,-0.5103,-0.3272,0.0,0.0,0.0,0.0,0.0,0.0,0.0,0.0,-0.199,0.0,0.0,0.0,0.0,0.0,0.0,0.0,0.0,0.0,0.0,0.0,0.0,0.0,0.0,0.0,0.0,0.0,0.0,0.0,0.0,0.0,0.0,0.0,0.0,0.0,0.0,0.0,0.0,0.0,0.0,0.0,0.0,0.0,0.0,0.0,0.0,0.0,0.0,0.0,0.0,0.0,0.0,0.0,0.0,0.0,0.0,0.0,0.0,0.0,0.0,0.0,0.0,0.0,0.0,0.0,0.0,0.0,0.0,0.0,0.0,0.0,0.0,0.0,0.0,0.0,0.0,0.0,0.0,0.0,0.0,0.0,0.0,0.0,0.0,0.0,0.0,0.0,0.0,0.0,0.0,0.0,0.0,0.0,0.0,0.0,0.0,0.0,0.0,0.0,0.0,0.0,0.0,0.0,0.0,0.0,0.0,0.0,0.0,0.0,0.0,0.0,0.0,0.0,0.0,0.0,-0.2789,-0.2202,0.0,0.0,0.0,0.0,0.0,0.0,0.0,0.0,-0.2018,0.0,0.0,0.0,0.0,0.0,0.0,0.0,0.0,0.0,0.0,0.0,0.0,0.0,0.0,0.0,0.0,0.0,0.0,0.0,0.0,0.0,0.0,0.0,0.0,0.0,0.0,0.0,0.0,0.0,0.0,0.0,0.0,0.0,0.0,0.0,0.0,0.0,0.0,0.0,0.0,0.0,0.0,0.0,0.0,0.0,0.0,0.0,0.0,0.0,0.0,0.0,0.0,0.0,0.0,0.0,0.0,0.0,0.0,0.0,0.0,0.0,0.0,0.0,0.0,0.0,0.0,0.0,0.0,0.0,0.0,0.0,0.0,0.0,0.0,0.0,0.0,0.0,0.0,0.0,0.0,0.0,0.0,0.0,0.0,0.0,0.0,0.0,0.0,0.0,0.0,0.0,0.0,0.0,0.0,0.0,0.0,0.0,0.0,0.0,0.0,0.0,0.0,0.0,0.0,-0.3934,-0.3113,-0.3072,0.0,0.0,0.0,0.0,0.0,0.0,-0.2087,-0.2052,0.0,0.0,0.0,0.0,0.0,0.0,0.0,0.0,0.0,0.0,0.0,0.0,0.0,0.0,0.0,0.0,0.0,0.0,0.0,0.0,0.0,0.0,0.0,0.0,0.0,0.0,0.0,0.0,0.0,0.0,0.0,0.0,0.0,0.0,0.0,0.0,0.0,0.0,0.0,0.0,0.0,0.0,0.0,0.0,0.0,0.0,0.0,0.0,0.0,0.0,0.0,0.0,0.0,0.0,0.0,0.0,0.0,0.0,0.0,0.0,0.0,0.0,0.0,0.0,0.0,0.0,0.0,0.0,0.0,0.0,0.0,0.0,0.0,0.0,0.0,0.0,0.0,0.0,0.0,0.0,0.0,0.0,0.0,0.0,0.0,0.0,0.0,0.0,0.0,0.0,0.0,0.0,0.0,0.0,0.0,0.0,0.0,0.0,0.0,0.0,0.0,0.0,0.0,0.0,0.0,-0.4083,-0.3774,-0.2873,0.0,0.0,0.0,0.0,-0.2409,-0.2286,0.0,0.0,0.0,0.0,0.0,0.0,0.0,0.0,0.0,0.0,0.0,0.0,0.0,0.0,0.0,0.0,0.0,0.0,0.0,0.0,0.0,0.0,0.0,0.0,0.0,0.0,0.0,0.0,0.0,0.0,0.0,0.0,0.0,0.0,0.0,0.0,0.0,0.0,0.0,0.0,0.0,0.0,0.0,0.0,0.0,0.0,0.0,0.0,0.0,0.0,0.0,0.0,0.0,0.0,0.0,0.0,0.0,0.0,0.0,0.0,0.0,0.0,0.0,0.0,0.0,0.0,0.0,0.0,0.0,0.0,0.0,0.0,0.0,0.0,0.0,0.0,0.0,0.0,0.0,0.0,0.0,0.0,0.0,0.0,0.0,0.0,0.0,0.0,0.0,0.0,0.0,0.0,0.0,0.0,0.0,0.0,0.0,0.0,0.0,0.0,0.0,0.0,0.0,0.0,0.0,0.0,-0.495,-0.4706,-0.3782,-0.3162,0.0,0.0,-0.3252,-0.326,-0.2718,0.0,0.0,0.0,0.0,0.0,0.0,0.0,0.0,0.0,0.0,0.0,0.0,0.0,0.0,0.0,0.0,0.0,0.0,0.0,0.0,0.0,0.0,0.0,0.0,0.0,0.0,0.0,0.0,0.0,0.0,0.0,0.0,0.0,0.0,0.0,0.0,0.0,0.0,0.0,0.0,0.0,0.0,0.0,0.0,0.0,0.0,0.0,0.0,0.0,0.0,0.0,0.0,0.0,0.0,0.0,0.0,0.0,0.0,0.0,0.0,0.0,0.0,0.0,0.0,0.0,0.0,0.0,0.0,0.0,0.0,0.0,0.0,0.0,0.0,0.0,0.0,0.0,0.0,0.0,0.0,0.0,0.0,0.0,0.0,0.0,0.0,0.0,0.0,0.0,0.0,0.0,0.0,0.0,0.0,0.0,0.0,0.0,0.0,0.0,0.0,0.0,0.0,0.0,0.0,0.0,0.0,0.0,-0.5449,-0.4707,0.0,0.0,0.0,-0.4145,-0.4473,0.0,0.0,0.0,0.0,0.0,0.0,0.0,0.0,0.0,0.0,0.0,0.0,0.0,0.0,0.0,0.0,0.0,0.0,0.0,0.0,0.0,0.0,0.0,0.0,0.0,0.0,0.0,0.0,0.0,0.0,0.0,0.0,0.0,0.0,0.0,0.0,0.0,0.0,0.0,0.0,0.0,0.0,0.0,0.0,0.0,0.0,0.0,0.0,0.0,0.0,0.0,0.0,0.0,0.0,0.0,0.0,0.0,0.0,0.0,0.0,0.0,0.0,0.0,0.0,0.0,0.0,0.0,0.0,0.0,0.0,0.0,0.0,0.0,0.0,0.0,0.0,0.0,0.0,0.0,0.0,0.0,0.0,0.0,0.0,0.0,0.0,0.0,0.0,0.0,0.0,0.0,0.0,-0.185,0.0,0.0,0.0,0.0,0.0,0.0,0.0,0.0,0.0,0.0,0.0,0.0,0.0,0.0,-0.5364,-0.5919,-0.5221,-0.4772,0.0,0.0,-0.4791,-0.5303,-0.4716,-0.4488,0.0,0.0,0.0,0.0,0.0,0.0,0.0,0.0,0.0,0.0,0.0,0.0,0.0,0.0,0.0,0.0,0.0,0.0,0.0,0.0,0.0,0.0,0.0,0.0,0.0,0.0,0.0,0.0,0.0,0.0,0.0,0.0,0.0,0.0,0.0,0.0,0.0,0.0,0.0,0.0,0.0,0.0,0.0,0.0,0.0,0.0,0.0,0.0,0.0,0.0,0.0,0.0,0.0,0.0,0.0,0.0,0.0,0.0,0.0,0.0,0.0,0.0,0.0,0.0,0.0,0.0,0.0,0.0,0.0,0.0,0.0,0.0,0.0,0.0,0.0,0.0,0.0,0.0,0.0,0.0,0.0,0.0,0.0,0.0,0.0,0.0,0.0,0.0,0.0,0.0,0.0,0.0,0.0,0.0,0.0,0.0,0.0,0.0,0.0,0.0,0.0,0.0,0.0,0.0,0.0,-0.5361,-0.5814,-0.5283,-0.5005,0.0,0.0,-0.5018,-0.5832,-0.5668,-0.6184,-0.8216,0.0,0.0,0.0,0.0,0.0,0.0,0.0,0.0,0.0,0.0,0.0,0.0,0.0,0.0,0.0,0.0,0.0,0.0,0.0,0.0,0.0,0.0,0.0,0.0,0.0,0.0,0.0,0.0,0.0,0.0,0.0,0.0,0.0,0.0,0.0,0.0,0.0,0.0,0.0,0.0,0.0,0.0,0.0,0.0,0.0,0.0,0.0,0.0,0.0,0.0,0.0,0.0,0.0,0.0,0.0,0.0,0.0,0.0,0.0,0.0,0.0,0.0,0.0,0.0,0.0,0.0,0.0,0.0,0.0,0.0,0.0,0.0,0.0,0.0,0.0,0.0,0.0,0.0,0.0,0.0,0.0,0.0,0.0,0.0,0.0,0.0,0.0,0.0,0.0,0.0,0.0,-0.1641,-0.1735,-0.1803,0.0,0.0,0.0,0.0,0.0,0.0,0.0,0.0,0.0,0.0,-0.476,-0.5237,-0.5112,0.0,0.0,-0.5153,-0.5317,-0.6224,-0.5992,-0.6479,-0.9101,-1.0365,0.0,0.0,0.0,0.0,0.0,0.0,0.0,0.0,0.0,0.0,0.0,0.0,0.0,0.0,0.0,0.0,0.0,0.0,0.0,0.0,0.0,0.0,0.0,0.0,0.0,0.0,0.0,0.0,0.0,0.0,0.0,0.0,0.0,0.0,0.0,0.0,0.0,0.0,0.0,0.0,0.0,0.0,0.0,0.0,0.0,0.0,0.0,0.0,0.0,0.0,0.0,0.0,0.0,0.0,0.0,0.0,0.0,0.0,0.0,0.0,0.0,0.0,0.0,0.0,0.0,0.0,0.0,0.0,0.0,0.0,0.0,0.0,0.0,0.0,0.0,0.0,0.0,0.0,0.0,0.0,0.0,0.0,0.0,0.0,0.0,0.0,0.0,0.0,0.0,0.0,-0.1658,-0.163,-0.182,0.0,0.0,0.0,0.0,0.0,0.0,0.0,0.0,0.0,0.0,-0.3978,-0.4631,-0.4675,-0.4797,-0.492,-0.4769,-0.5103,-0.6347,-0.5867,-0.6472,-0.9309,0.0,0.0,0.0,0.0,0.0,0.0,0.0,0.0,0.0,0.0,0.0,0.0,0.0,0.0,0.0,0.0,0.0,0.0,0.0,0.0,0.0,0.0,0.0,0.0,0.0,0.0,0.0,0.0,0.0,0.0,0.1722,0.0,0.0,0.0,0.0,0.0,0.0,0.0,0.0,0.0,0.0,0.0,0.0,0.0,0.0,0.0,0.0,0.0,0.0,0.0,0.0,0.0,0.0,0.0,0.0,0.0,0.0,0.0,0.0,0.0,0.0,0.0,0.0,0.0,0.0,0.0,0.0,0.0,0.0,0.0,0.0,0.0,0.0,0.0,0.0,0.0,0.0,0.0,0.0,0.0,0.0,0.0,0.0,0.0,0.0,0.0,0.0,0.0,0.0,0.0,-0.1669,-0.161,-0.1588,0.0,0.0,0.0,0.0,0.0,0.0,0.0,0.0,0.0,0.0,-0.2525,-0.3034,-0.384,-0.4152,-0.4079,-0.4295,-0.4054,-0.4504,-0.5816,-0.5587,-0.6138,0.0,0.0,0.0,0.0,0.0,0.0,0.0,0.0,0.0,0.0,0.0,0.0,0.0,0.0,0.0,0.0,0.0,0.0,0.0,0.0,0.0,0.0,0.0,0.0,0.0,0.0,0.0,0.3255,0.3184,0.0,0.0,0.0,0.0,0.0,0.0,0.0,0.0,0.0,0.0,0.0,1.1389,1.1592,0.0,0.0,0.0,0.0,0.0,0.0,0.0,0.0,0.0,0.0,0.0,0.0,0.0,0.0,0.0,0.0,0.0,0.0,0.0,0.0,0.0,0.0,0.0,0.0,0.0,0.0,0.0,0.0,0.0,0.0,0.0,0.0,0.0,0.0,0.0,0.0,0.0,0.0,0.0,0.0,0.0,0.0,0.0,0.0,0.0,0.0,0.0,0.0,-0.1723,0.0,0.0,0.0,0.0,0.0,0.0,0.0,0.0,0.0,0.0,0.0,-0.4817,-0.2501,-0.2387,-0.2684,-0.2977,-0.3121,-0.3382,0.0,0.0,0.0,0.0,0.0,0.0,0.0,0.0,0.0,0.0,0.0,0.0,0.0,0.0,-1.1192,-1.1043,-1.0812,-1.0582,-1.025,0.0,0.0,0.0,0.0,0.0,0.0,0.0,0.0,0.0,0.0,0.0,0.0,0.0,0.0,0.5088,0.0,0.4381,0.0,0.0,0.0,0.0,0.0,0.0,0.0,0.0,1.2503,1.234,1.2379,1.2583,1.2705,0.0,1.2752,1.2126,0.0,0.0,0.0,0.0,0.0,0.0,0.0,0.0,0.0,0.0,0.0,0.0,0.0,0.0,0.0,0.0,0.0,0.0,0.0,0.0,0.0,0.0,0.0,0.0,0.0,0.0,0.0,0.0,0.0,0.0,0.0,0.0,0.0,0.0,0.0,0.0,0.0,0.0,0.0,0.0,0.0,0.0,0.0,0.0,-0.1624,0.0,0.0,0.0,0.0,0.0,0.0,0.0,0.0,0.0,-0.4112,-0.4584,-0.4212,-0.24,-0.2393,-0.2512,-0.2795,0.0,0.0,0.0,0.0,0.0,0.0,0.0,-0.6095,-0.892,-1.1207,-1.2813,-1.3913,-1.3084,-1.244,-1.2644,0.0,0.0,-1.2169,-1.1877,-1.1791,-1.1747,-1.076,-1.0083,-1.107,-1.2241,-1.2917,0.0,0.0,0.0,0.0,0.0,0.0,0.0,0.0,0.7962,0.7222,0.0,0.64,0.0,0.0,0.0,0.0,0.0,0.0,0.0,0.0,1.329,1.3315,1.341,1.3431,1.3512,1.3661,1.3654,1.3559,1.3322,1.1377,0.0,0.0,0.0,0.0,0.0,0.0,0.0,0.0,0.0,0.0,0.0,0.0,0.0,0.0,0.0,0.0,0.0,0.0,0.0,0.0,0.0,0.0,0.0,0.0,0.0,0.0,0.0,0.0,0.0,0.0,0.0,0.0,0.0,0.0,0.0,0.0,0.0,0.0,0.0,0.0,0.0,-0.1735,0.0,0.0,0.0,0.0,0.0,0.0,0.0,0.0,0.0,0.0,-0.2499,-0.3286,-0.3369,-0.2419,0.0,0.0,0.0,0.0,-0.4535,-0.4929,-0.5472,-0.6332,-0.7468,-0.6174,-0.6032,-0.9521,0.0,0.0,-1.5142,-1.4159,-1.3464,-1.3458,-1.358,-1.3526,-1.3091,-1.2861,-1.2807,-1.2845,-1.2146,-1.1802,-1.2449,-1.3144,-1.3992,1.2589,0.0,0.0,0.0,0.0,0.9947,1.0754,1.2196,1.0116,0.9259,0.9136,0.8258,0.0,0.0,0.0,0.0,0.0,0.0,0.7641,1.3355,1.4002,1.4208,1.4041,1.4143,1.4272,1.4414,1.4312,1.4183,1.4007,1.2913,1.1315,0.9354,0.0,0.0,0.0,0.0,0.1136,0.0,0.0,0.0,0.0,0.0,0.0,0.0,0.0,0.0,0.0,0.0,0.0,0.0,0.0,0.0,0.0,0.0,0.0,0.0,0.0,0.0,0.0,0.0,0.0,0.0,0.0,0.0,0.0,0.0,0.0,0.0,0.0,0.0,-0.1795,-0.1828,-0.1716,0.0,0.0,0.0,0.0,0.0,0.0,0.0,0.0,0.0,-0.2136,-0.2315,-0.253,0.0,0.0,-0.3003,-0.4067,-0.4907,-0.5735,-0.6621,0.0,0.0,0.0,-0.7642,-0.7267,-0.9928,-1.3133,-1.5336,-1.554,-1.5011,-1.4672,-1.4665,-1.4529,-1.434,-1.4102,-1.3682,-1.3288,-1.3332,-1.2836,-1.2695,-1.3068,-1.3725,-1.4445,1.396,1.2861,1.232,1.1562,1.114,1.1491,1.2516,1.3886,1.2308,1.1543,1.1396,1.0287,0.8597,0.6567,0.5583,0.0,0.0,0.0,0.8123,1.4018,1.4501,1.4639,1.4475,1.4624,1.474,1.4828,1.474,1.4652,1.4563,1.4048,1.3017,1.1657,0.0,0.0,0.8126,0.5269,0.2665,0.0539,0.0194,0.0,0.0,0.0,0.0,0.0,0.0,0.0,0.0,0.0,0.0,0.0,0.0,0.0,0.0,0.0,0.0,0.0,0.0,0.0,0.0,0.0,0.0,0.0,0.0,-0.0292,-0.0884,0.0,0.0,0.0,-0.1566,-0.1665,-0.1868,-0.1915,0.0,0.0,0.0,0.0,0.0,0.0,0.0,-0.2133,-0.2213,-0.2293,-0.2078,-0.2107,-0.2284,-0.2627,-0.2698,-0.3093,-0.4493,0.0,-0.7037,-0.8129,-0.9353,-1.052,-1.1109,-1.0112,-1.015,-1.2448,-1.439,-1.5684,-1.5527,-1.5343,-1.5167,-1.5086,-1.4903,-1.4713,-1.4618,-1.4306,-1.3953,-1.3607,-1.3378,-1.3217,-1.37,-1.4027,-1.4536,1.4991,1.4543,1.3865,1.2945,1.194,1.3224,1.4124,1.4622,1.4091,1.3831,1.3506,1.2395,1.0572,0.8007,0.6218,0.0,0.0,0.5881,0.9429,1.4791,1.471,1.4709,1.4794,1.495,1.5018,1.5004,1.4991,1.4984,1.4977,1.4828,1.4543,1.4277,1.1504,0.9838,0.9316,0.7026,0.4482,0.1481,0.0584,0.0,0.0,0.0,0.0,0.0,0.0,0.0,0.0,0.0,0.0,0.0,0.0,0.0,0.0,0.0,0.0,0.0,0.0,0.0,0.0,0.0,0.0,0.0,0.0,0.0,0.0,0.0,0.0,0.0,-0.1415,0.0,-0.1819,-0.1755,0.0,0.0,0.0,-0.202,-0.2076,-0.2133,-0.2213,-0.2327,0.0,0.0,0.0,0.0,-0.2504,-0.2915,-0.2819,-0.3404,-0.4689,-0.6369,-0.8098,-0.9653,-1.131,-1.2579,-1.294,-1.3121,-1.3765,-1.5364,-1.6159,-1.6001,-1.5684,-1.5323,-1.516,-1.5059,-1.4882,-1.478,-1.4774,-1.4746,-1.4624,-1.4008,-1.3647,-1.3581,-1.4187,-1.4249,-1.471,1.5567,1.5357,1.5181,1.4322,1.3339,1.4041,1.4572,1.5082,1.4709,1.4441,1.4292,1.306,1.1328,0.9067,0.7877,0.7709,0.8349,0.9068,1.1607,1.5255,1.5336,1.5265,1.5255,1.5411,1.5418,1.5303,1.5187,1.5133,1.5126,1.4984,1.4998,1.5125,1.3901,1.2307,1.0382,0.909,0.6586,0.3179,0.1179,0.0,0.0,0.0,0.0,0.0,0.0,0.0,0.0,0.0,0.0,0.0,0.0,0.0,0.0,0.0,0.0,0.0,0.0,0.0,0.0,0.0,0.0,0.0,0.0,0.0,0.0,0.0,-0.0986,0.0,-0.1177,-0.1503,-0.17,-0.0952,0.0,0.0,-0.1227,-0.1783,-0.2233,-0.2268,-0.2319,-0.2394,-0.2476,-0.2555,-0.2463,-0.254,-0.2763,-0.2937,-0.2956,-0.3512,-0.5512,-0.7366,-0.9317,-1.1222,-1.3275,-1.4583,-1.4878,-1.4989,-1.5255,-1.5938,-1.6182,-1.5986,-1.575,-1.5527,-1.5343,-1.5303,-1.5181,-1.5086,-1.5072,-1.4991,-1.4848,-1.4812,-1.4462,-1.4108,-1.4304,-1.4428,-1.497,1.5872,1.5737,1.5737,1.5214,1.4705,1.4903,1.4923,1.5128,1.4936,1.4855,1.4706,1.3107,1.1816,1.0857,1.0204,1.0042,1.0498,1.1732,1.3604,1.559,1.5723,1.5758,1.552,1.5662,1.5622,1.5404,1.5187,1.5086,1.5086,1.5011,1.5149,1.5512,1.5183,1.4297,1.2915,1.052,0.7548,0.3801,0.1385,0.0,0.0,0.0,0.0,0.0,0.0,0.0,0.0,0.0,0.0,0.0,0.0,0.0,0.0,0.0,0.0,0.0,0.0,0.0,0.0,0.0,0.0,0.0,0.0,0.0,0.0,0.0,-0.1423,0.0,-0.115,0.0,-0.0982,-0.0436,0.0,0.0,-0.0443,-0.1188,-0.2256,-0.2424,-0.2308,-0.2376,-0.26,-0.2661,-0.2721,-0.2784,-0.283,-0.2846,-0.2849,-0.3394,-0.5046,-0.7067,-0.8986,-1.0904,-1.2796,-1.436,-1.4996,-1.5506,-1.5954,-1.6151,-1.6096,-1.6035,-1.5562,-1.5375,-1.5398,-1.5323,-1.5242,-1.5181,-1.5181,-1.5126,-1.5204,-1.5066,-1.478,-1.4423,-1.4333,-1.4579,-1.4917,1.6001,1.5886,1.5886,1.5798,1.5655,1.5527,1.5384,1.5242,1.5242,1.5174,1.4859,1.3031,1.2414,1.2771,1.2363,1.1969,1.1781,1.3732,1.5011,1.557,1.5927,1.5897,1.5676,1.5832,1.575,1.5432,1.516,1.5018,1.4997,1.4997,1.5265,1.5605,1.5712,1.5669,1.5462,1.1847,0.7806,0.3881,0.1196,0.0,0.0,0.0,0.0,0.0,0.0,0.0,0.0,0.0,0.0,0.0,0.0,0.0,0.0,0.0,0.0,0.0,0.0,0.0,0.0,0.0,0.0,0.0,0.0,0.0,0.0,-0.1374,-0.2323,-0.2452,-0.1245,-0.0284,-0.0,0.0,0.0,0.0,0.0,-0.0634,-0.192,-0.2245,-0.2271,-0.2343,-0.2377,-0.2587,-0.281,-0.2852,-0.2874,-0.2872,-0.2872,-0.3239,-0.4169,-0.5804,-0.7674,-0.9334,-1.1057,-1.2875,-1.4162,-1.5273,-1.609,-1.6069,-1.6124,-1.5986,-1.5268,-1.5301,-1.5337,-1.5221,-1.5187,-1.5181,-1.5181,-1.5181,-1.5133,-1.5176,-1.495,-1.4664,-1.4423,-1.457,-1.4895,1.6062,1.6035,1.6035,1.5954,1.6007,1.5784,1.5689,1.5554,1.5554,1.5341,1.4924,1.4013,1.3511,1.3403,1.3186,1.3078,1.3065,1.4088,1.4998,1.5375,1.5927,1.5952,1.5825,1.6096,1.6001,1.5601,1.5411,1.5262,1.514,1.514,1.5221,1.5568,1.5863,1.5959,0.0,0.0,0.0,0.0,0.1207,0.0,0.0,0.0,0.0,0.0,0.0,0.0,0.0,0.0,0.0,0.0,0.0,0.0,0.0,0.0,0.0,0.0,0.0,0.0,0.0,0.0,0.0,0.0,0.0,0.0,0.0,-0.1521,-0.2555,-0.2658,-0.2229,-0.1513,0.0,0.0,0.0,0.0,0.0,-0.0162,-0.0487,-0.1136,-0.147,-0.1492,-0.1522,-0.1892,-0.2616,-0.284,-0.2874,-0.2874,-0.2874,-0.3055,-0.3239,-0.4857,-0.654,-0.7838,-0.9776,-1.1583,-1.3024,-1.4887,-1.6103,-1.6062,-1.6055,-1.5883,-1.5428,-1.5207,-1.5235,-1.5181,-1.5181,-1.5181,-1.5181,-1.5181,-1.514,-1.519,-1.5162,-1.4916,-1.4368,-1.4794,-1.5135,1.6198,0.0,1.611,1.6035,0.0,1.5967,1.5927,1.5845,1.5703,1.5442,1.5241,1.4898,1.4564,1.4416,1.4061,1.3861,1.397,1.4469,1.4792,1.4855,1.5473,1.5827,1.5859,1.6164,1.6117,1.5744,1.552,1.533,1.5187,1.5181,1.5296,1.5334,1.5818,1.6131,1.6076,1.3348,0.9616,0.4839,0.2219,0.0606,0.0,0.0,0.0,0.0,0.0,0.0,0.0,0.0,0.0,0.0,0.0,0.0,0.0,0.0,0.0,0.0,0.0,0.0,0.0,0.0,0.0,0.0,0.0,0.0,0.0,-0.1192,-0.2128,-0.2662,-0.2538,-0.1936,-0.0825,-0.0334,0.0,0.0,0.0,0.0,0.0,-0.0336,-0.0674,-0.0679,-0.0689,-0.0871,-0.1226,-0.1421,-0.1974,-0.2694,-0.2874,-0.2874,-0.3052,-0.4126,-0.5447,-0.6764,-0.8476,-1.0437,-1.2018,-1.3884,-1.5499,-1.5857,-1.6041,-1.5863,-1.5241,-1.5194,-1.5181,-1.5181,-1.5181,-1.5181,-1.5181,-1.5181,-1.516,-1.5286,-1.5265,-1.5059,-1.4785,-1.497,-1.5231,1.6334,1.63,1.6171,1.6103,1.6083,1.6083,1.6083,1.6069,0.0,0.0,0.0,1.5615,1.5459,1.5235,1.4821,1.4543,1.4544,1.4423,1.4331,1.4196,1.5087,1.5723,1.5859,1.6218,1.6218,1.5893,1.5649,1.5438,1.5269,1.5262,1.5207,1.5281,1.575,1.6083,1.5685,1.2873,0.9865,0.6855,0.3632,0.1211,0.0,0.0,0.0,0.0,0.0,0.0,0.0,0.0,0.0,0.0,0.0,0.0,0.0,0.0,0.0,0.0,0.0,0.0,0.0,0.0,0.0,0.0,0.0,0.0,0.0,-0.0788,-0.1762,-0.2623,-0.2672,-0.2373,-0.1714,-0.1037,-0.0348,0.0,0.0,0.0,0.0,0.0,0.0,0.0,0.0,0.0,0.0,-0.0535,-0.1077,-0.2515,-0.2874,-0.2876,-0.3062,-0.3617,-0.441,-0.5318,-0.6994,-0.8894,-1.0817,-1.2879,-1.4482,-1.5877,-1.6041,-1.5849,-1.5401,-1.5194,-1.5201,-1.5181,-1.5181,-1.5181,-1.5181,-1.5181,-1.5181,-1.5181,-1.5181,-1.5181,-1.5174,-1.5279,-1.5092,1.6422,1.6307,1.6286,1.6205,1.6083,1.6083,1.6083,1.609,1.6171,1.6144,1.6029,1.6137,1.5954,1.556,1.5235,1.4745,1.3919,1.3642,1.3674,0.0,1.4959,1.5725,1.5872,1.6429,1.6463,1.6069,1.6008,1.5845,1.5601,1.5574,1.5462,1.5622,1.5995,1.5877,1.5087,1.3079,1.0872,0.8263,0.4841,0.2019,0.0,0.0,0.0,0.0,0.0,0.0,0.0,0.0,0.0,0.0,0.0,0.0,0.0,0.0,0.0,0.0,0.0,0.0,0.0,0.0,0.0,0.0,0.0,0.0,0.0,-0.0821,-0.1825,-0.2713,-0.2729,-0.2744,-0.26,-0.2436,-0.1568,0.0,0.0,0.0,0.0,0.0,0.0,0.0,0.0,0.0,0.0,-0.1428,-0.2335,-0.2874,-0.2878,-0.2883,-0.2912,-0.2956,-0.3201,-0.3657,-0.5296,-0.7361,-0.9636,-1.1668,-1.3878,-1.5884,-1.6048,-1.5856,-1.5061,-1.5017,-1.502,-1.5187,-1.4999,-1.4993,-1.4993,-1.5181,-1.5187,-1.5187,-1.5187,-1.5187,-1.5187,-1.5153,-1.5153,1.6558,1.6422,1.6341,1.6218,1.6083,1.6083,1.6083,1.6096,1.6246,1.6273,1.6205,1.6198,1.6029,1.5723,1.5276,1.4758,1.3977,1.3522,1.3944,1.4875,1.5437,1.6057,1.6117,1.6551,1.6646,1.6449,1.6354,1.6212,1.6008,1.5839,1.5791,1.5845,1.5845,1.5446,1.4465,1.3144,1.1788,1.0206,0.563,0.222,0.0,0.0,0.0,0.0,0.0,0.0,0.0,0.0,0.0,0.0,0.0,0.0,0.0,0.0,0.0,0.0,0.0,0.0,0.0,0.0,0.0,0.0,0.0,0.0,0.0,-0.0343,-0.1206,-0.2785,-0.2801,-0.2818,-0.2831,-0.1957,-0.0892,-0.0178,0.0,0.0,0.0,0.0,0.0,0.0,0.0,0.0,0.0,-0.1611,-0.2874,-0.2875,-0.2885,-0.2908,-0.2936,-0.2992,-0.3046,-0.3285,-0.4894,-0.7138,-0.9428,-1.1463,-1.3672,-1.5685,-1.6117,-1.5387,-1.4159,-1.356,-1.3608,-1.3578,-1.3536,-1.3493,-1.3487,-1.3487,-1.4065,-1.5033,-1.5221,-1.5215,-1.5201,-1.514,-1.5072,1.672,1.651,1.6402,1.6252,1.6083,1.6083,1.6083,1.6096,1.6246,1.6313,1.6293,1.6212,1.6096,1.5906,1.5398,1.5106,1.4587,1.412,1.4584,1.5751,1.6074,1.6293,1.6354,1.6659,1.6781,1.6741,1.6625,1.6483,1.63,1.6069,1.592,1.6048,1.571,1.5054,1.4085,1.3228,1.2508,1.1342,0.682,0.3225,0.0807,0.0202,0.0,0.0,0.0,0.0,0.0,0.0,0.0,0.0,0.0,0.0,0.0,0.0,0.0,0.0,0.0,0.0,0.0,0.0,0.0,0.0,0.0,0.0,0.0,0.0,-0.0535,-0.1955,-0.2322,-0.2694,-0.2703,-0.1632,-0.0548,0.0,0.0,0.0,0.0,0.0,0.0,0.0,0.0,0.0,0.0,-0.1617,-0.2878,-0.2886,-0.2908,-0.2938,-0.2971,-0.3018,-0.3061,-0.3478,-0.5069,-0.7086,-0.938,-1.1415,-1.362,-1.583,-1.6151,-1.4674,-1.2629,-1.1119,-1.12,-1.1362,-1.1497,-1.1441,-1.161,-1.1406,-1.2367,-1.3719,-1.4291,-1.4474,-1.5026,-1.5279,-1.5169,1.6904,1.6544,1.6503,1.6341,1.609,1.6083,1.6083,1.6096,1.6246,1.6307,1.632,1.6429,1.6388,1.6232,1.5906,1.5737,1.5897,1.5247,1.5466,1.637,1.67,1.6745,1.651,1.6809,1.6883,1.6761,1.672,1.6558,1.632,1.6259,1.6117,1.5663,1.5308,1.4854,1.3897,1.362,1.2705,1.113,0.8828,0.605,0.3025,0.1009,0.0,0.0,0.0,0.0,0.0,0.0,0.0,0.0,0.0,0.0,0.0,0.0,0.0,0.0,0.0,0.0,0.0,0.0,0.0,0.0,0.0,0.0,0.0,0.0,0.0,-0.0541,-0.1077,-0.1805,-0.273,-0.2556,-0.1653,0.0,0.0,0.0,0.0,0.0,0.0,0.0,0.0,0.0,0.0,-0.1617,-0.2885,-0.2905,-0.2932,-0.2962,-0.2994,-0.3028,-0.3061,-0.3478,-0.4874,-0.7052,-0.9044,-1.1466,-1.3511,-1.5499,-1.6103,-1.3887,-1.0464,-0.804,-0.7579,-0.9261,-0.9428,-0.9386,-0.9336,-0.9505,-1.0081,-1.1426,-1.2383,-1.2945,-1.463,-1.5286,-1.519,1.6904,1.6653,1.6558,1.6347,1.6096,1.6083,1.6083,1.609,1.6144,1.6225,1.6313,1.6374,1.6361,1.6293,1.6083,1.5988,1.5981,1.6062,1.6124,1.633,1.6668,1.6639,1.6646,1.668,1.6714,1.6727,1.6578,1.6429,1.63,1.613,1.5934,1.5347,1.5462,1.4854,1.3891,1.4018,1.3296,1.2118,1.0023,0.8446,0.6809,0.3018,0.0603,0.0,0.0,0.0,0.0,0.0,0.0,0.0,0.0,0.0,0.0,0.0,0.0,0.0,0.0,0.0,0.0,0.0,0.0,0.0,0.0,0.0,0.0,0.0,0.0,0.0,0.0,-0.0733,0.0,0.0,-0.0939,0.0,0.0,0.0,0.0,0.0,0.0,0.0,0.0,0.0,0.0,-0.1617,-0.2887,-0.2915,-0.2943,-0.2973,-0.3003,-0.3033,-0.3055,-0.3259,-0.4428,-0.6006,-0.8192,-1.0801,-1.3234,-1.529,-1.6131,-1.4126,-0.8701,-0.5499,-0.5065,-0.7153,-0.731,-0.7278,-0.7429,-0.7423,-0.7806,-0.8763,-1.009,-1.1227,-1.448,-1.5181,-1.5099,1.6924,1.6741,1.6578,1.6374,1.6151,1.6144,1.6123,1.6083,1.6083,1.6144,1.6246,1.6246,1.6246,1.6239,1.6171,1.6164,1.6198,1.6371,1.6426,1.6361,1.6368,1.6483,1.6659,1.6578,1.6578,1.6639,1.6476,1.6354,1.6279,1.6206,1.5798,1.5509,1.5655,1.5255,1.4292,1.422,1.369,1.2513,1.06,0.9608,0.8971,0.4594,0.1398,0.0,0.0,0.0,0.0,0.0,0.0,0.0,0.0,0.0,0.0,0.0,0.0,0.0,0.0,0.0,0.0,0.0,0.0,0.0,0.0,0.0,0.0,0.0,0.0,0.0,0.0,0.0,0.0,0.0,0.0,0.0,0.0,0.0,0.0,0.0,0.0,0.0,0.0,0.0,0.0,-0.126,-0.1993,-0.2379,-0.2772,-0.2984,-0.3013,-0.3039,-0.3052,-0.3052,-0.3815,-0.5174,-0.7172,-0.9549,-1.2352,-1.3994,-1.4434,-1.2077,-0.7113,-0.4514,-0.3318,-0.5227,-0.5188,-0.5351,-0.5339,-0.5337,-0.5335,-0.5715,-0.7046,-0.9324,-1.2378,-1.3694,-1.4792,1.7012,1.6741,1.6373,1.6225,1.6091,1.6085,1.6212,1.6083,1.6083,1.609,1.6103,1.6103,1.6096,1.611,1.6218,1.6368,1.6456,1.6125,1.6341,1.6463,1.6272,1.6299,1.653,1.6524,1.6517,1.653,1.6476,1.6402,1.6286,1.6213,1.6055,1.6041,1.6126,1.5468,1.4517,1.4434,1.3696,1.2524,1.0744,0.955,0.9146,0.5328,0.2163,0.0,0.0,0.0,0.0,0.0,0.0,0.0,0.0,0.0,0.0,0.0,0.0,0.0,0.0,0.0,0.0,0.0,0.0,0.0,0.0,0.0,0.0,0.0,0.0,0.0,0.0,0.0,0.0,0.0,0.0,0.0,0.0,0.0,0.0,0.0,0.0,0.0,0.0,0.0,0.0,-0.0,-0.0732,-0.1662,-0.2425,-0.3013,-0.3037,-0.305,-0.3052,-0.3243,-0.3624,-0.4389,-0.5919,-0.7691,-0.9854,-1.1076,-1.0565,-0.9017,-0.627,-0.4109,-0.3702,-0.3298,-0.3666,-0.3649,-0.3441,-0.3434,-0.3623,-0.4002,-0.5142,-0.7423,-0.894,-1.1978,-1.367,1.6937,1.6748,1.6693,1.653,1.632,1.6105,1.6018,1.6083,1.6083,1.6083,1.6083,1.6083,1.6083,1.609,1.6137,1.6191,1.6232,1.6185,1.6191,1.6239,1.6239,1.6286,1.6368,1.6293,1.63,1.6361,1.6286,1.6218,1.6164,1.6049,1.6199,1.6192,1.6151,1.5526,1.4743,1.4378,1.3813,1.2814,1.0767,0.9522,0.9276,0.5305,0.2152,0.0,0.0,0.0,0.0,0.0,0.0,0.0,0.0,0.0,0.0,0.0,0.0,0.0,0.0,0.0,0.0,0.0,0.0,0.0,0.0,0.0,0.0,0.0,0.0,0.0,0.0,0.0,0.0,0.0,0.0,0.0,0.0,0.0,0.0,0.0,0.0,0.0,0.0,0.0,0.0,0.0,0.0,-0.1305,-0.2437,-0.302,-0.3043,-0.3052,-0.3052,-0.3052,-0.3243,-0.3434,-0.4004,-0.5156,-0.6519,-0.7137,-0.6788,-0.5822,-0.3691,-0.3497,-0.3291,-0.3272,-0.3074,-0.3071,-0.3243,-0.3243,-0.3051,-0.3242,-0.4383,-0.4759,-0.5135,-0.9694,-1.2744,1.6917,1.6836,1.7037,1.6893,1.6673,1.6449,1.6132,1.6164,1.6157,1.613,1.609,1.6083,1.6083,1.6083,1.6083,1.6083,1.6083,1.6083,1.6083,1.6083,1.6083,1.6137,1.6205,1.613,1.6137,1.6212,1.6137,1.6083,1.6083,1.6083,1.6083,1.6076,1.6083,1.5479,1.4676,1.4476,1.3884,1.2663,1.078,0.9514,0.9068,0.5303,0.2156,0.0,0.0,0.0,0.0,0.0,0.0,0.0,0.0,0.0,0.0,0.0,0.0,0.0,0.0,0.0,0.0,0.0,0.0,0.0,0.0,0.0,0.0,0.0,0.0,0.0,0.0,0.0,0.0,0.0,0.0,0.0,0.0,0.0,0.0,0.0,0.0,0.0,0.0,0.0,0.0,0.0,0.0,-0.1309,-0.2443,-0.3029,-0.3035,-0.3047,-0.3052,-0.3052,-0.3052,-0.3243,-0.3432,-0.42,-0.4583,-0.4992,-0.5195,-0.3851,-0.3084,-0.3084,-0.3078,-0.3059,-0.3052,-0.3052,-0.3052,-0.3052,-0.3052,-0.3052,-0.3242,-0.381,-0.571,-0.8368,-1.1799,1.6978,1.6965,1.6978,1.7078,1.6934,1.6707,1.6359,1.6132,1.63,1.6218,1.6117,1.609,1.6083,1.6083,1.6083,1.6083,1.6083,1.6083,1.6083,1.6083,1.6083,1.6083,1.6096,1.609,1.6083,1.6103,1.6083,1.6083,1.6083,1.6083,1.6083,1.6083,1.6083,1.5479,1.4476,1.4476,1.3878,1.2663,1.078,0.9546,0.8944,0.5321,0.2166,0.0,0.0,0.0,0.0,0.0,0.0,0.0,0.0,0.0,0.0,0.0,0.0,0.0,0.0,0.0,0.0,0.0,0.0,0.0,0.0,0.0,0.0,0.0,0.0,0.0,0.0,0.0,0.0,0.0,0.0,0.0,0.0,0.0,0.0,0.0,0.0,0.0,0.0,0.0,0.0,0.0,0.0,-0.1307,-0.2446,-0.3033,-0.3021,-0.3036,-0.305,-0.3052,-0.3052,-0.3052,-0.3052,-0.3243,-0.3243,-0.3246,-0.344,-0.3061,-0.3063,-0.3063,-0.3065,-0.3052,-0.3052,-0.3052,-0.3052,-0.3052,-0.3052,-0.3052,-0.3051,-0.324,-0.4952,-0.7423,-1.1431,1.6978,1.6978,1.6978,1.6897,1.6975,1.6754,1.6632,1.6666,1.6361,1.6279,1.6225,1.613,1.6083,1.6083,1.6083,1.6083,1.6083,1.6083,1.6083,1.6083,1.6083,1.6083,1.6083,1.6083,1.6083,1.6083,1.6083,1.6083,1.6083,1.6083,1.6083,1.6083,1.6083,1.5479,1.4476,1.4476,1.3878,1.2674,1.078,0.9546,0.915,0.5324,0.2162,0.0,0.0,0.0,0.0,0.0,0.0,0.0,0.0,0.0,0.0,0.0,0.0,0.0,0.0,0.0,0.0,0.0,0.0,0.0,0.0,0.0,0.0,0.0,0.0,0.0,0.0,0.0,0.0,0.0,0.0,0.0,0.0,0.0,0.0,0.0,0.0,0.0,0.0,0.0,0.0,0.0,0.0,-0.131,-0.2259,-0.3018,-0.3014,-0.3032,-0.3051,-0.3052,-0.3052,-0.3052,-0.3052,-0.3052,-0.3052,-0.3052,-0.3052,-0.3052,-0.3052,-0.3052,-0.3052,-0.3052,-0.3052,-0.3052,-0.3052,-0.3052,-0.3052,-0.3052,-0.3052,-0.3242,-0.3619,-0.6283,-1.009,1.6978,1.6978,1.6978,1.6931,1.7051,1.6836,1.6962,1.703,1.6517,1.6415,1.6307,1.6212,1.613,1.6103,1.6137,1.613,1.6096,1.6137,1.6137,1.609,1.6083,1.6083,1.6083,1.6083,1.6083,1.6083,1.6083,1.6083,1.6083,1.6083,1.6083,1.6083,1.6083,1.5479,1.4676,1.4476,1.4083,1.2873,1.1021,0.9795,0.8588,0.5169,0.2181,0.0,0.0,0.0,0.0,0.0,0.0,0.0,0.0,0.0,0.0,0.0,0.0,0.0,0.0,0.0,0.0,0.0,0.0,0.0,0.0,0.0,0.0,0.0,0.0,0.0,0.0,0.0,0.0,0.0,0.0,0.0,0.0,0.0,0.0,0.0,0.0,0.0,0.0,0.0,0.0,0.0,0.0,-0.1317,-0.2262,-0.3016,-0.3018,-0.3033,-0.3046,-0.3054,-0.3052,-0.3052,-0.3052,-0.3052,-0.3052,-0.3052,-0.3052,-0.3052,-0.3052,-0.3052,-0.3052,-0.3052,-0.3052,-0.3052,-0.3052,-0.3052,-0.3052,-0.3052,-0.3052,-0.3242,-0.3619,-0.4759,-0.7992,1.6978,1.6978,1.6978,1.6978,1.6965,1.6965,1.689,1.6989,1.6941,1.6585,1.6388,1.6508,1.644,1.6364,1.6447,1.6433,1.6157,1.6051,1.6051,1.6171,1.6144,1.6144,1.6123,1.6096,1.6083,1.6083,1.6083,1.6083,1.6083,1.6083,1.6083,1.6083,1.6083,1.5479,1.4676,1.4476,1.4077,1.2884,1.1278,1.0066,0.8858,0.5436,0.2619,0.0,0.0,0.0,0.0,0.0,0.0,0.0,0.0,0.0,0.0,0.0,0.0,0.0,0.0,0.0,0.0,0.0,0.0,0.0,0.0,0.0,0.0,0.0,0.0,0.0,0.0,0.0,0.0,0.0,0.0,0.0,0.0,0.0,0.0,0.0,0.0,0.0,0.0,0.0,0.0,0.0,0.0,-0.1326,-0.228,-0.2851,-0.3036,-0.3047,-0.3054,-0.3058,-0.3059,-0.3052,-0.3052,-0.3052,-0.3052,-0.3052,-0.3052,-0.3052,-0.3052,-0.3052,-0.3052,-0.3052,-0.3055,-0.3054,-0.3052,-0.3052,-0.3052,-0.3052,-0.3052,-0.3051,-0.3621,-0.4761,-0.6074,1.6978,1.6978,1.6978,1.6978,1.6978,1.6978,1.6965,1.7113,1.721,1.7327,1.7207,1.7401,1.7559,1.761,1.7538,1.7343,1.6996,1.6429,1.6239,1.6408,1.6402,1.6341,1.6239,1.6137,1.6083,1.6083,1.6083,1.6083,1.6083,1.6083,1.6083,1.6083,1.6083,1.5479,1.4676,1.4476,1.3878,1.2884,1.1683,1.1087,1.0284,0.7261,0.4638,0.242,0.0808,0.0,0.0,0.0,0.0,0.0,0.0,0.0,0.0,0.0,0.0,0.0,0.0,0.0,0.0,0.0,0.0,0.0,0.0,0.0,0.0,0.0,0.0,0.0,0.0,0.0,0.0,0.0,0.0,0.0,0.0,0.0,0.0,0.0,0.0,0.0,0.0,0.0,0.0,0.0,0.0,-0.1345,-0.2308,-0.3084,-0.3074,-0.3074,-0.3085,-0.3077,-0.3073,-0.3059,-0.3052,-0.3052,-0.3052,-0.3052,-0.3052,-0.3052,-0.3052,-0.3052,-0.3052,-0.3052,-0.3061,-0.3062,-0.3056,-0.3052,-0.3052,-0.3055,-0.3052,-0.3051,-0.3432,-0.4192,-0.5114,1.6978,1.6978,1.6978,1.6978,1.6978,1.6978,1.7195,1.7601,1.7718,1.784,1.7953,1.8004,1.8134,1.8149,1.8127,1.7923,1.7552,1.6776,1.6564,1.6728,1.6714,1.6435,1.6313,1.6205,1.6151,1.6083,1.6083,1.6083,1.6083,1.6083,1.6083,1.6083,1.6083,1.5479,1.4476,1.4476,1.4083,1.2884,1.1889,1.1301,1.0739,0.8113,0.6106,0.4278,0.2239,0.0609,0.0,0.0,0.0,0.0,0.0,0.0,0.0,0.0,0.0,0.0,0.0,0.0,0.0,0.0,0.0,0.0,0.0,0.0,0.0,0.0,0.0,0.0,0.0,0.0,0.0,0.0,0.0,0.0,0.0,0.0,0.0,0.0,0.0,0.0,0.0,0.0,0.0,0.0,0.0,-0.1363,-0.253,-0.2922,-0.3115,-0.3116,-0.3112,-0.3103,-0.3092,-0.3081,-0.307,-0.3067,-0.3073,-0.3071,-0.3059,-0.3058,-0.3061,-0.3059,-0.3054,-0.3056,-0.3065,-0.3067,-0.3062,-0.3059,-0.3063,-0.3063,-0.3058,-0.3243,-0.3434,-0.4196,-0.4927,1.6978,1.6978,1.6978,1.6978,1.6978,1.7188,1.7818,1.8454,1.8222,1.815,1.8455,1.8624,1.8732,1.8421,1.8732,1.8534,1.8231,1.7953,1.7305,1.7256,1.6804,1.6537,1.6415,1.6354,1.6279,1.6185,1.6137,1.6151,1.6178,1.6157,1.6144,1.6171,1.6157,1.5538,1.4769,1.455,1.3925,1.2928,1.1949,1.1171,1.0405,0.8385,0.7196,0.7023,0.2873,0.0817,0.0,0.0,0.0,0.0,0.0,0.0,0.0,0.0,0.0,0.0,0.0,0.0,0.0,0.0,0.0,0.0,0.0,0.0,0.0,0.0,0.0,0.0,0.0,0.0,0.0,0.0,0.0,0.0,0.0,0.0,0.0,0.0,0.0,0.0,0.0,0.0,0.0,0.0,-0.0394,-0.1384,-0.2371,-0.2965,-0.3159,-0.3152,-0.3141,-0.3125,-0.3115,-0.3104,-0.3093,-0.3084,-0.3092,-0.3096,-0.3076,-0.3069,-0.3076,-0.3073,-0.3062,-0.3062,-0.3076,-0.3077,-0.307,-0.307,-0.3074,-0.3065,-0.3054,-0.3052,-0.3243,-0.4387,-0.5513,1.6978,1.6978,1.7398,1.7384,1.7168,1.7804,1.8439,1.8649,1.9067,1.9044,1.9407,1.9497,1.9696,1.9768,1.9704,1.9489,1.9345,1.9207,1.8805,1.7106,1.7092,1.6795,1.6653,1.6544,1.6463,1.6408,1.6422,1.6422,1.6415,1.6388,1.6219,1.6199,1.6381,1.6015,1.4985,1.4757,1.413,1.3064,1.1885,1.1691,1.1482,0.9483,0.8703,0.9772,0.412,0.0,0.0,0.0,0.0,0.0,0.0,0.0,0.0,0.0,0.0,0.0,0.0,0.0,0.0,0.0,0.0,0.0,0.0,0.0,0.0,0.0,0.0,0.0,0.0,0.0,0.0,0.0,0.0,0.0,0.0,0.0,0.0,0.0,0.0,0.0,0.0,0.0,0.0,0.0,0.0,0.0,-0.2207,-0.3011,-0.3201,-0.3187,-0.3171,-0.3152,-0.3142,-0.3133,-0.3127,-0.3114,-0.3107,-0.3103,-0.3084,-0.308,-0.3085,-0.3085,-0.3074,-0.3078,-0.3092,-0.3088,-0.3082,-0.3082,-0.3086,-0.3069,-0.3054,-0.3056,-0.344,-0.4583,-0.6109,1.7188,1.7398,1.7601,1.7804,1.7796,1.8432,1.8858,1.9284,1.9493,1.9702,1.9887,2.0206,2.0231,2.0312,2.0231,2.0039,1.9887,1.9718,1.8671,1.7391,1.6971,1.6931,1.6876,1.6761,1.668,1.6558,1.6517,1.6517,1.6517,1.653,1.6503,1.6312,1.653,1.6101,1.5097,1.4898,1.4229,1.3167,1.1764,1.1381,1.1616,0.9365,0.731,0.7733,0.0,0.0,0.0,0.0,0.0,0.0,0.0,0.0,0.0,0.0,0.0,0.0,0.0,0.0,0.0,0.0,0.0,0.0,0.0,0.0,0.0,0.0,0.0,0.0,0.0,0.0,0.0,0.0,0.0,0.0,0.0,0.0,0.0,0.0,0.0,0.0,0.0,0.0,0.0,0.0,0.0,0.0,-0.2416,-0.3223,-0.3223,-0.3209,-0.3197,-0.3182,-0.3171,-0.3164,-0.316,-0.3146,-0.3125,-0.3107,-0.308,-0.3084,-0.3093,-0.3092,-0.3086,-0.3103,-0.3119,-0.3106,-0.31,-0.31,-0.3091,-0.3066,-0.3055,-0.3061,-0.3642,-0.4804,-0.6537,1.7601,1.802,1.802,1.8222,1.8641,1.885,1.9493,2.0136,1.9919,1.9903,2.032,2.032,2.0304,2.032,2.0312,2.032,2.0119,1.9284,1.8237,1.7181,1.6978,1.6971,1.6951,1.6917,1.6836,1.6605,1.6625,1.6625,1.6619,1.6598,1.6653,1.6612,1.6605,1.6234,1.5384,1.4953,1.4335,1.3276,1.1649,1.0639,1.0274,0.778,0.5268,0.3161,0.0,0.0,0.0,0.0,0.0,0.0,0.0,0.0,0.0,0.0,0.0,0.0,0.0,0.0,0.0,0.0,0.0,0.0,0.0,0.0,0.0,0.0,0.0,0.0,0.0,0.0,0.0,0.0,0.0,0.0,0.0,0.0,0.0,0.0,0.0,0.0,0.0,0.0,0.0,0.0,0.0,-0.1212,-0.2424,-0.3232,-0.3231,-0.3228,-0.3215,-0.3209,-0.3198,-0.3182,-0.3176,-0.317,-0.3148,-0.3118,-0.3086,-0.3092,-0.3104,-0.311,-0.3115,-0.3137,-0.3145,-0.3134,-0.3123,-0.312,-0.3103,-0.3069,-0.3056,-0.3061,-0.3844,-0.5027,-0.677,1.8432,1.8432,1.9067,1.9059,1.8835,1.9686,2.0111,2.0328,2.0111,2.0111,2.032,2.032,2.032,2.032,2.032,2.0328,2.0128,1.9284,1.8222,1.7168,1.6971,1.6978,1.6978,1.6978,1.6931,1.6924,1.6883,1.6863,1.6876,1.6904,1.6849,1.6883,1.6876,1.6459,1.561,1.521,1.4505,1.3203,1.1359,1.0336,0.9484,0.6135,0.2973,0.0,0.0,0.0,0.0,0.0,0.0,0.0,0.0,0.0,0.0,0.0,0.0,0.0,0.0,0.0,0.0,0.0,0.0,0.0,0.0,0.0,0.0,0.0,0.0,0.0,0.0,0.0,0.0,0.0,0.0,0.0,0.0,0.0,0.0,0.0,0.0,0.0,0.0,0.0,0.0,0.0,0.0,0.0,-0.2222,-0.303,-0.3231,-0.323,-0.3225,-0.3224,-0.3224,-0.3206,-0.319,-0.3182,-0.3167,-0.3135,-0.311,-0.3104,-0.3116,-0.3131,-0.3146,-0.3168,-0.3176,-0.317,-0.3159,-0.3144,-0.3116,-0.3085,-0.3073,-0.3063,-0.3858,-0.4857,-0.6237,1.885,1.9067,1.9284,1.9485,1.9678,2.0111,2.032,2.032,2.032,2.032,2.032,2.032,2.032,2.032,2.032,2.0336,2.0136,1.9718,1.8649,1.7377,1.6958,1.6971,1.6978,1.6978,1.6978,1.6978,1.6978,1.6978,1.6978,1.6971,1.6978,1.6971,1.6978,1.6348,1.55,1.5271,1.4622,1.3321,1.1451,1.0192,0.9315,0.0,0.0,0.0,0.0,0.0,0.0,0.0,0.0,0.0,0.0,0.0,0.0,0.0,0.0,0.0,0.0,0.0,0.0,0.0,0.0,0.0,0.0,0.0,0.0,0.0,0.0,0.0,0.0,0.0,0.0,0.0,0.0,0.0,0.0,0.0,0.0,0.0,0.0,0.0,0.0,0.0,0.0,0.0,0.0,0.0,0.0,-0.2625,-0.3231,-0.323,-0.323,-0.323,-0.323,-0.3219,-0.3198,-0.3183,-0.3172,-0.3145,-0.3125,-0.3119,-0.3127,-0.3141,-0.3171,-0.3201,-0.3202,-0.3194,-0.3171,-0.3148,-0.3123,-0.3101,-0.3082,-0.3266,-0.3684,-0.4686,-0.6264,1.9276,1.9694,1.9702,1.9903,2.032,2.032,2.032,2.032,2.032,2.032,2.0529,2.0529,2.0737,2.0737,2.0737,2.0745,2.0344,2.0336,1.9075,1.7796,1.7161,1.6958,1.6971,1.6978,1.6978,1.6978,1.6978,1.6978,1.6978,1.6978,1.6978,1.6978,1.6978,1.6348,1.55,1.5283,1.4657,1.3174,1.1478,1.0004,0.7467,0.0,0.0,0.0,0.0,0.0,0.0,0.0,0.0,0.0,0.0,0.0,0.0,0.0,0.0,0.0,0.0,0.0,0.0,0.0,0.0,0.0,0.0,0.0,0.0,0.0,0.0,0.0,0.0,0.0,0.0,0.0,0.0,0.0,0.0,0.0,0.0,0.0,0.0,0.0,0.0,0.0,0.0,0.0,0.0,0.0,-0.1818,-0.2828,-0.3231,-0.3231,-0.323,-0.323,-0.3228,-0.3224,-0.3206,-0.318,-0.3167,-0.3146,-0.3129,-0.3119,-0.3133,-0.3149,-0.3182,-0.3209,-0.3215,-0.3202,-0.3176,-0.316,-0.3148,-0.3127,-0.3092,-0.3282,-0.3507,-0.4698,-0.6278,2.0111,2.0111,2.0111,2.032,2.032,2.032,2.032,2.032,2.032,2.0529,2.1154,2.1561,2.1977,2.2599,2.2599,2.1743,2.0696,2.0296,1.9477,1.8215,1.737,1.6958,1.6978,1.6978,1.6978,1.6978,1.6978,1.6978,1.6978,1.6978,1.6978,1.6978,1.6978,1.6341,1.5493,1.5283,1.4657,1.3391,1.1271,0.8329,0.4732,0.0,0.0,0.0,0.0,0.0,0.0,0.0,0.0,0.0,0.0,0.0,0.0,0.0,0.0,0.0,0.0,0.0,0.0,0.0,0.0,0.0,0.0,0.0,0.0,0.0,0.0,0.0,0.0,0.0,0.0,0.0,0.0,0.0,0.0,0.0,0.0,0.0,0.0,0.0,0.0,0.0,0.0,0.0,0.0,0.0,-0.1616,-0.2625,-0.3231,-0.3231,-0.323,-0.323,-0.323,-0.3225,-0.3209,-0.3185,-0.3168,-0.3149,-0.313,-0.3122,-0.3144,-0.3161,-0.3175,-0.3198,-0.3206,-0.3217,-0.3205,-0.3191,-0.3179,-0.3157,-0.3126,-0.3123,-0.3134,-0.4516,-0.6286,2.1353,2.032,2.032,2.032,2.032,2.032,2.032,2.032,2.032,2.0737,2.1769,2.259,2.3616,2.4844,2.4844,2.3372,2.1475,2.0654,1.9647,1.8626,1.7566,1.6944,1.6971,1.6978,1.6978,1.6978,1.6978,1.6978,1.6978,1.6978,1.6978,1.6978,1.6978,1.6341,1.55,1.5283,1.4651,1.3195,1.09,0.7533,0.3901,0.0,0.0,0.0,0.0,0.0,0.0,0.0,0.0,0.0,0.0,0.0,0.0,0.0,0.0,0.0,0.0,0.0,0.0,0.0,0.0,0.0,0.0,0.0,0.0,0.0,0.0,0.0,0.0,0.0,0.0,0.0,0.0,0.0,0.0,0.0,0.0,0.0,0.0,0.0,0.0,0.0,0.0,0.0,0.0,0.0,-0.2222,-0.2828,-0.3231,-0.3231,-0.323,-0.323,-0.323,-0.3227,-0.3208,-0.3186,-0.3176,-0.3156,-0.3125,-0.3126,-0.3156,-0.3175,-0.3183,-0.3191,-0.3202,-0.3212,-0.3223,-0.3212,-0.3189,-0.3175,-0.3163,-0.3156,-0.3346,-0.4708,-0.627,2.3362,2.1959,2.1353,2.0929,2.0496,2.0929,2.1145,2.1145,2.1145,2.1769,2.3004,2.4235,2.6077,2.709,2.6896,2.5656,2.3775,2.1647,2.0015,1.8589,1.7552,1.7147,1.6965,1.6978,1.6978,1.6978,1.6978,1.6978,1.6992,1.7012,1.7032,1.6985,1.6978,1.6341,1.5716,1.5121,1.4733,1.3087,1.1429,0.8468,0.4811,0.2187,0.0,0.0,0.0,0.0,0.0,0.0,0.0,0.0,0.0,0.0,0.0,0.0,0.0,0.0,0.0,0.0,0.0,0.0,0.0,0.0,0.0,0.0,0.0,0.0,0.0,0.0,0.0,0.0,0.0,0.0,0.0,0.0,0.0,0.0,0.0,0.0,0.0,0.0,0.0,0.0,0.0,0.0,0.0,0.0,-0.3234,-0.3232,-0.3231,-0.3231,-0.323,-0.323,-0.323,-0.3224,-0.3204,-0.3187,-0.3179,-0.3168,-0.3137,-0.3135,-0.3168,-0.3175,-0.3175,-0.3186,-0.3194,-0.3201,-0.3208,-0.3202,-0.3198,-0.3197,-0.319,-0.3171,-0.3555,-0.5113,-0.6051,2.6264,2.6261,2.4235,2.2329,2.0588,2.2554,2.3418,2.3644,2.3418,2.4019,2.544,2.7112,2.8756,2.9569,2.9162,2.8371,2.7813,2.3756,2.1052,1.9184,1.7517,1.7133,1.6958,1.6978,1.6978,1.6978,1.6978,1.6978,1.7012,1.71,1.7066,1.7005,1.7046,1.6367,1.5555,1.5223,1.4248,1.3017,1.1994,1.03,0.7041,0.4399,0.2415,0.044,0.0,0.0,0.0,0.0,0.0,0.0,0.0,0.0,0.0,0.0,0.0,0.0,0.0,0.0,0.0,0.0,0.0,0.0,0.0,0.0,0.0,0.0,0.0,0.0,0.0,0.0,0.0,0.0,0.0,0.0,0.0,0.0,0.0,0.0,0.0,0.0,0.0,0.0,0.0,0.0,0.0,0.0,-0.3232,-0.3232,-0.3231,-0.323,-0.323,-0.323,-0.323,-0.322,-0.3198,-0.3186,-0.3178,-0.3178,-0.3163,-0.3167,-0.3186,-0.3183,-0.3167,-0.3172,-0.3179,-0.3186,-0.3195,-0.3205,-0.3213,-0.3223,-0.3217,-0.3395,-0.3953,-0.5294,-0.5825,2.8704,2.8733,2.7929,2.5584,2.2373,2.4421,2.6197,2.7177,2.5962,2.6467,2.8121,2.9688,3.1201,3.1605,3.1403,3.0834,3.0286,2.7553,2.3559,2.0206,1.812,1.7119,1.6951,1.6978,1.6978,1.6978,1.6978,1.6978,1.6992,1.7141,1.7161,1.7141,1.7202,1.6389,1.5785,1.4932,1.395,1.316,1.2549,1.1048,0.8671,0.6673,0.4214,0.1327,0.0221,0.0,0.0,0.0,0.0,0.0,0.0,0.0,0.0,0.0,0.0,0.0,0.0,0.0,0.0,0.0,0.0,0.0,0.0,0.0,0.0,0.0,0.0,0.0,0.0,0.0,0.0,0.0,0.0,0.0,0.0,0.0,0.0,0.0,0.0,0.0,0.0,0.0,0.0,0.0,0.0,-0.2828,-0.303,-0.3231,-0.3231,-0.323,-0.323,-0.323,-0.323,-0.3225,-0.3205,-0.3191,-0.3178,-0.318,-0.3185,-0.3189,-0.319,-0.3165,-0.3153,-0.3159,-0.3164,-0.3172,-0.3187,-0.3212,-0.3224,-0.3228,-0.3427,-0.3817,-0.4567,-0.5685,-0.5822,3.0752,3.1051,3.0989,2.8727,2.5664,2.6851,2.8855,3.0526,2.8618,2.8456,3.0301,3.1529,3.2611,3.3013,3.2812,3.2475,3.1731,2.9879,2.5861,2.1862,1.8514,1.7315,1.6951,1.6978,1.6978,1.6978,1.6978,1.6978,1.6985,1.7168,1.7249,1.7324,1.7439,1.6844,1.5686,1.4656,1.3851,1.3502,1.3097,1.1785,0.9627,0.8707,0.603,0.2887,0.0888,0.0,0.0,0.0,0.0,0.0,0.0,0.0,0.0,0.0,0.0,0.0,0.0,0.0,0.0,0.0,0.0,0.0,0.0,0.0,0.0,0.0,0.0,0.0,0.0,0.0,0.0,0.0,0.0,0.0,0.0,0.0,0.0,0.0,0.0,0.0,0.0,0.0,0.0,0.0,0.0,-0.2424,-0.303,-0.3232,-0.3232,-0.3231,-0.323,-0.323,-0.323,-0.3224,-0.3216,-0.3198,-0.3182,-0.3185,-0.3187,-0.319,-0.3185,-0.316,-0.3146,-0.3152,-0.3157,-0.3161,-0.3182,-0.321,-0.3223,-0.323,-0.3427,-0.3825,-0.5193,-0.6117,-0.6056,3.2284,3.2933,3.2523,3.1087,2.9248,2.9736,3.1276,3.2657,3.1036,3.0723,3.1717,3.2397,3.2812,3.3213,3.2812,3.2865,3.297,3.1832,2.8018,2.2257,1.8485,1.7294,1.6944,1.6978,1.6978,1.6978,1.6978,1.6978,1.6985,1.7243,1.7365,1.7473,1.7391,1.7033,1.5964,1.4736,1.4195,1.4292,1.4081,1.2747,1.0957,1.0024,0.7353,0.3795,0.1113,0.0,0.0,0.0,0.0,0.0,0.0,0.0,0.0,0.0,0.0,0.0,0.0,0.0,0.0,0.0,0.0,0.0,0.0,0.0,0.0,0.0,0.0,0.0,0.0,0.0,0.0,0.0,0.0,0.0,0.0,0.0,0.0,0.0,0.0,0.0,0.0,0.0,0.0,0.0,0.0,-0.202,-0.283,-0.3234,-0.3232,-0.3231,-0.3231,-0.323,-0.323,-0.3225,-0.3216,-0.32,-0.3187,-0.319,-0.3191,-0.3194,-0.3185,-0.3164,-0.3155,-0.3152,-0.315,-0.3156,-0.3182,-0.321,-0.322,-0.323,-0.323,-0.3827,-0.54,-0.6555,-0.63,3.2452,3.2959,3.2879,3.2643,3.2093,3.1784,3.2497,3.3066,3.2624,3.2507,3.2602,3.2907,3.3213,3.32,3.3213,3.324,3.3306,3.3075,2.9244,2.2204,1.8654,1.7287,1.6944,1.7209,1.6992,1.6978,1.6978,1.7005,1.6985,1.7297,1.7405,1.7494,1.7046,1.6249,1.5545,1.4686,1.4292,1.4314,1.4097,1.3425,1.1416,1.0273,0.8039,0.4036,0.1341,0.0,0.0,0.0,0.0,0.0,0.0,0.0,0.0,0.0,0.0,0.0,0.0,0.0,0.0,0.0,0.0,0.0,0.0,0.0,0.0,0.0,0.0,0.0,0.0,0.0,0.0,0.0,0.0,0.0,0.0,0.0,0.0,0.0,0.0,0.0,0.0,0.0,0.0,0.0,0.0,0.0,-0.202,-0.283,-0.303,-0.3231,-0.323,-0.323,-0.323,-0.3225,-0.3217,-0.3205,-0.3204,-0.3209,-0.3205,-0.3198,-0.3185,-0.3171,-0.3171,-0.3172,-0.316,-0.3152,-0.3185,-0.3213,-0.3223,-0.323,-0.323,-0.4038,-0.5834,-0.6401,-0.6354,3.2291,3.2812,3.2826,3.3053,3.3307,3.2906,3.2933,3.3253,3.336,3.3293,3.3213,3.3334,3.3414,3.3414,3.3414,3.3414,3.344,3.3224,3.0274,2.3222,1.9259,1.815,1.7636,1.7482,1.7332,1.71,1.7127,1.7148,1.7175,1.7385,1.7528,1.7418,1.6659,1.5826,1.5174,1.452,1.4314,1.432,1.4097,1.3652,1.2326,1.0987,0.9205,0.5611,0.2917,0.0,0.0,0.0,0.0,0.0,0.0,0.0,0.0,0.0,0.0,0.0,0.0,0.0,0.0,0.0,0.0,0.0,0.0,0.0,0.0,0.0,0.0,0.0,0.0,0.0,0.0,0.0,0.0,0.0,0.0,0.0,0.0,0.0,0.0,0.0,0.0,0.0,0.0,0.0,0.0,0.0,-0.101,-0.202,-0.303,-0.3029,-0.323,-0.323,-0.323,-0.3228,-0.3224,-0.3217,-0.322,-0.3228,-0.322,-0.3209,-0.3202,-0.3193,-0.3193,-0.3191,-0.3179,-0.3178,-0.3198,-0.3217,-0.3225,-0.323,-0.323,-0.4444,-0.6063,-0.6436,-0.6395,3.2011,3.2505,3.2545,3.2893,3.3307,3.3093,3.2986,3.3013,3.3293,3.34,3.34,3.3387,3.3414,3.3414,3.3414,3.3414,3.344,3.3413,3.0226,2.5789,2.1397,1.9919,1.8798,1.8258,1.7889,1.7559,1.7372,1.7324,1.7412,1.7487,1.7636,1.7565,1.6924,1.5838,1.5174,1.4531,1.4542,1.432,1.432,1.3652,1.2544,1.2625,1.058,0.7645,0.5178,0.2476,0.0,0.0,0.0,0.0,0.0,0.0,0.0,0.0,0.0,0.0,0.0,0.0,0.0,0.0,0.0,0.0,0.0,0.0,0.0,0.0,0.0,0.0,0.0,0.0,0.0,0.0,0.0,0.0,0.0,0.0,0.0,0.0,0.0,0.0,0.0,0.0,0.0,0.0,0.0,0.0,-0.101,-0.202,-0.2828,-0.3231,-0.323,-0.323,-0.323,-0.323,-0.3227,-0.3223,-0.3224,-0.323,-0.323,-0.3221,-0.3217,-0.3209,-0.3205,-0.32,-0.3198,-0.3202,-0.3215,-0.3223,-0.3228,-0.323,-0.323,-0.3635,-0.5253,-0.6262,-0.6433,3.2011,3.2532,3.2545,3.2879,3.3347,3.2881,3.2828,3.2969,3.3187,3.3414,3.3414,3.3414,3.3414,3.3414,3.3414,3.3414,3.3467,3.3118,3.1504,2.7951,2.4235,2.1891,2.0361,1.9212,1.8445,1.7628,1.7439,1.7453,1.7433,1.7507,1.765,1.7812,1.7338,1.6457,1.5832,1.5197,1.4758,1.4542,1.432,1.3875,1.3237,1.3098,1.149,0.9678,0.746,0.429,0.0,0.0,0.0,0.0,0.0,0.0,0.0,0.0,0.0,0.0,0.0,0.0,0.0,0.0,0.0,0.0,0.0,0.0,0.0,0.0,0.0,0.0,0.0,0.0,0.0,0.0,0.0,0.0,0.0,0.0,0.0,0.0,0.0,0.0,0.0,0.0,0.0,0.0,0.0,0.0,-0.1011,-0.2025,-0.2831,-0.3033,-0.323,-0.323,-0.323,-0.323,-0.323,-0.3227,-0.3228,-0.323,-0.323,-0.3228,-0.3219,-0.3212,-0.321,-0.3209,-0.3208,-0.3215,-0.3225,-0.323,-0.323,-0.323,-0.323,-0.3635,-0.4038,-0.5248,-0.6259,3.1944,3.2345,3.2372,3.2848,3.3278,3.3081,3.2921,3.3076,3.3227,3.3414,3.3414,3.3414,3.3414,3.3414,3.3414,3.3414,3.3427,3.3306,3.1883,2.9209,2.6916,2.3928,2.1958,1.9991,1.8835,1.7996,1.7589,1.7629,1.7568,1.7541,1.7656,1.7599,1.7731,1.7545,1.6722,1.5868,1.498,1.4758,1.432,1.4097,1.3704,1.3557,1.2653,1.1257,0.9282,0.5654,0.0,0.0,0.0,0.0,0.0,0.0,0.0,0.0,0.0,0.0,0.0,0.0,0.0,0.0,0.0,0.0,0.0,0.0,0.0,0.0,0.0,0.0,0.0,0.0,0.0,0.0,0.0,0.0,0.0,0.0,0.0,0.0,0.0,0.0,0.0,0.0,0.0,0.0,0.0,0.0,-0.1024,-0.2049,-0.2652,-0.3043,-0.3236,-0.323,-0.323,-0.323,-0.3231,-0.3232,-0.323,-0.323,-0.323,-0.3225,-0.3217,-0.3209,-0.3204,-0.321,-0.322,-0.3225,-0.323,-0.323,-0.323,-0.323,-0.323,-0.3433,-0.3635,-0.4038,-0.5047,3.1837,3.2118,3.2158,3.2619,3.3307,3.3399,3.3267,3.3291,3.3307,3.3414,3.3414,3.3414,3.3414,3.3414,3.3414,3.3414,3.3427,3.3266,3.2235,2.9307,2.7796,2.5291,2.2725,2.1019,1.9431,1.8466,1.7833,1.7772,1.7785,1.7916,1.7629,1.7378,1.7656,1.7663,1.7358,1.6041,1.5383,1.5202,1.4764,1.4325,1.4379,1.4258,1.3891,1.2172,1.0418,0.7965,0.2472,0.0,0.0,0.0,0.0,0.0,0.0,0.0,0.0,0.0,0.0,0.0,0.0,0.0,0.0,0.0,0.0,0.0,0.0,0.0,0.0,0.0,0.0,0.0,0.0,0.0,0.0,0.0,0.0,0.0,0.0,0.0,0.0,0.0,0.0,0.0,0.0,0.0,0.0,0.0,-0.1035,-0.2068,-0.2682,-0.3272,-0.3262,-0.3249,-0.3243,-0.3245,-0.324,-0.3239,-0.3232,-0.323,-0.323,-0.3225,-0.3217,-0.3206,-0.3194,-0.3208,-0.3224,-0.3227,-0.323,-0.323,-0.323,-0.323,-0.323,-0.323,-0.3433,-0.3433,-0.3836,3.1837,3.2144,3.2363,3.2812,3.3368,3.3466,3.3374,3.332,3.3374,3.3414,3.3414,3.3414,3.3414,3.3414,3.3414,3.3414,3.3414,3.3227,3.2183,3.0286,2.87,2.6221,2.3649,2.1791,1.9997,1.8501,1.786,1.786,1.7812,1.7889,1.7772,1.7438,1.7514,1.75,1.7745,1.6413,1.5771,1.5634,1.4764,1.432,1.4347,1.4199,1.3798,1.2391,1.0624,0.8375,0.3817,0.0,0.0,0.0,0.0,0.0,0.0,0.0,0.0,0.0,0.0,0.0,0.0,0.0,0.0,0.0,0.0,0.0,0.0,0.0,0.0,0.0,0.0,0.0,0.0,0.0,0.0,0.0,0.0,0.0,0.0,0.0,0.0,0.0,0.0,0.0,0.0,0.0,0.0,0.0,0.0,-0.2074,-0.2701,-0.3311,-0.3313,-0.3299,-0.3272,-0.3266,-0.3258,-0.3243,-0.3234,-0.323,-0.323,-0.3224,-0.3217,-0.3209,-0.3201,-0.3216,-0.3228,-0.323,-0.323,-0.323,-0.323,-0.323,-0.323,-0.323,-0.323,-0.3433,-0.3433,3.1757,3.1971,3.2102,3.2563,3.3076,3.324,3.3414,3.3414,3.3414,3.3414,3.3414,3.3414,3.3414,3.3414,3.3414,3.3414,3.3414,3.3414,3.2703,3.1247,2.8756,2.6293,2.4215,2.2309,2.0004,1.8522,1.8081,1.7846,1.7819,1.7916,1.782,1.7431,1.725,1.7419,1.7458,1.6601,1.5949,1.6083,1.498,1.432,1.433,1.4188,1.3761,1.2377,1.1261,0.9015,0.6066,0.2913,0.0,0.0,0.0,0.0,0.0,0.0,0.0,0.0,0.0,0.0,0.0,0.0,0.0,0.0,0.0,0.0,0.0,0.0,0.0,0.0,0.0,0.0,0.0,0.0,0.0,0.0,0.0,0.0,0.0,0.0,0.0,0.0,0.0,0.0,0.0,0.0,0.0,0.0,0.0,-0.2098,-0.2937,-0.335,-0.3352,-0.3343,-0.3313,-0.3284,-0.3269,-0.325,-0.3232,-0.323,-0.3232,-0.3219,-0.321,-0.3209,-0.321,-0.3217,-0.3224,-0.323,-0.323,-0.323,-0.323,-0.323,-0.323,-0.323,-0.323,-0.323,-0.3231,3.1704,3.1797,3.171,3.2155,3.2666,3.3173,3.3414,3.3414,3.3414,3.3414,3.3414,3.3414,3.3414,3.3414,3.3414,3.3414,3.3414,3.3414,3.2755,3.155,2.9054,2.6565,2.4271,2.2361,2.0027,1.8743,1.8081,1.786,1.7853,1.7937,1.7663,1.7518,1.7213,1.7094,1.704,1.6614,1.6138,1.6047,1.5208,1.4542,1.4363,1.4417,1.3715,1.3044,1.2611,1.1041,0.8079,0.5375,0.2912,0.0,0.0,0.0,0.0,0.0,0.0,0.0,0.0,0.0,0.0,0.0,0.0,0.0,0.0,0.0,0.0,0.0,0.0,0.0,0.0,0.0,0.0,0.0,0.0,0.0,0.0,0.0,0.0,0.0,0.0,0.0,0.0,0.0,0.0,0.0,0.0,0.0,0.0,0.0,-0.298,-0.3179,-0.3384,-0.3369,-0.3343,-0.3315,-0.3294,-0.3262,-0.3243,-0.3239,-0.3239,-0.322,-0.3206,-0.3213,-0.3213,-0.3208,-0.3215,-0.3227,-0.323,-0.323,-0.323,-0.323,-0.323,-0.323,-0.323,-0.323,-0.323,3.181,3.2064,3.1777,3.1998,3.2709,3.3253,3.3414,3.3414,3.3414,3.3414,3.3414,3.3414,3.3414,3.3414,3.3414,3.3414,3.3414,3.3414,3.2996,3.1805,2.9527,2.6839,2.4532,2.2168,2.0042,1.8743,1.786,1.786,1.7853,1.7964,1.7889,1.7697,1.7419,1.7405,1.718,1.6743,1.6525,1.6237,1.5646,1.498,1.4758,1.4564,1.3891,1.3673,1.3684,1.1884,0.9854,0.7613,0.5375,0.3361,0.2019,0.1354,0.0,0.0,0.0,0.0,0.0,0.0,0.0,0.0,0.0,0.0,0.0,0.0,0.0,0.0,0.0,0.0,0.0,0.0,0.0,0.0,0.0,0.0,0.0,0.0,0.0,0.0,0.0,0.0,0.0,0.0,0.0,0.0,0.0,0.0,0.0,0.0,0.0,-0.2985,-0.3198,-0.3392,-0.3367,-0.3363,-0.3348,-0.3288,-0.3262,-0.3257,-0.3247,-0.3228,-0.3219,-0.3224,-0.3223,-0.3216,-0.3219,-0.3228,-0.323,-0.323,-0.323,-0.323,-0.323,-0.323,-0.323,-0.323,-0.323]}]]